<?xml version="1.0" encoding="UTF-8" standalone="no" ?>
<gpx xmlns="http://www.topografix.com/GPX/1/1" xmlns:xsi="http://www.w3.org/2001/XMLSchema-instance" xsi:schemaLocation="http://www.topografix.com/GPX/1/1 http://www.topografix.com/GPX/1/1/gpx.xsd" version="1.1" creator="VisuGPX - https://www.visugpx.com">
  <metadata>
    <name>trail combe benite 2013</name>
    <desc><![CDATA[trail combe benite 2013]]></desc>
  </metadata>
  <trk>
    <name><![CDATA[Move]]></name>
    <trkseg>
      <trkpt lat="45.57437" lon="6.65327">
        <ele>1307</ele>
        <time>2013-09-08T06:29:17.170Z</time>
      </trkpt>
      <trkpt lat="45.57426" lon="6.65318">
        <ele>1307</ele>
        <time>2013-09-08T06:29:23.290Z</time>
      </trkpt>
      <trkpt lat="45.57419" lon="6.65306">
        <ele>1307</ele>
        <time>2013-09-08T06:29:27.290Z</time>
      </trkpt>
      <trkpt lat="45.57413" lon="6.65292">
        <ele>1307</ele>
        <time>2013-09-08T06:29:31.290Z</time>
      </trkpt>
      <trkpt lat="45.57408" lon="6.65281">
        <ele>1307</ele>
        <time>2013-09-08T06:29:34.290Z</time>
      </trkpt>
      <trkpt lat="45.57401" lon="6.6527">
        <ele>1307.14499968</ele>
        <time>2013-09-08T06:29:37.280Z</time>
      </trkpt>
      <trkpt lat="45.57395" lon="6.65257">
        <ele>1307.44499968</ele>
        <time>2013-09-08T06:29:40.280Z</time>
      </trkpt>
      <trkpt lat="45.57388" lon="6.65243">
        <ele>1307.74499968</ele>
        <time>2013-09-08T06:29:43.280Z</time>
      </trkpt>
      <trkpt lat="45.57381" lon="6.6523">
        <ele>1308</ele>
        <time>2013-09-08T06:29:46.290Z</time>
      </trkpt>
      <trkpt lat="45.57374" lon="6.65216">
        <ele>1308</ele>
        <time>2013-09-08T06:29:49.290Z</time>
      </trkpt>
      <trkpt lat="45.57368" lon="6.65201">
        <ele>1308</ele>
        <time>2013-09-08T06:29:52.290Z</time>
      </trkpt>
      <trkpt lat="45.57361" lon="6.65189">
        <ele>1308</ele>
        <time>2013-09-08T06:29:55.290Z</time>
      </trkpt>
      <trkpt lat="45.57356" lon="6.65176">
        <ele>1308</ele>
        <time>2013-09-08T06:29:58.290Z</time>
      </trkpt>
      <trkpt lat="45.5735" lon="6.65161">
        <ele>1308</ele>
        <time>2013-09-08T06:30:02.290Z</time>
      </trkpt>
      <trkpt lat="45.57346" lon="6.65149">
        <ele>1308</ele>
        <time>2013-09-08T06:30:05.290Z</time>
      </trkpt>
      <trkpt lat="45.57343" lon="6.65135">
        <ele>1308.24</ele>
        <time>2013-09-08T06:30:08.230Z</time>
      </trkpt>
      <trkpt lat="45.5734" lon="6.65119">
        <ele>1308.64</ele>
        <time>2013-09-08T06:30:12.230Z</time>
      </trkpt>
      <trkpt lat="45.57337" lon="6.65104">
        <ele>1309.16</ele>
        <time>2013-09-08T06:30:16.230Z</time>
      </trkpt>
      <trkpt lat="45.57334" lon="6.6509">
        <ele>1310.76</ele>
        <time>2013-09-08T06:30:20.230Z</time>
      </trkpt>
      <trkpt lat="45.5733" lon="6.65076">
        <ele>1312.36</ele>
        <time>2013-09-08T06:30:24.230Z</time>
      </trkpt>
      <trkpt lat="45.57327" lon="6.6506">
        <ele>1313.24</ele>
        <time>2013-09-08T06:30:28.230Z</time>
      </trkpt>
      <trkpt lat="45.57326" lon="6.65043">
        <ele>1313.64</ele>
        <time>2013-09-08T06:30:32.230Z</time>
      </trkpt>
      <trkpt lat="45.57326" lon="6.65029">
        <ele>1313.94</ele>
        <time>2013-09-08T06:30:35.230Z</time>
      </trkpt>
      <trkpt lat="45.57325" lon="6.65014">
        <ele>1315.7299968</ele>
        <time>2013-09-08T06:30:39.290Z</time>
      </trkpt>
      <trkpt lat="45.57334" lon="6.65006">
        <ele>1318.7299968</ele>
        <time>2013-09-08T06:30:45.290Z</time>
      </trkpt>
      <trkpt lat="45.5734" lon="6.6502">
        <ele>1320.03799808</ele>
        <time>2013-09-08T06:30:49.290Z</time>
      </trkpt>
      <trkpt lat="45.57347" lon="6.65033">
        <ele>1321.23799808</ele>
        <time>2013-09-08T06:30:53.290Z</time>
      </trkpt>
      <trkpt lat="45.57353" lon="6.65048">
        <ele>1322.14599936</ele>
        <time>2013-09-08T06:30:57.290Z</time>
      </trkpt>
      <trkpt lat="45.5736" lon="6.65061">
        <ele>1322.54599936</ele>
        <time>2013-09-08T06:31:01.290Z</time>
      </trkpt>
      <trkpt lat="45.57367" lon="6.65075">
        <ele>1323.1640144185</ele>
        <time>2013-09-08T06:31:06.160Z</time>
      </trkpt>
      <trkpt lat="45.57376" lon="6.65086">
        <ele>1325.6491054626</ele>
        <time>2013-09-08T06:31:11.160Z</time>
      </trkpt>
      <trkpt lat="45.57384" lon="6.65095">
        <ele>1328.1368234129</ele>
        <time>2013-09-08T06:31:16.230Z</time>
      </trkpt>
      <trkpt lat="45.57392" lon="6.65104">
        <ele>1330.148894552</ele>
        <time>2013-09-08T06:31:21.230Z</time>
      </trkpt>
      <trkpt lat="45.57402" lon="6.65113">
        <ele>1332.16</ele>
        <time>2013-09-08T06:31:26.230Z</time>
      </trkpt>
      <trkpt lat="45.5741" lon="6.65121">
        <ele>1334.16</ele>
        <time>2013-09-08T06:31:31.230Z</time>
      </trkpt>
      <trkpt lat="45.57419" lon="6.65132">
        <ele>1336.53199872</ele>
        <time>2013-09-08T06:31:37.160Z</time>
      </trkpt>
      <trkpt lat="45.57429" lon="6.65138">
        <ele>1338.53199872</ele>
        <time>2013-09-08T06:31:42.160Z</time>
      </trkpt>
      <trkpt lat="45.57438" lon="6.65145">
        <ele>1340.43799808</ele>
        <time>2013-09-08T06:31:47.290Z</time>
      </trkpt>
      <trkpt lat="45.57444" lon="6.65156">
        <ele>1341.93799808</ele>
        <time>2013-09-08T06:31:52.290Z</time>
      </trkpt>
      <trkpt lat="45.57451" lon="6.65171">
        <ele>1343.58399744</ele>
        <time>2013-09-08T06:31:57.290Z</time>
      </trkpt>
      <trkpt lat="45.57455" lon="6.65187">
        <ele>1345.58399744</ele>
        <time>2013-09-08T06:32:02.290Z</time>
      </trkpt>
      <trkpt lat="45.57466" lon="6.65197">
        <ele>1347.43799808</ele>
        <time>2013-09-08T06:32:07.290Z</time>
      </trkpt>
      <trkpt lat="45.57475" lon="6.65207">
        <ele>1348.93799808</ele>
        <time>2013-09-08T06:32:12.290Z</time>
      </trkpt>
      <trkpt lat="45.57483" lon="6.6522">
        <ele>1350.28</ele>
        <time>2013-09-08T06:32:17.230Z</time>
      </trkpt>
      <trkpt lat="45.57489" lon="6.65234">
        <ele>1351.28</ele>
        <time>2013-09-08T06:32:22.230Z</time>
      </trkpt>
      <trkpt lat="45.57493" lon="6.65248">
        <ele>1352.04</ele>
        <time>2013-09-08T06:32:26.230Z</time>
      </trkpt>
      <trkpt lat="45.57498" lon="6.65261">
        <ele>1352.44</ele>
        <time>2013-09-08T06:32:30.230Z</time>
      </trkpt>
      <trkpt lat="45.57507" lon="6.6527">
        <ele>1352.84</ele>
        <time>2013-09-08T06:32:34.230Z</time>
      </trkpt>
      <trkpt lat="45.57515" lon="6.6528">
        <ele>1353.69199872</ele>
        <time>2013-09-08T06:32:39.290Z</time>
      </trkpt>
      <trkpt lat="45.57523" lon="6.6529">
        <ele>1354.73199872</ele>
        <time>2013-09-08T06:32:44.490Z</time>
      </trkpt>
      <trkpt lat="45.57531" lon="6.65301">
        <ele>1355.69199872</ele>
        <time>2013-09-08T06:32:49.290Z</time>
      </trkpt>
      <trkpt lat="45.57541" lon="6.6531">
        <ele>1356.69199872</ele>
        <time>2013-09-08T06:32:54.290Z</time>
      </trkpt>
      <trkpt lat="45.57551" lon="6.65319">
        <ele>1359.04</ele>
        <time>2013-09-08T06:32:59.230Z</time>
      </trkpt>
      <trkpt lat="45.57561" lon="6.65328">
        <ele>1362.04</ele>
        <time>2013-09-08T06:33:04.230Z</time>
      </trkpt>
      <trkpt lat="45.57569" lon="6.65336">
        <ele>1364.33199872</ele>
        <time>2013-09-08T06:33:09.160Z</time>
      </trkpt>
      <trkpt lat="45.57581" lon="6.65339">
        <ele>1366.73199872</ele>
        <time>2013-09-08T06:33:15.160Z</time>
      </trkpt>
      <trkpt lat="45.57591" lon="6.65335">
        <ele>1369.23799808</ele>
        <time>2013-09-08T06:33:23.290Z</time>
      </trkpt>
      <trkpt lat="45.57602" lon="6.6533">
        <ele>1371.09199872</ele>
        <time>2013-09-08T06:33:31.290Z</time>
      </trkpt>
      <trkpt lat="45.5761" lon="6.65322">
        <ele>1373.424</ele>
        <time>2013-09-08T06:33:39.390Z</time>
      </trkpt>
      <trkpt lat="45.57619" lon="6.65313">
        <ele>1377.824</ele>
        <time>2013-09-08T06:33:50.390Z</time>
      </trkpt>
      <trkpt lat="45.57628" lon="6.65308">
        <ele>1382.2195866773</ele>
        <time>2013-09-08T06:34:03.310Z</time>
      </trkpt>
      <trkpt lat="45.57641" lon="6.65303">
        <ele>1384.9079889265</ele>
        <time>2013-09-08T06:34:12.230Z</time>
      </trkpt>
      <trkpt lat="45.57652" lon="6.653">
        <ele>1387.92</ele>
        <time>2013-09-08T06:34:22.230Z</time>
      </trkpt>
      <trkpt lat="45.57663" lon="6.65296">
        <ele>1389.34</ele>
        <time>2013-09-08T06:34:29.230Z</time>
      </trkpt>
      <trkpt lat="45.57673" lon="6.65292">
        <ele>1390.68</ele>
        <time>2013-09-08T06:34:39.230Z</time>
      </trkpt>
      <trkpt lat="45.57683" lon="6.65289">
        <ele>1393.47599616</ele>
        <time>2013-09-08T06:34:48.290Z</time>
      </trkpt>
      <trkpt lat="45.57693" lon="6.65289">
        <ele>1398.12</ele>
        <time>2013-09-08T06:34:56.230Z</time>
      </trkpt>
      <trkpt lat="45.57704" lon="6.65288">
        <ele>1399.32</ele>
        <time>2013-09-08T06:35:00.230Z</time>
      </trkpt>
      <trkpt lat="45.57714" lon="6.65287">
        <ele>1400.52</ele>
        <time>2013-09-08T06:35:04.230Z</time>
      </trkpt>
      <trkpt lat="45.57724" lon="6.65283">
        <ele>1401.49199872</ele>
        <time>2013-09-08T06:35:08.290Z</time>
      </trkpt>
      <trkpt lat="45.57735" lon="6.6528">
        <ele>1402.49199872</ele>
        <time>2013-09-08T06:35:13.290Z</time>
      </trkpt>
      <trkpt lat="45.57745" lon="6.65281">
        <ele>1403.54599936</ele>
        <time>2013-09-08T06:35:21.290Z</time>
      </trkpt>
      <trkpt lat="45.57756" lon="6.65279">
        <ele>1404.69199872</ele>
        <time>2013-09-08T06:35:29.290Z</time>
      </trkpt>
      <trkpt lat="45.57765" lon="6.65274">
        <ele>1407.39799808</ele>
        <time>2013-09-08T06:35:38.160Z</time>
      </trkpt>
      <trkpt lat="45.57776" lon="6.65274">
        <ele>1413.02</ele>
        <time>2013-09-08T06:35:49.230Z</time>
      </trkpt>
      <trkpt lat="45.57785" lon="6.6527">
        <ele>1415.04</ele>
        <time>2013-09-08T06:35:56.230Z</time>
      </trkpt>
      <trkpt lat="45.57795" lon="6.65267">
        <ele>1415.94</ele>
        <time>2013-09-08T06:36:05.230Z</time>
      </trkpt>
      <trkpt lat="45.57805" lon="6.65263">
        <ele>1420.2299968</ele>
        <time>2013-09-08T06:36:14.290Z</time>
      </trkpt>
      <trkpt lat="45.57813" lon="6.65255">
        <ele>1424.18399744</ele>
        <time>2013-09-08T06:36:26.290Z</time>
      </trkpt>
      <trkpt lat="45.5782" lon="6.65243">
        <ele>1427.38399744</ele>
        <time>2013-09-08T06:36:34.290Z</time>
      </trkpt>
      <trkpt lat="45.57829" lon="6.65238">
        <ele>1429.77999872</ele>
        <time>2013-09-08T06:36:40.280Z</time>
      </trkpt>
      <trkpt lat="45.5784" lon="6.65237">
        <ele>1431.78399744</ele>
        <time>2013-09-08T06:36:45.290Z</time>
      </trkpt>
      <trkpt lat="45.57851" lon="6.65236">
        <ele>1433.6119408118</ele>
        <time>2013-09-08T06:36:51.230Z</time>
      </trkpt>
      <trkpt lat="45.57863" lon="6.65234">
        <ele>1435</ele>
        <time>2013-09-08T06:36:56.230Z</time>
      </trkpt>
      <trkpt lat="45.57874" lon="6.65234">
        <ele>1435</ele>
        <time>2013-09-08T06:37:00.230Z</time>
      </trkpt>
      <trkpt lat="45.57886" lon="6.65237">
        <ele>1435</ele>
        <time>2013-09-08T06:37:05.230Z</time>
      </trkpt>
      <trkpt lat="45.57895" lon="6.65241">
        <ele>1435</ele>
        <time>2013-09-08T06:37:09.290Z</time>
      </trkpt>
      <trkpt lat="45.57905" lon="6.65243">
        <ele>1435</ele>
        <time>2013-09-08T06:37:13.290Z</time>
      </trkpt>
      <trkpt lat="45.57917" lon="6.65246">
        <ele>1435.48999936</ele>
        <time>2013-09-08T06:37:18.280Z</time>
      </trkpt>
      <trkpt lat="45.57928" lon="6.65248">
        <ele>1436.48999936</ele>
        <time>2013-09-08T06:37:23.280Z</time>
      </trkpt>
      <trkpt lat="45.57939" lon="6.6525">
        <ele>1437.49199872</ele>
        <time>2013-09-08T06:37:28.290Z</time>
      </trkpt>
      <trkpt lat="45.5795" lon="6.65251">
        <ele>1438.49199872</ele>
        <time>2013-09-08T06:37:33.290Z</time>
      </trkpt>
      <trkpt lat="45.57961" lon="6.65253">
        <ele>1439.49199872</ele>
        <time>2013-09-08T06:37:38.290Z</time>
      </trkpt>
      <trkpt lat="45.57972" lon="6.65254">
        <ele>1440.49399808</ele>
        <time>2013-09-08T06:37:43.300Z</time>
      </trkpt>
      <trkpt lat="45.57983" lon="6.65253">
        <ele>1442.2</ele>
        <time>2013-09-08T06:37:48.230Z</time>
      </trkpt>
      <trkpt lat="45.57994" lon="6.65252">
        <ele>1444.7</ele>
        <time>2013-09-08T06:37:53.230Z</time>
      </trkpt>
      <trkpt lat="45.58004" lon="6.65251">
        <ele>1446.71399808</ele>
        <time>2013-09-08T06:37:58.210Z</time>
      </trkpt>
      <trkpt lat="45.58015" lon="6.65247">
        <ele>1447.91399808</ele>
        <time>2013-09-08T06:38:02.210Z</time>
      </trkpt>
      <trkpt lat="45.58025" lon="6.65242">
        <ele>1449</ele>
        <time>2013-09-08T06:38:06.290Z</time>
      </trkpt>
      <trkpt lat="45.58035" lon="6.65236">
        <ele>1449</ele>
        <time>2013-09-08T06:38:11.300Z</time>
      </trkpt>
      <trkpt lat="45.58046" lon="6.65232">
        <ele>1449.04599936</ele>
        <time>2013-09-08T06:38:16.290Z</time>
      </trkpt>
      <trkpt lat="45.58058" lon="6.65229">
        <ele>1449.54599936</ele>
        <time>2013-09-08T06:38:21.290Z</time>
      </trkpt>
      <trkpt lat="45.58069" lon="6.65223">
        <ele>1450.27599616</ele>
        <time>2013-09-08T06:38:26.290Z</time>
      </trkpt>
      <trkpt lat="45.5808" lon="6.65219">
        <ele>1453.27599616</ele>
        <time>2013-09-08T06:38:31.290Z</time>
      </trkpt>
      <trkpt lat="45.5809" lon="6.65211">
        <ele>1456.41399808</ele>
        <time>2013-09-08T06:38:37.210Z</time>
      </trkpt>
      <trkpt lat="45.581" lon="6.65206">
        <ele>1457.61399808</ele>
        <time>2013-09-08T06:38:41.210Z</time>
      </trkpt>
      <trkpt lat="45.5811" lon="6.65202">
        <ele>1459.12</ele>
        <time>2013-09-08T06:38:46.230Z</time>
      </trkpt>
      <trkpt lat="45.5812" lon="6.65193">
        <ele>1460.92</ele>
        <time>2013-09-08T06:38:52.230Z</time>
      </trkpt>
      <trkpt lat="45.58129" lon="6.65184">
        <ele>1462.68</ele>
        <time>2013-09-08T06:38:59.230Z</time>
      </trkpt>
      <trkpt lat="45.58139" lon="6.65176">
        <ele>1464.13299968</ele>
        <time>2013-09-08T06:39:07.160Z</time>
      </trkpt>
      <trkpt lat="45.58149" lon="6.6517">
        <ele>1465.14099968</ele>
        <time>2013-09-08T06:39:17.240Z</time>
      </trkpt>
      <trkpt lat="45.58159" lon="6.65167">
        <ele>1465.84</ele>
        <time>2013-09-08T06:39:24.230Z</time>
      </trkpt>
      <trkpt lat="45.58169" lon="6.65161">
        <ele>1468.2299968</ele>
        <time>2013-09-08T06:39:30.290Z</time>
      </trkpt>
      <trkpt lat="45.58178" lon="6.65155">
        <ele>1471.1990050385</ele>
        <time>2013-09-08T06:39:36.230Z</time>
      </trkpt>
      <trkpt lat="45.58187" lon="6.65148">
        <ele>1474.1840806158</ele>
        <time>2013-09-08T06:39:42.230Z</time>
      </trkpt>
      <trkpt lat="45.58197" lon="6.65142">
        <ele>1476.8743722213</ele>
        <time>2013-09-08T06:39:50.230Z</time>
      </trkpt>
      <trkpt lat="45.58208" lon="6.65137">
        <ele>1478.14</ele>
        <time>2013-09-08T06:39:57.230Z</time>
      </trkpt>
      <trkpt lat="45.58218" lon="6.65133">
        <ele>1478.64</ele>
        <time>2013-09-08T06:40:02.230Z</time>
      </trkpt>
      <trkpt lat="45.58229" lon="6.6513">
        <ele>1479.48</ele>
        <time>2013-09-08T06:40:08.230Z</time>
      </trkpt>
      <trkpt lat="45.5824" lon="6.6513">
        <ele>1480.68</ele>
        <time>2013-09-08T06:40:14.230Z</time>
      </trkpt>
      <trkpt lat="45.58251" lon="6.65133">
        <ele>1482.09199872</ele>
        <time>2013-09-08T06:40:21.290Z</time>
      </trkpt>
      <trkpt lat="45.58263" lon="6.65136">
        <ele>1484.47599616</ele>
        <time>2013-09-08T06:40:28.290Z</time>
      </trkpt>
      <trkpt lat="45.58274" lon="6.65138">
        <ele>1488.07599616</ele>
        <time>2013-09-08T06:40:34.290Z</time>
      </trkpt>
      <trkpt lat="45.58284" lon="6.6514">
        <ele>1489.54</ele>
        <time>2013-09-08T06:40:41.230Z</time>
      </trkpt>
      <trkpt lat="45.58295" lon="6.65142">
        <ele>1490.48</ele>
        <time>2013-09-08T06:40:48.230Z</time>
      </trkpt>
      <trkpt lat="45.58305" lon="6.65143">
        <ele>1491.68</ele>
        <time>2013-09-08T06:40:54.230Z</time>
      </trkpt>
      <trkpt lat="45.58315" lon="6.65144">
        <ele>1492.89199872</ele>
        <time>2013-09-08T06:41:00.290Z</time>
      </trkpt>
      <trkpt lat="45.58323" lon="6.65145">
        <ele>1494.08999936</ele>
        <time>2013-09-08T06:41:06.280Z</time>
      </trkpt>
      <trkpt lat="45.58334" lon="6.6515">
        <ele>1495.68999936</ele>
        <time>2013-09-08T06:41:14.280Z</time>
      </trkpt>
      <trkpt lat="45.58344" lon="6.65151">
        <ele>1497.09199872</ele>
        <time>2013-09-08T06:41:21.290Z</time>
      </trkpt>
      <trkpt lat="45.58354" lon="6.6515">
        <ele>1498.28</ele>
        <time>2013-09-08T06:41:27.230Z</time>
      </trkpt>
      <trkpt lat="45.58365" lon="6.65148">
        <ele>1499.88</ele>
        <time>2013-09-08T06:41:35.230Z</time>
      </trkpt>
      <trkpt lat="45.58376" lon="6.65153">
        <ele>1503.87599616</ele>
        <time>2013-09-08T06:41:42.290Z</time>
      </trkpt>
      <trkpt lat="45.58386" lon="6.65156">
        <ele>1507.02</ele>
        <time>2013-09-08T06:41:49.230Z</time>
      </trkpt>
      <trkpt lat="45.58396" lon="6.65163">
        <ele>1509.73499904</ele>
        <time>2013-09-08T06:41:58.280Z</time>
      </trkpt>
      <trkpt lat="45.58405" lon="6.6517">
        <ele>1512.29199872</ele>
        <time>2013-09-08T06:42:07.290Z</time>
      </trkpt>
      <trkpt lat="45.58417" lon="6.65172">
        <ele>1513.69199872</ele>
        <time>2013-09-08T06:42:14.290Z</time>
      </trkpt>
      <trkpt lat="45.58428" lon="6.65168">
        <ele>1514.34599936</ele>
        <time>2013-09-08T06:42:19.290Z</time>
      </trkpt>
      <trkpt lat="45.58439" lon="6.65166">
        <ele>1514.84599936</ele>
        <time>2013-09-08T06:42:24.290Z</time>
      </trkpt>
      <trkpt lat="45.58449" lon="6.65166">
        <ele>1515.870426148</ele>
        <time>2013-09-08T06:42:30.230Z</time>
      </trkpt>
      <trkpt lat="45.58459" lon="6.65165">
        <ele>1517.692622988</ele>
        <time>2013-09-08T06:42:37.310Z</time>
      </trkpt>
      <trkpt lat="45.5847" lon="6.65165">
        <ele>1521.7371084453</ele>
        <time>2013-09-08T06:42:45.310Z</time>
      </trkpt>
      <trkpt lat="45.5848" lon="6.65161">
        <ele>1524.568</ele>
        <time>2013-09-08T06:42:54.390Z</time>
      </trkpt>
      <trkpt lat="45.5849" lon="6.65156">
        <ele>1525</ele>
        <time>2013-09-08T06:43:03.390Z</time>
      </trkpt>
      <trkpt lat="45.585" lon="6.65152">
        <ele>1528.2849984</ele>
        <time>2013-09-08T06:43:12.400Z</time>
      </trkpt>
      <trkpt lat="45.5851" lon="6.65149">
        <ele>1531.368</ele>
        <time>2013-09-08T06:43:20.390Z</time>
      </trkpt>
      <trkpt lat="45.5852" lon="6.65143">
        <ele>1533.3489528365</ele>
        <time>2013-09-08T06:43:29.330Z</time>
      </trkpt>
      <trkpt lat="45.58529" lon="6.65135">
        <ele>1534.3069223925</ele>
        <time>2013-09-08T06:43:37.390Z</time>
      </trkpt>
      <trkpt lat="45.58521" lon="6.65125">
        <ele>1537.09999872</ele>
        <time>2013-09-08T06:43:51.330Z</time>
      </trkpt>
      <trkpt lat="45.5851" lon="6.65125">
        <ele>1538.28</ele>
        <time>2013-09-08T06:43:56.390Z</time>
      </trkpt>
      <trkpt lat="45.58499" lon="6.65122">
        <ele>1541.28</ele>
        <time>2013-09-08T06:44:02.390Z</time>
      </trkpt>
      <trkpt lat="45.58489" lon="6.65117">
        <ele>1543.312</ele>
        <time>2013-09-08T06:44:07.390Z</time>
      </trkpt>
      <trkpt lat="45.58478" lon="6.65115">
        <ele>1544.312</ele>
        <time>2013-09-08T06:44:12.390Z</time>
      </trkpt>
      <trkpt lat="45.58468" lon="6.65112">
        <ele>1545</ele>
        <time>2013-09-08T06:44:18.330Z</time>
      </trkpt>
      <trkpt lat="45.58457" lon="6.65107">
        <ele>1545</ele>
        <time>2013-09-08T06:44:23.330Z</time>
      </trkpt>
      <trkpt lat="45.58449" lon="6.65099">
        <ele>1545.69999872</ele>
        <time>2013-09-08T06:44:29.330Z</time>
      </trkpt>
      <trkpt lat="45.58438" lon="6.65098">
        <ele>1546.69999872</ele>
        <time>2013-09-08T06:44:34.330Z</time>
      </trkpt>
      <trkpt lat="45.5843" lon="6.65088">
        <ele>1549.05800192</ele>
        <time>2013-09-08T06:44:39.260Z</time>
      </trkpt>
      <trkpt lat="45.58422" lon="6.65078">
        <ele>1552.05799424</ele>
        <time>2013-09-08T06:44:44.260Z</time>
      </trkpt>
      <trkpt lat="45.58416" lon="6.65065">
        <ele>1553.712</ele>
        <time>2013-09-08T06:44:49.390Z</time>
      </trkpt>
      <trkpt lat="45.58411" lon="6.65052">
        <ele>1554.712</ele>
        <time>2013-09-08T06:44:54.390Z</time>
      </trkpt>
      <trkpt lat="45.58405" lon="6.6504">
        <ele>1555.356</ele>
        <time>2013-09-08T06:44:59.390Z</time>
      </trkpt>
      <trkpt lat="45.58395" lon="6.65034">
        <ele>1555.856</ele>
        <time>2013-09-08T06:45:04.390Z</time>
      </trkpt>
      <trkpt lat="45.58385" lon="6.65029">
        <ele>1556.912</ele>
        <time>2013-09-08T06:45:10.390Z</time>
      </trkpt>
      <trkpt lat="45.58378" lon="6.6502">
        <ele>1557.912</ele>
        <time>2013-09-08T06:45:15.390Z</time>
      </trkpt>
      <trkpt lat="45.58369" lon="6.65007">
        <ele>1558.8964130677</ele>
        <time>2013-09-08T06:45:20.330Z</time>
      </trkpt>
      <trkpt lat="45.58361" lon="6.64996">
        <ele>1559.6932258167</ele>
        <time>2013-09-08T06:45:24.330Z</time>
      </trkpt>
      <trkpt lat="45.58354" lon="6.64986">
        <ele>1561.2349365462</ele>
        <time>2013-09-08T06:45:28.330Z</time>
      </trkpt>
      <trkpt lat="45.58343" lon="6.6498">
        <ele>1563.7449767068</ele>
        <time>2013-09-08T06:45:33.330Z</time>
      </trkpt>
      <trkpt lat="45.58333" lon="6.64973">
        <ele>1565.512</ele>
        <time>2013-09-08T06:45:38.390Z</time>
      </trkpt>
      <trkpt lat="45.58321" lon="6.64972">
        <ele>1566.512</ele>
        <time>2013-09-08T06:45:43.390Z</time>
      </trkpt>
      <trkpt lat="45.58311" lon="6.64969">
        <ele>1567.356</ele>
        <time>2013-09-08T06:45:49.390Z</time>
      </trkpt>
      <trkpt lat="45.58303" lon="6.64958">
        <ele>1567.856</ele>
        <time>2013-09-08T06:45:54.390Z</time>
      </trkpt>
      <trkpt lat="45.58296" lon="6.64944">
        <ele>1570.28</ele>
        <time>2013-09-08T06:46:00.390Z</time>
      </trkpt>
      <trkpt lat="45.5829" lon="6.64934">
        <ele>1572.78</ele>
        <time>2013-09-08T06:46:05.390Z</time>
      </trkpt>
      <trkpt lat="45.5828" lon="6.64923">
        <ele>1573</ele>
        <time>2013-09-08T06:46:11.390Z</time>
      </trkpt>
      <trkpt lat="45.5827" lon="6.64916">
        <ele>1573</ele>
        <time>2013-09-08T06:46:15.390Z</time>
      </trkpt>
      <trkpt lat="45.5826" lon="6.64912">
        <ele>1573.912</ele>
        <time>2013-09-08T06:46:20.390Z</time>
      </trkpt>
      <trkpt lat="45.58249" lon="6.64907">
        <ele>1574.912</ele>
        <time>2013-09-08T06:46:25.390Z</time>
      </trkpt>
      <trkpt lat="45.58239" lon="6.64902">
        <ele>1577.224</ele>
        <time>2013-09-08T06:46:31.390Z</time>
      </trkpt>
      <trkpt lat="45.58231" lon="6.64889">
        <ele>1579.74999808</ele>
        <time>2013-09-08T06:46:38.330Z</time>
      </trkpt>
      <trkpt lat="45.5822" lon="6.64888">
        <ele>1581.24999808</ele>
        <time>2013-09-08T06:46:43.330Z</time>
      </trkpt>
      <trkpt lat="45.58213" lon="6.64877">
        <ele>1582.256</ele>
        <time>2013-09-08T06:46:48.390Z</time>
      </trkpt>
      <trkpt lat="45.58202" lon="6.64871">
        <ele>1582.856</ele>
        <time>2013-09-08T06:46:54.390Z</time>
      </trkpt>
      <trkpt lat="45.58192" lon="6.64869">
        <ele>1583.5109340825</ele>
        <time>2013-09-08T06:46:58.400Z</time>
      </trkpt>
      <trkpt lat="45.58181" lon="6.64863">
        <ele>1584.30417578</ele>
        <time>2013-09-08T06:47:02.390Z</time>
      </trkpt>
      <trkpt lat="45.58171" lon="6.64855">
        <ele>1585.4567407924</ele>
        <time>2013-09-08T06:47:08.160Z</time>
      </trkpt>
      <trkpt lat="45.58159" lon="6.6485">
        <ele>1586.4647877893</ele>
        <time>2013-09-08T06:47:13.170Z</time>
      </trkpt>
      <trkpt lat="45.58149" lon="6.64845">
        <ele>1587.68</ele>
        <time>2013-09-08T06:47:19.230Z</time>
      </trkpt>
      <trkpt lat="45.58137" lon="6.64842">
        <ele>1588.88</ele>
        <time>2013-09-08T06:47:25.230Z</time>
      </trkpt>
      <trkpt lat="45.58128" lon="6.64836">
        <ele>1591.2299968</ele>
        <time>2013-09-08T06:47:30.290Z</time>
      </trkpt>
      <trkpt lat="45.58119" lon="6.64828">
        <ele>1593.7299968</ele>
        <time>2013-09-08T06:47:35.290Z</time>
      </trkpt>
      <trkpt lat="45.58112" lon="6.64817">
        <ele>1594.44599936</ele>
        <time>2013-09-08T06:47:40.290Z</time>
      </trkpt>
      <trkpt lat="45.58105" lon="6.64805">
        <ele>1594.94599936</ele>
        <time>2013-09-08T06:47:45.290Z</time>
      </trkpt>
      <trkpt lat="45.58096" lon="6.64795">
        <ele>1595.84599936</ele>
        <time>2013-09-08T06:48:04.290Z</time>
      </trkpt>
      <trkpt lat="45.58089" lon="6.64785">
        <ele>1597.1940302309</ele>
        <time>2013-09-08T06:48:08.230Z</time>
      </trkpt>
      <trkpt lat="45.58081" lon="6.64773">
        <ele>1599.6815932121</ele>
        <time>2013-09-08T06:48:13.230Z</time>
      </trkpt>
      <trkpt lat="45.58077" lon="6.6476">
        <ele>1601.4718881928</ele>
        <time>2013-09-08T06:48:18.230Z</time>
      </trkpt>
      <trkpt lat="45.58073" lon="6.6475">
        <ele>1602.2751010442</ele>
        <time>2013-09-08T06:48:22.230Z</time>
      </trkpt>
      <trkpt lat="45.58069" lon="6.64738">
        <ele>1603.1561573874</ele>
        <time>2013-09-08T06:48:26.230Z</time>
      </trkpt>
      <trkpt lat="45.58069" lon="6.64725">
        <ele>1604.757758476</ele>
        <time>2013-09-08T06:48:30.230Z</time>
      </trkpt>
      <trkpt lat="45.58071" lon="6.64715">
        <ele>1606.7597598367</ele>
        <time>2013-09-08T06:48:35.230Z</time>
      </trkpt>
      <trkpt lat="45.5807" lon="6.64703">
        <ele>1608.93799808</ele>
        <time>2013-09-08T06:48:42.290Z</time>
      </trkpt>
      <trkpt lat="45.58066" lon="6.64693">
        <ele>1612.18399744</ele>
        <time>2013-09-08T06:48:51.290Z</time>
      </trkpt>
      <trkpt lat="45.58063" lon="6.64679">
        <ele>1614</ele>
        <time>2013-09-08T06:49:04.290Z</time>
      </trkpt>
      <trkpt lat="45.5806" lon="6.64664">
        <ele>1617.7</ele>
        <time>2013-09-08T06:49:13.230Z</time>
      </trkpt>
      <trkpt lat="45.58055" lon="6.64651">
        <ele>1619.34599936</ele>
        <time>2013-09-08T06:49:19.290Z</time>
      </trkpt>
      <trkpt lat="45.58051" lon="6.64636">
        <ele>1620.48</ele>
        <time>2013-09-08T06:49:28.230Z</time>
      </trkpt>
      <trkpt lat="45.58049" lon="6.64621">
        <ele>1622.98</ele>
        <time>2013-09-08T06:49:37.230Z</time>
      </trkpt>
      <trkpt lat="45.58046" lon="6.64607">
        <ele>1630.31399808</ele>
        <time>2013-09-08T06:49:50.210Z</time>
      </trkpt>
      <trkpt lat="45.58042" lon="6.64593">
        <ele>1632.24599936</ele>
        <time>2013-09-08T06:49:58.290Z</time>
      </trkpt>
      <trkpt lat="45.58036" lon="6.6458">
        <ele>1633.26599936</ele>
        <time>2013-09-08T06:50:07.160Z</time>
      </trkpt>
      <trkpt lat="45.58026" lon="6.6457">
        <ele>1634.46599936</ele>
        <time>2013-09-08T06:50:13.160Z</time>
      </trkpt>
      <trkpt lat="45.58017" lon="6.64562">
        <ele>1635.7</ele>
        <time>2013-09-08T06:50:17.230Z</time>
      </trkpt>
      <trkpt lat="45.58028" lon="6.64561">
        <ele>1642.14599936</ele>
        <time>2013-09-08T06:50:37.290Z</time>
      </trkpt>
      <trkpt lat="45.58037" lon="6.64566">
        <ele>1642.84599936</ele>
        <time>2013-09-08T06:50:44.290Z</time>
      </trkpt>
      <trkpt lat="45.58048" lon="6.64571">
        <ele>1643.54599936</ele>
        <time>2013-09-08T06:50:51.290Z</time>
      </trkpt>
      <trkpt lat="45.58057" lon="6.64577">
        <ele>1644.5539075487</ele>
        <time>2013-09-08T06:50:57.230Z</time>
      </trkpt>
      <trkpt lat="45.58067" lon="6.6458">
        <ele>1646.5321487941</ele>
        <time>2013-09-08T06:51:02.230Z</time>
      </trkpt>
      <trkpt lat="45.58076" lon="6.64585">
        <ele>1649.2922137507</ele>
        <time>2013-09-08T06:51:12.330Z</time>
      </trkpt>
      <trkpt lat="45.58086" lon="6.64589">
        <ele>1650.24999936</ele>
        <time>2013-09-08T06:51:18.330Z</time>
      </trkpt>
      <trkpt lat="45.58097" lon="6.64592">
        <ele>1651.29999872</ele>
        <time>2013-09-08T06:51:27.330Z</time>
      </trkpt>
      <trkpt lat="45.58107" lon="6.64594">
        <ele>1652.49999872</ele>
        <time>2013-09-08T06:51:33.330Z</time>
      </trkpt>
      <trkpt lat="45.58118" lon="6.64597">
        <ele>1654.536</ele>
        <time>2013-09-08T06:51:38.390Z</time>
      </trkpt>
      <trkpt lat="45.58127" lon="6.646">
        <ele>1657.54199808</ele>
        <time>2013-09-08T06:51:43.400Z</time>
      </trkpt>
      <trkpt lat="45.58137" lon="6.64605">
        <ele>1659.712</ele>
        <time>2013-09-08T06:51:49.390Z</time>
      </trkpt>
      <trkpt lat="45.58147" lon="6.6461">
        <ele>1661.09999872</ele>
        <time>2013-09-08T06:51:56.330Z</time>
      </trkpt>
      <trkpt lat="45.58158" lon="6.64615">
        <ele>1662.49999872</ele>
        <time>2013-09-08T06:52:03.330Z</time>
      </trkpt>
      <trkpt lat="45.58165" lon="6.6462">
        <ele>1663.696</ele>
        <time>2013-09-08T06:52:09.310Z</time>
      </trkpt>
      <trkpt lat="45.58174" lon="6.64626">
        <ele>1665.2499968</ele>
        <time>2013-09-08T06:52:16.330Z</time>
      </trkpt>
      <trkpt lat="45.58184" lon="6.6463">
        <ele>1668.7499968</ele>
        <time>2013-09-08T06:52:23.330Z</time>
      </trkpt>
      <trkpt lat="45.58193" lon="6.64637">
        <ele>1670</ele>
        <time>2013-09-08T06:52:31.390Z</time>
      </trkpt>
      <trkpt lat="45.58203" lon="6.64641">
        <ele>1670.912</ele>
        <time>2013-09-08T06:52:40.390Z</time>
      </trkpt>
      <trkpt lat="45.58214" lon="6.64642">
        <ele>1672.78</ele>
        <time>2013-09-08T06:52:47.390Z</time>
      </trkpt>
      <trkpt lat="45.58224" lon="6.64647">
        <ele>1676.28</ele>
        <time>2013-09-08T06:52:54.390Z</time>
      </trkpt>
      <trkpt lat="45.58234" lon="6.64655">
        <ele>1678.2961116294</ele>
        <time>2013-09-08T06:53:02.330Z</time>
      </trkpt>
      <trkpt lat="45.58241" lon="6.64665">
        <ele>1680.363090844</ele>
        <time>2013-09-08T06:53:10.390Z</time>
      </trkpt>
      <trkpt lat="45.58249" lon="6.64673">
        <ele>1682.09999872</ele>
        <time>2013-09-08T06:53:16.330Z</time>
      </trkpt>
      <trkpt lat="45.58258" lon="6.64682">
        <ele>1683.49999872</ele>
        <time>2013-09-08T06:53:23.330Z</time>
      </trkpt>
      <trkpt lat="45.58267" lon="6.64688">
        <ele>1685.09199872</ele>
        <time>2013-09-08T06:53:31.290Z</time>
      </trkpt>
      <trkpt lat="45.58277" lon="6.64694">
        <ele>1686.89199872</ele>
        <time>2013-09-08T06:53:40.290Z</time>
      </trkpt>
      <trkpt lat="45.58288" lon="6.64696">
        <ele>1689.3771123191</ele>
        <time>2013-09-08T06:53:49.290Z</time>
      </trkpt>
      <trkpt lat="45.58299" lon="6.64695">
        <ele>1692.0381902993</ele>
        <time>2013-09-08T06:53:56.260Z</time>
      </trkpt>
      <trkpt lat="45.58309" lon="6.64693">
        <ele>1692.8422101412</ele>
        <time>2013-09-08T06:54:04.260Z</time>
      </trkpt>
      <trkpt lat="45.58319" lon="6.64694">
        <ele>1694.512</ele>
        <time>2013-09-08T06:54:13.390Z</time>
      </trkpt>
      <trkpt lat="45.5833" lon="6.64691">
        <ele>1697.736</ele>
        <time>2013-09-08T06:54:20.390Z</time>
      </trkpt>
      <trkpt lat="45.58341" lon="6.64693">
        <ele>1701.112</ele>
        <time>2013-09-08T06:54:26.390Z</time>
      </trkpt>
      <trkpt lat="45.58351" lon="6.6469">
        <ele>1702.512</ele>
        <time>2013-09-08T06:54:33.390Z</time>
      </trkpt>
      <trkpt lat="45.58361" lon="6.64687">
        <ele>1704.312</ele>
        <time>2013-09-08T06:54:42.390Z</time>
      </trkpt>
      <trkpt lat="45.58369" lon="6.64682">
        <ele>1705.34999936</ele>
        <time>2013-09-08T06:54:49.330Z</time>
      </trkpt>
      <trkpt lat="45.58375" lon="6.64676">
        <ele>1705.84999936</ele>
        <time>2013-09-08T06:54:54.330Z</time>
      </trkpt>
      <trkpt lat="45.5838" lon="6.64672">
        <ele>1706.312</ele>
        <time>2013-09-08T06:54:57.390Z</time>
      </trkpt>
      <trkpt lat="45.58384" lon="6.64668">
        <ele>1706.912</ele>
        <time>2013-09-08T06:55:00.390Z</time>
      </trkpt>
      <trkpt lat="45.58388" lon="6.64665">
        <ele>1707.512</ele>
        <time>2013-09-08T06:55:03.390Z</time>
      </trkpt>
      <trkpt lat="45.58393" lon="6.64662">
        <ele>1708.312</ele>
        <time>2013-09-08T06:55:07.390Z</time>
      </trkpt>
      <trkpt lat="45.58401" lon="6.64657">
        <ele>1709.512</ele>
        <time>2013-09-08T06:55:13.390Z</time>
      </trkpt>
      <trkpt lat="45.58408" lon="6.64653">
        <ele>1711.424</ele>
        <time>2013-09-08T06:55:19.390Z</time>
      </trkpt>
      <trkpt lat="45.58417" lon="6.6465">
        <ele>1713.824</ele>
        <time>2013-09-08T06:55:25.390Z</time>
      </trkpt>
      <trkpt lat="45.58426" lon="6.64647">
        <ele>1714.54599936</ele>
        <time>2013-09-08T06:55:31.290Z</time>
      </trkpt>
      <trkpt lat="45.58435" lon="6.64643">
        <ele>1715.49199872</ele>
        <time>2013-09-08T06:55:38.290Z</time>
      </trkpt>
      <trkpt lat="45.58426" lon="6.64635">
        <ele>1717.08</ele>
        <time>2013-09-08T06:55:46.230Z</time>
      </trkpt>
      <trkpt lat="45.58417" lon="6.6463">
        <ele>1717.88</ele>
        <time>2013-09-08T06:55:50.230Z</time>
      </trkpt>
      <trkpt lat="45.58406" lon="6.64624">
        <ele>1718.88</ele>
        <time>2013-09-08T06:55:55.230Z</time>
      </trkpt>
      <trkpt lat="45.58397" lon="6.64618">
        <ele>1722.12199552</ele>
        <time>2013-09-08T06:56:00.290Z</time>
      </trkpt>
      <trkpt lat="45.5839" lon="6.64611">
        <ele>1724.92199552</ele>
        <time>2013-09-08T06:56:04.290Z</time>
      </trkpt>
      <trkpt lat="45.58397" lon="6.64603">
        <ele>1728.53799808</ele>
        <time>2013-09-08T06:56:14.290Z</time>
      </trkpt>
      <trkpt lat="45.58404" lon="6.64599">
        <ele>1730.33799808</ele>
        <time>2013-09-08T06:56:20.290Z</time>
      </trkpt>
      <trkpt lat="45.58411" lon="6.64594">
        <ele>1732.58399744</ele>
        <time>2013-09-08T06:56:27.290Z</time>
      </trkpt>
      <trkpt lat="45.58417" lon="6.6459">
        <ele>1734.98399744</ele>
        <time>2013-09-08T06:56:33.290Z</time>
      </trkpt>
      <trkpt lat="45.58423" lon="6.64585">
        <ele>1738.173132473</ele>
        <time>2013-09-08T06:56:41.290Z</time>
      </trkpt>
      <trkpt lat="45.58429" lon="6.64573">
        <ele>1741.28</ele>
        <time>2013-09-08T06:56:57.230Z</time>
      </trkpt>
      <trkpt lat="45.58434" lon="6.64561">
        <ele>1743.48</ele>
        <time>2013-09-08T06:57:08.230Z</time>
      </trkpt>
      <trkpt lat="45.5844" lon="6.64556">
        <ele>1745.2299968</ele>
        <time>2013-09-08T06:57:16.290Z</time>
      </trkpt>
      <trkpt lat="45.58446" lon="6.64553">
        <ele>1749.2299968</ele>
        <time>2013-09-08T06:57:24.290Z</time>
      </trkpt>
      <trkpt lat="45.58452" lon="6.64549">
        <ele>1752.18399744</ele>
        <time>2013-09-08T06:57:31.290Z</time>
      </trkpt>
      <trkpt lat="45.58457" lon="6.64543">
        <ele>1754.39899904</ele>
        <time>2013-09-08T06:57:37.160Z</time>
      </trkpt>
      <trkpt lat="45.5846" lon="6.64538">
        <ele>1755.89899904</ele>
        <time>2013-09-08T06:57:42.160Z</time>
      </trkpt>
      <trkpt lat="45.58464" lon="6.64534">
        <ele>1757.43799808</ele>
        <time>2013-09-08T06:57:47.290Z</time>
      </trkpt>
      <trkpt lat="45.58469" lon="6.64534">
        <ele>1758.93799808</ele>
        <time>2013-09-08T06:57:52.290Z</time>
      </trkpt>
      <trkpt lat="45.58474" lon="6.6453">
        <ele>1760.55199744</ele>
        <time>2013-09-08T06:57:57.210Z</time>
      </trkpt>
      <trkpt lat="45.58477" lon="6.64524">
        <ele>1762.55199744</ele>
        <time>2013-09-08T06:58:02.210Z</time>
      </trkpt>
      <trkpt lat="45.58473" lon="6.64515">
        <ele>1764</ele>
        <time>2013-09-08T06:58:10.290Z</time>
      </trkpt>
      <trkpt lat="45.58466" lon="6.6451">
        <ele>1764.08199936</ele>
        <time>2013-09-08T06:58:16.240Z</time>
      </trkpt>
      <trkpt lat="45.58463" lon="6.64502">
        <ele>1765.28</ele>
        <time>2013-09-08T06:58:22.230Z</time>
      </trkpt>
      <trkpt lat="45.58459" lon="6.64493">
        <ele>1769.27599616</ele>
        <time>2013-09-08T06:58:31.290Z</time>
      </trkpt>
      <trkpt lat="45.58454" lon="6.64486">
        <ele>1772.42</ele>
        <time>2013-09-08T06:58:37.230Z</time>
      </trkpt>
      <trkpt lat="45.58458" lon="6.64479">
        <ele>1775.12</ele>
        <time>2013-09-08T06:58:46.230Z</time>
      </trkpt>
      <trkpt lat="45.58455" lon="6.64469">
        <ele>1778.18399744</ele>
        <time>2013-09-08T06:58:56.290Z</time>
      </trkpt>
      <trkpt lat="45.58452" lon="6.64461">
        <ele>1780.18399744</ele>
        <time>2013-09-08T06:59:01.290Z</time>
      </trkpt>
      <trkpt lat="45.58456" lon="6.64455">
        <ele>1783.33499904</ele>
        <time>2013-09-08T06:59:10.280Z</time>
      </trkpt>
      <trkpt lat="45.58464" lon="6.64455">
        <ele>1784.83499904</ele>
        <time>2013-09-08T06:59:15.280Z</time>
      </trkpt>
      <trkpt lat="45.58471" lon="6.64456">
        <ele>1785</ele>
        <time>2013-09-08T06:59:18.290Z</time>
      </trkpt>
      <trkpt lat="45.5848" lon="6.64458">
        <ele>1785</ele>
        <time>2013-09-08T06:59:21.300Z</time>
      </trkpt>
      <trkpt lat="45.5849" lon="6.64459">
        <ele>1785</ele>
        <time>2013-09-08T06:59:24.290Z</time>
      </trkpt>
      <trkpt lat="45.585" lon="6.6446">
        <ele>1785</ele>
        <time>2013-09-08T06:59:27.290Z</time>
      </trkpt>
      <trkpt lat="45.5851" lon="6.64463">
        <ele>1785</ele>
        <time>2013-09-08T06:59:30.290Z</time>
      </trkpt>
      <trkpt lat="45.5852" lon="6.64466">
        <ele>1785</ele>
        <time>2013-09-08T06:59:33.290Z</time>
      </trkpt>
      <trkpt lat="45.58531" lon="6.64469">
        <ele>1784.9605659432</ele>
        <time>2013-09-08T06:59:36.330Z</time>
      </trkpt>
      <trkpt lat="45.58541" lon="6.64466">
        <ele>1784.6572295339</ele>
        <time>2013-09-08T06:59:39.330Z</time>
      </trkpt>
      <trkpt lat="45.58554" lon="6.64459">
        <ele>1784.2527809882</ele>
        <time>2013-09-08T06:59:43.330Z</time>
      </trkpt>
      <trkpt lat="45.58563" lon="6.64454">
        <ele>1783.65000448</ele>
        <time>2013-09-08T06:59:46.330Z</time>
      </trkpt>
      <trkpt lat="45.58574" lon="6.64447">
        <ele>1780.85000448</ele>
        <time>2013-09-08T06:59:50.330Z</time>
      </trkpt>
      <trkpt lat="45.58587" lon="6.64444">
        <ele>1778.05000448</ele>
        <time>2013-09-08T06:59:54.330Z</time>
      </trkpt>
      <trkpt lat="45.58597" lon="6.64441">
        <ele>1776.688</ele>
        <time>2013-09-08T06:59:57.390Z</time>
      </trkpt>
      <trkpt lat="45.58607" lon="6.64438">
        <ele>1776.088</ele>
        <time>2013-09-08T07:00:00.390Z</time>
      </trkpt>
      <trkpt lat="45.58617" lon="6.64432">
        <ele>1775.288</ele>
        <time>2013-09-08T07:00:04.390Z</time>
      </trkpt>
      <trkpt lat="45.58626" lon="6.64424">
        <ele>1775.256</ele>
        <time>2013-09-08T07:00:08.390Z</time>
      </trkpt>
      <trkpt lat="45.58637" lon="6.6442">
        <ele>1775.856</ele>
        <time>2013-09-08T07:00:14.390Z</time>
      </trkpt>
      <trkpt lat="45.58647" lon="6.64414">
        <ele>1776.456</ele>
        <time>2013-09-08T07:00:20.390Z</time>
      </trkpt>
      <trkpt lat="45.58656" lon="6.64408">
        <ele>1777.2499968</ele>
        <time>2013-09-08T07:00:26.330Z</time>
      </trkpt>
      <trkpt lat="45.58667" lon="6.64401">
        <ele>1780.2499968</ele>
        <time>2013-09-08T07:00:32.330Z</time>
      </trkpt>
      <trkpt lat="45.58675" lon="6.64393">
        <ele>1782</ele>
        <time>2013-09-08T07:00:39.390Z</time>
      </trkpt>
      <trkpt lat="45.58683" lon="6.64383">
        <ele>1782</ele>
        <time>2013-09-08T07:00:45.390Z</time>
      </trkpt>
      <trkpt lat="45.58691" lon="6.64374">
        <ele>1783.11399936</ele>
        <time>2013-09-08T07:00:51.400Z</time>
      </trkpt>
      <trkpt lat="45.587" lon="6.64366">
        <ele>1784.59999744</ele>
        <time>2013-09-08T07:00:57.330Z</time>
      </trkpt>
      <trkpt lat="45.58709" lon="6.64359">
        <ele>1787.39999744</ele>
        <time>2013-09-08T07:01:04.330Z</time>
      </trkpt>
      <trkpt lat="45.58719" lon="6.64354">
        <ele>1788.712</ele>
        <time>2013-09-08T07:01:09.390Z</time>
      </trkpt>
      <trkpt lat="45.58728" lon="6.64349">
        <ele>1789.712</ele>
        <time>2013-09-08T07:01:14.390Z</time>
      </trkpt>
      <trkpt lat="45.58739" lon="6.64346">
        <ele>1790</ele>
        <time>2013-09-08T07:01:19.390Z</time>
      </trkpt>
      <trkpt lat="45.58748" lon="6.6434">
        <ele>1790</ele>
        <time>2013-09-08T07:01:24.390Z</time>
      </trkpt>
      <trkpt lat="45.58761" lon="6.64336">
        <ele>1790.69999872</ele>
        <time>2013-09-08T07:01:29.330Z</time>
      </trkpt>
      <trkpt lat="45.58772" lon="6.64338">
        <ele>1791.29999872</ele>
        <time>2013-09-08T07:01:32.330Z</time>
      </trkpt>
      <trkpt lat="45.58783" lon="6.64338">
        <ele>1791.89999872</ele>
        <time>2013-09-08T07:01:35.330Z</time>
      </trkpt>
      <trkpt lat="45.58793" lon="6.64337">
        <ele>1792.712</ele>
        <time>2013-09-08T07:01:39.390Z</time>
      </trkpt>
      <trkpt lat="45.58805" lon="6.64337">
        <ele>1793.112</ele>
        <time>2013-09-08T07:01:41.390Z</time>
      </trkpt>
      <trkpt lat="45.58817" lon="6.64336">
        <ele>1793.712</ele>
        <time>2013-09-08T07:01:44.390Z</time>
      </trkpt>
      <trkpt lat="45.58828" lon="6.64335">
        <ele>1795.024</ele>
        <time>2013-09-08T07:01:48.390Z</time>
      </trkpt>
      <trkpt lat="45.5884" lon="6.64332">
        <ele>1797.024</ele>
        <time>2013-09-08T07:01:53.390Z</time>
      </trkpt>
      <trkpt lat="45.58851" lon="6.6433">
        <ele>1798.456</ele>
        <time>2013-09-08T07:02:00.390Z</time>
      </trkpt>
      <trkpt lat="45.58861" lon="6.6433">
        <ele>1798.956</ele>
        <time>2013-09-08T07:02:05.390Z</time>
      </trkpt>
      <trkpt lat="45.58872" lon="6.64329">
        <ele>1799.712</ele>
        <time>2013-09-08T07:02:09.390Z</time>
      </trkpt>
      <trkpt lat="45.58881" lon="6.64328">
        <ele>1800.512</ele>
        <time>2013-09-08T07:02:13.390Z</time>
      </trkpt>
      <trkpt lat="45.58892" lon="6.64324">
        <ele>1801.7641793478</ele>
        <time>2013-09-08T07:02:18.390Z</time>
      </trkpt>
      <trkpt lat="45.58903" lon="6.64318">
        <ele>1803.2567171365</ele>
        <time>2013-09-08T07:02:23.390Z</time>
      </trkpt>
      <trkpt lat="45.58915" lon="6.64314">
        <ele>1803.7427136506</ele>
        <time>2013-09-08T07:02:27.160Z</time>
      </trkpt>
      <trkpt lat="45.58926" lon="6.64309">
        <ele>1802.7376888482</ele>
        <time>2013-09-08T07:02:32.160Z</time>
      </trkpt>
      <trkpt lat="45.58936" lon="6.64304">
        <ele>1802.1346739667</ele>
        <time>2013-09-08T07:02:35.160Z</time>
      </trkpt>
      <trkpt lat="45.58946" lon="6.643">
        <ele>1800.03200512</ele>
        <time>2013-09-08T07:02:38.290Z</time>
      </trkpt>
      <trkpt lat="45.58956" lon="6.64295">
        <ele>1797.63200512</ele>
        <time>2013-09-08T07:02:41.290Z</time>
      </trkpt>
      <trkpt lat="45.58968" lon="6.64289">
        <ele>1794.43200512</ele>
        <time>2013-09-08T07:02:45.290Z</time>
      </trkpt>
      <trkpt lat="45.58979" lon="6.64284">
        <ele>1792.61600256</ele>
        <time>2013-09-08T07:02:49.290Z</time>
      </trkpt>
      <trkpt lat="45.58991" lon="6.64282">
        <ele>1790.61600256</ele>
        <time>2013-09-08T07:02:54.290Z</time>
      </trkpt>
      <trkpt lat="45.59002" lon="6.64275">
        <ele>1788.52400384</ele>
        <time>2013-09-08T07:02:58.290Z</time>
      </trkpt>
      <trkpt lat="45.59013" lon="6.64269">
        <ele>1786.12400384</ele>
        <time>2013-09-08T07:03:02.290Z</time>
      </trkpt>
      <trkpt lat="45.59024" lon="6.64271">
        <ele>1783.81600256</ele>
        <time>2013-09-08T07:03:06.290Z</time>
      </trkpt>
      <trkpt lat="45.59035" lon="6.64272">
        <ele>1782.21600256</ele>
        <time>2013-09-08T07:03:10.290Z</time>
      </trkpt>
      <trkpt lat="45.59047" lon="6.64275">
        <ele>1781.01600256</ele>
        <time>2013-09-08T07:03:13.290Z</time>
      </trkpt>
      <trkpt lat="45.59057" lon="6.64278">
        <ele>1779.8</ele>
        <time>2013-09-08T07:03:16.230Z</time>
      </trkpt>
      <trkpt lat="45.59069" lon="6.64278">
        <ele>1777.8</ele>
        <time>2013-09-08T07:03:20.230Z</time>
      </trkpt>
      <trkpt lat="45.5908" lon="6.64275">
        <ele>1776.3</ele>
        <time>2013-09-08T07:03:23.230Z</time>
      </trkpt>
      <trkpt lat="45.59092" lon="6.64269">
        <ele>1774.2700032</ele>
        <time>2013-09-08T07:03:27.290Z</time>
      </trkpt>
      <trkpt lat="45.59102" lon="6.64264">
        <ele>1772.7700032</ele>
        <time>2013-09-08T07:03:30.290Z</time>
      </trkpt>
      <trkpt lat="45.59112" lon="6.64256">
        <ele>1771.2700032</ele>
        <time>2013-09-08T07:03:33.290Z</time>
      </trkpt>
      <trkpt lat="45.59123" lon="6.64252">
        <ele>1769.44</ele>
        <time>2013-09-08T07:03:37.230Z</time>
      </trkpt>
      <trkpt lat="45.59135" lon="6.64248">
        <ele>1767.44</ele>
        <time>2013-09-08T07:03:42.230Z</time>
      </trkpt>
      <trkpt lat="45.59145" lon="6.64243">
        <ele>1765.81600256</ele>
        <time>2013-09-08T07:03:46.290Z</time>
      </trkpt>
      <trkpt lat="45.59154" lon="6.64237">
        <ele>1764.61600256</ele>
        <time>2013-09-08T07:03:49.290Z</time>
      </trkpt>
      <trkpt lat="45.59165" lon="6.64228">
        <ele>1763.01200384</ele>
        <time>2013-09-08T07:03:53.300Z</time>
      </trkpt>
      <trkpt lat="45.59176" lon="6.64219">
        <ele>1761.41600256</ele>
        <time>2013-09-08T07:03:57.290Z</time>
      </trkpt>
      <trkpt lat="45.59186" lon="6.64209">
        <ele>1759.81600256</ele>
        <time>2013-09-08T07:04:01.290Z</time>
      </trkpt>
      <trkpt lat="45.59198" lon="6.64195">
        <ele>1758.21600256</ele>
        <time>2013-09-08T07:04:05.290Z</time>
      </trkpt>
      <trkpt lat="45.59205" lon="6.64182">
        <ele>1756.52400384</ele>
        <time>2013-09-08T07:04:08.290Z</time>
      </trkpt>
      <trkpt lat="45.59215" lon="6.64169">
        <ele>1754.12400384</ele>
        <time>2013-09-08T07:04:12.290Z</time>
      </trkpt>
      <trkpt lat="45.5922" lon="6.64156">
        <ele>1751.84</ele>
        <time>2013-09-08T07:04:16.230Z</time>
      </trkpt>
      <trkpt lat="45.59225" lon="6.6414">
        <ele>1749.84</ele>
        <time>2013-09-08T07:04:21.230Z</time>
      </trkpt>
      <trkpt lat="45.59234" lon="6.64131">
        <ele>1748.24</ele>
        <time>2013-09-08T07:04:25.230Z</time>
      </trkpt>
      <trkpt lat="45.59244" lon="6.64128">
        <ele>1746.2700032</ele>
        <time>2013-09-08T07:04:29.290Z</time>
      </trkpt>
      <trkpt lat="45.59254" lon="6.64122">
        <ele>1743.2700032</ele>
        <time>2013-09-08T07:04:35.290Z</time>
      </trkpt>
      <trkpt lat="45.59264" lon="6.64128">
        <ele>1741.61600256</ele>
        <time>2013-09-08T07:04:39.290Z</time>
      </trkpt>
      <trkpt lat="45.59275" lon="6.64133">
        <ele>1739.21600256</ele>
        <time>2013-09-08T07:04:45.290Z</time>
      </trkpt>
      <trkpt lat="45.59285" lon="6.6413">
        <ele>1737.2700032</ele>
        <time>2013-09-08T07:04:49.290Z</time>
      </trkpt>
      <trkpt lat="45.59297" lon="6.64125">
        <ele>1734.7700032</ele>
        <time>2013-09-08T07:04:54.290Z</time>
      </trkpt>
      <trkpt lat="45.59307" lon="6.64118">
        <ele>1732.27800448</ele>
        <time>2013-09-08T07:04:58.290Z</time>
      </trkpt>
      <trkpt lat="45.59317" lon="6.64111">
        <ele>1729.47800448</ele>
        <time>2013-09-08T07:05:02.290Z</time>
      </trkpt>
      <trkpt lat="45.59329" lon="6.64105">
        <ele>1726.8169179118</ele>
        <time>2013-09-08T07:05:06.290Z</time>
      </trkpt>
      <trkpt lat="45.59342" lon="6.64103">
        <ele>1725.2248776039</ele>
        <time>2013-09-08T07:05:10.290Z</time>
      </trkpt>
      <trkpt lat="45.59354" lon="6.64103">
        <ele>1724.030847373</ele>
        <time>2013-09-08T07:05:13.290Z</time>
      </trkpt>
      <trkpt lat="45.59365" lon="6.64097">
        <ele>1722.3216066503</ele>
        <time>2013-09-08T07:05:17.230Z</time>
      </trkpt>
      <trkpt lat="45.59375" lon="6.64091">
        <ele>1720.3115570455</ele>
        <time>2013-09-08T07:05:21.230Z</time>
      </trkpt>
      <trkpt lat="45.59386" lon="6.64087">
        <ele>1717.02</ele>
        <time>2013-09-08T07:05:27.230Z</time>
      </trkpt>
      <trkpt lat="45.59398" lon="6.64088">
        <ele>1711.42</ele>
        <time>2013-09-08T07:05:35.230Z</time>
      </trkpt>
      <trkpt lat="45.59408" lon="6.64084">
        <ele>1708.7700032</ele>
        <time>2013-09-08T07:05:40.290Z</time>
      </trkpt>
      <trkpt lat="45.5942" lon="6.64081">
        <ele>1706.7700032</ele>
        <time>2013-09-08T07:05:44.290Z</time>
      </trkpt>
      <trkpt lat="45.59431" lon="6.6408">
        <ele>1705.56200192</ele>
        <time>2013-09-08T07:05:47.290Z</time>
      </trkpt>
      <trkpt lat="45.59442" lon="6.6408">
        <ele>1704.66200192</ele>
        <time>2013-09-08T07:05:50.290Z</time>
      </trkpt>
      <trkpt lat="45.59453" lon="6.64075">
        <ele>1703.46200192</ele>
        <time>2013-09-08T07:05:54.290Z</time>
      </trkpt>
      <trkpt lat="45.59461" lon="6.64063">
        <ele>1700.23200512</ele>
        <time>2013-09-08T07:05:59.290Z</time>
      </trkpt>
      <trkpt lat="45.59471" lon="6.64057">
        <ele>1697.03200512</ele>
        <time>2013-09-08T07:06:03.290Z</time>
      </trkpt>
      <trkpt lat="45.59481" lon="6.64052">
        <ele>1694.58</ele>
        <time>2013-09-08T07:06:07.230Z</time>
      </trkpt>
      <trkpt lat="45.59493" lon="6.6405">
        <ele>1693.08</ele>
        <time>2013-09-08T07:06:12.230Z</time>
      </trkpt>
      <trkpt lat="45.59503" lon="6.64055">
        <ele>1691.7202796309</ele>
        <time>2013-09-08T07:06:17.230Z</time>
      </trkpt>
      <trkpt lat="45.59518" lon="6.64063">
        <ele>1690.9210785762</ele>
        <time>2013-09-08T07:06:21.230Z</time>
      </trkpt>
      <trkpt lat="45.59533" lon="6.64071">
        <ele>1690.7212783125</ele>
        <time>2013-09-08T07:06:22.230Z</time>
      </trkpt>
      <trkpt lat="45.59545" lon="6.64062">
        <ele>1690.1218775215</ele>
        <time>2013-09-08T07:06:25.230Z</time>
      </trkpt>
      <trkpt lat="45.59556" lon="6.64055">
        <ele>1688.6186203424</ele>
        <time>2013-09-08T07:06:29.290Z</time>
      </trkpt>
      <trkpt lat="45.59564" lon="6.64047">
        <ele>1687.0170192538</ele>
        <time>2013-09-08T07:06:33.290Z</time>
      </trkpt>
      <trkpt lat="45.59574" lon="6.6404">
        <ele>1684.5400064</ele>
        <time>2013-09-08T07:06:37.290Z</time>
      </trkpt>
      <trkpt lat="45.59585" lon="6.64034">
        <ele>1680.5400064</ele>
        <time>2013-09-08T07:06:41.290Z</time>
      </trkpt>
      <trkpt lat="45.59596" lon="6.6403">
        <ele>1676.5400064</ele>
        <time>2013-09-08T07:06:45.290Z</time>
      </trkpt>
      <trkpt lat="45.59608" lon="6.64028">
        <ele>1673.7700032</ele>
        <time>2013-09-08T07:06:50.290Z</time>
      </trkpt>
      <trkpt lat="45.59619" lon="6.64027">
        <ele>1671.7700032</ele>
        <time>2013-09-08T07:06:54.290Z</time>
      </trkpt>
      <trkpt lat="45.59629" lon="6.64025">
        <ele>1670.2700032</ele>
        <time>2013-09-08T07:06:57.290Z</time>
      </trkpt>
      <trkpt lat="45.59641" lon="6.64022">
        <ele>1668.72</ele>
        <time>2013-09-08T07:07:00.390Z</time>
      </trkpt>
      <trkpt lat="45.59651" lon="6.64016">
        <ele>1666.72</ele>
        <time>2013-09-08T07:07:04.390Z</time>
      </trkpt>
      <trkpt lat="45.59661" lon="6.6401">
        <ele>1665.504</ele>
        <time>2013-09-08T07:07:08.310Z</time>
      </trkpt>
      <trkpt lat="45.59674" lon="6.64004">
        <ele>1664.70200064</ele>
        <time>2013-09-08T07:07:12.320Z</time>
      </trkpt>
      <trkpt lat="45.59683" lon="6.63998">
        <ele>1664.304</ele>
        <time>2013-09-08T07:07:14.310Z</time>
      </trkpt>
      <trkpt lat="45.59694" lon="6.63994">
        <ele>1664</ele>
        <time>2013-09-08T07:07:16.330Z</time>
      </trkpt>
      <trkpt lat="45.59706" lon="6.63993">
        <ele>1664</ele>
        <time>2013-09-08T07:07:18.330Z</time>
      </trkpt>
      <trkpt lat="45.59722" lon="6.63994">
        <ele>1664</ele>
        <time>2013-09-08T07:07:20.330Z</time>
      </trkpt>
      <trkpt lat="45.59737" lon="6.63993">
        <ele>1664</ele>
        <time>2013-09-08T07:07:22.330Z</time>
      </trkpt>
      <trkpt lat="45.59759" lon="6.63997">
        <ele>1664</ele>
        <time>2013-09-08T07:07:24.330Z</time>
      </trkpt>
      <trkpt lat="45.59769" lon="6.63997">
        <ele>1664</ele>
        <time>2013-09-08T07:07:25.330Z</time>
      </trkpt>
      <trkpt lat="45.59788" lon="6.64">
        <ele>1663.844</ele>
        <time>2013-09-08T07:07:27.390Z</time>
      </trkpt>
      <trkpt lat="45.59803" lon="6.64">
        <ele>1663.644</ele>
        <time>2013-09-08T07:07:29.390Z</time>
      </trkpt>
      <trkpt lat="45.59817" lon="6.63999">
        <ele>1663.444</ele>
        <time>2013-09-08T07:07:31.390Z</time>
      </trkpt>
      <trkpt lat="45.59826" lon="6.63993">
        <ele>1663.244</ele>
        <time>2013-09-08T07:07:33.390Z</time>
      </trkpt>
      <trkpt lat="45.59835" lon="6.63986">
        <ele>1662.944</ele>
        <time>2013-09-08T07:07:36.390Z</time>
      </trkpt>
      <trkpt lat="45.59846" lon="6.63979">
        <ele>1662.544</ele>
        <time>2013-09-08T07:07:40.390Z</time>
      </trkpt>
      <trkpt lat="45.59858" lon="6.63979">
        <ele>1662.344</ele>
        <time>2013-09-08T07:07:42.390Z</time>
      </trkpt>
      <trkpt lat="45.59874" lon="6.63977">
        <ele>1662.144</ele>
        <time>2013-09-08T07:07:44.390Z</time>
      </trkpt>
      <trkpt lat="45.59887" lon="6.63976">
        <ele>1662</ele>
        <time>2013-09-08T07:07:46.390Z</time>
      </trkpt>
      <trkpt lat="45.599" lon="6.63971">
        <ele>1662</ele>
        <time>2013-09-08T07:07:49.390Z</time>
      </trkpt>
      <trkpt lat="45.59908" lon="6.63963">
        <ele>1662</ele>
        <time>2013-09-08T07:07:52.390Z</time>
      </trkpt>
      <trkpt lat="45.59917" lon="6.63952">
        <ele>1661.9442785892</ele>
        <time>2013-09-08T07:07:56.390Z</time>
      </trkpt>
      <trkpt lat="45.59929" lon="6.63943">
        <ele>1661.5462685122</ele>
        <time>2013-09-08T07:08:00.390Z</time>
      </trkpt>
      <trkpt lat="45.59938" lon="6.63936">
        <ele>1661.2477609545</ele>
        <time>2013-09-08T07:08:03.390Z</time>
      </trkpt>
      <trkpt lat="45.59948" lon="6.6393">
        <ele>1661.0542719826</ele>
        <time>2013-09-08T07:08:06.150Z</time>
      </trkpt>
      <trkpt lat="45.59959" lon="6.63927">
        <ele>1661.657286864</ele>
        <time>2013-09-08T07:08:09.150Z</time>
      </trkpt>
      <trkpt lat="45.59966" lon="6.63914">
        <ele>1662.4613067059</ele>
        <time>2013-09-08T07:08:13.150Z</time>
      </trkpt>
      <trkpt lat="45.59969" lon="6.63898">
        <ele>1663.14</ele>
        <time>2013-09-08T07:08:17.230Z</time>
      </trkpt>
      <trkpt lat="45.59972" lon="6.63884">
        <ele>1663.44</ele>
        <time>2013-09-08T07:08:20.230Z</time>
      </trkpt>
      <trkpt lat="45.59975" lon="6.63868">
        <ele>1663.84</ele>
        <time>2013-09-08T07:08:24.230Z</time>
      </trkpt>
      <trkpt lat="45.59981" lon="6.63854">
        <ele>1664</ele>
        <time>2013-09-08T07:08:28.290Z</time>
      </trkpt>
      <trkpt lat="45.59989" lon="6.63844">
        <ele>1664</ele>
        <time>2013-09-08T07:08:32.290Z</time>
      </trkpt>
      <trkpt lat="45.59993" lon="6.63829">
        <ele>1664.04599936</ele>
        <time>2013-09-08T07:08:36.290Z</time>
      </trkpt>
      <trkpt lat="45.60003" lon="6.63819">
        <ele>1664.44599936</ele>
        <time>2013-09-08T07:08:40.290Z</time>
      </trkpt>
      <trkpt lat="45.6001" lon="6.63809">
        <ele>1664.84599936</ele>
        <time>2013-09-08T07:08:44.290Z</time>
      </trkpt>
      <trkpt lat="45.60022" lon="6.63803">
        <ele>1665.4915073699</ele>
        <time>2013-09-08T07:08:48.290Z</time>
      </trkpt>
      <trkpt lat="45.60029" lon="6.63791">
        <ele>1666.2907084246</ele>
        <time>2013-09-08T07:08:52.290Z</time>
      </trkpt>
      <trkpt lat="45.60035" lon="6.63775">
        <ele>1667.2902895567</ele>
        <time>2013-09-08T07:08:57.290Z</time>
      </trkpt>
      <trkpt lat="45.60034" lon="6.63756">
        <ele>1668.0910901009</ele>
        <time>2013-09-08T07:09:01.290Z</time>
      </trkpt>
      <trkpt lat="45.6003" lon="6.63741">
        <ele>1668.6916905092</ele>
        <time>2013-09-08T07:09:04.290Z</time>
      </trkpt>
      <trkpt lat="45.60028" lon="6.63724">
        <ele>1669.48</ele>
        <time>2013-09-08T07:09:08.230Z</time>
      </trkpt>
      <trkpt lat="45.60025" lon="6.6371">
        <ele>1670.08</ele>
        <time>2013-09-08T07:09:11.230Z</time>
      </trkpt>
      <trkpt lat="45.60022" lon="6.63692">
        <ele>1670.88</ele>
        <time>2013-09-08T07:09:15.230Z</time>
      </trkpt>
      <trkpt lat="45.60034" lon="6.63686">
        <ele>1671.44599936</ele>
        <time>2013-09-08T07:09:20.290Z</time>
      </trkpt>
      <trkpt lat="45.60044" lon="6.63686">
        <ele>1671.64599936</ele>
        <time>2013-09-08T07:09:22.290Z</time>
      </trkpt>
      <trkpt lat="45.60054" lon="6.63684">
        <ele>1671.94599936</ele>
        <time>2013-09-08T07:09:25.290Z</time>
      </trkpt>
      <trkpt lat="45.60069" lon="6.63684">
        <ele>1672</ele>
        <time>2013-09-08T07:09:27.290Z</time>
      </trkpt>
      <trkpt lat="45.60082" lon="6.63683">
        <ele>1672</ele>
        <time>2013-09-08T07:09:29.290Z</time>
      </trkpt>
      <trkpt lat="45.60092" lon="6.63677">
        <ele>1672</ele>
        <time>2013-09-08T07:09:32.290Z</time>
      </trkpt>
      <trkpt lat="45.601" lon="6.63663">
        <ele>1672.04599936</ele>
        <time>2013-09-08T07:09:36.290Z</time>
      </trkpt>
      <trkpt lat="45.60107" lon="6.63651">
        <ele>1672.34599936</ele>
        <time>2013-09-08T07:09:39.290Z</time>
      </trkpt>
      <trkpt lat="45.60116" lon="6.63642">
        <ele>1672.64599936</ele>
        <time>2013-09-08T07:09:42.290Z</time>
      </trkpt>
      <trkpt lat="45.60124" lon="6.63626">
        <ele>1673.09199872</ele>
        <time>2013-09-08T07:09:46.290Z</time>
      </trkpt>
      <trkpt lat="45.6013" lon="6.63612">
        <ele>1673.89199872</ele>
        <time>2013-09-08T07:09:50.290Z</time>
      </trkpt>
      <trkpt lat="45.60136" lon="6.63596">
        <ele>1674.69199872</ele>
        <time>2013-09-08T07:09:54.290Z</time>
      </trkpt>
      <trkpt lat="45.60141" lon="6.63582">
        <ele>1675.46599936</ele>
        <time>2013-09-08T07:09:58.160Z</time>
      </trkpt>
      <trkpt lat="45.6014" lon="6.63567">
        <ele>1676.26599936</ele>
        <time>2013-09-08T07:10:02.160Z</time>
      </trkpt>
      <trkpt lat="45.60149" lon="6.63562">
        <ele>1676.86599936</ele>
        <time>2013-09-08T07:10:05.160Z</time>
      </trkpt>
      <trkpt lat="45.60159" lon="6.63553">
        <ele>1677.44599936</ele>
        <time>2013-09-08T07:10:10.290Z</time>
      </trkpt>
      <trkpt lat="45.60169" lon="6.63546">
        <ele>1677.94599936</ele>
        <time>2013-09-08T07:10:15.290Z</time>
      </trkpt>
      <trkpt lat="45.6018" lon="6.6354">
        <ele>1678.89199872</ele>
        <time>2013-09-08T07:10:20.290Z</time>
      </trkpt>
      <trkpt lat="45.6019" lon="6.63532">
        <ele>1679.90799872</ele>
        <time>2013-09-08T07:10:25.370Z</time>
      </trkpt>
      <trkpt lat="45.60199" lon="6.63524">
        <ele>1681.03799808</ele>
        <time>2013-09-08T07:10:29.290Z</time>
      </trkpt>
      <trkpt lat="45.60207" lon="6.63514">
        <ele>1682.23799808</ele>
        <time>2013-09-08T07:10:33.290Z</time>
      </trkpt>
      <trkpt lat="45.60213" lon="6.63503">
        <ele>1683.14599936</ele>
        <time>2013-09-08T07:10:37.290Z</time>
      </trkpt>
      <trkpt lat="45.60219" lon="6.63494">
        <ele>1683.54599936</ele>
        <time>2013-09-08T07:10:41.290Z</time>
      </trkpt>
      <trkpt lat="45.60226" lon="6.63481">
        <ele>1683.94599936</ele>
        <time>2013-09-08T07:10:45.290Z</time>
      </trkpt>
      <trkpt lat="45.60231" lon="6.63469">
        <ele>1684.6844702048</ele>
        <time>2013-09-08T07:10:49.290Z</time>
      </trkpt>
      <trkpt lat="45.60236" lon="6.63455">
        <ele>1685.475766703</ele>
        <time>2013-09-08T07:10:53.290Z</time>
      </trkpt>
      <trkpt lat="45.60242" lon="6.63442">
        <ele>1686.1405461932</ele>
        <time>2013-09-08T07:10:57.330Z</time>
      </trkpt>
      <trkpt lat="45.60248" lon="6.63428">
        <ele>1686.5449947389</ele>
        <time>2013-09-08T07:11:01.330Z</time>
      </trkpt>
      <trkpt lat="45.60254" lon="6.63414">
        <ele>1686.9494432847</ele>
        <time>2013-09-08T07:11:05.330Z</time>
      </trkpt>
      <trkpt lat="45.60261" lon="6.63399">
        <ele>1687.356</ele>
        <time>2013-09-08T07:11:09.390Z</time>
      </trkpt>
      <trkpt lat="45.60264" lon="6.63383">
        <ele>1687.756</ele>
        <time>2013-09-08T07:11:13.390Z</time>
      </trkpt>
      <trkpt lat="45.60269" lon="6.63368">
        <ele>1688</ele>
        <time>2013-09-08T07:11:17.390Z</time>
      </trkpt>
      <trkpt lat="45.60275" lon="6.63352">
        <ele>1688</ele>
        <time>2013-09-08T07:11:21.390Z</time>
      </trkpt>
      <trkpt lat="45.60284" lon="6.63338">
        <ele>1688</ele>
        <time>2013-09-08T07:11:25.390Z</time>
      </trkpt>
      <trkpt lat="45.60292" lon="6.63325">
        <ele>1688.356</ele>
        <time>2013-09-08T07:11:29.390Z</time>
      </trkpt>
      <trkpt lat="45.60302" lon="6.63314">
        <ele>1688.756</ele>
        <time>2013-09-08T07:11:33.390Z</time>
      </trkpt>
      <trkpt lat="45.60312" lon="6.63304">
        <ele>1689</ele>
        <time>2013-09-08T07:11:37.390Z</time>
      </trkpt>
      <trkpt lat="45.60316" lon="6.63289">
        <ele>1689</ele>
        <time>2013-09-08T07:11:41.390Z</time>
      </trkpt>
      <trkpt lat="45.6032" lon="6.63273">
        <ele>1689</ele>
        <time>2013-09-08T07:11:45.390Z</time>
      </trkpt>
      <trkpt lat="45.60325" lon="6.63259">
        <ele>1689.912</ele>
        <time>2013-09-08T07:11:50.390Z</time>
      </trkpt>
      <trkpt lat="45.60333" lon="6.63245">
        <ele>1690.912</ele>
        <time>2013-09-08T07:11:55.390Z</time>
      </trkpt>
      <trkpt lat="45.60339" lon="6.63233">
        <ele>1691.356</ele>
        <time>2013-09-08T07:11:59.390Z</time>
      </trkpt>
      <trkpt lat="45.60343" lon="6.63218">
        <ele>1691.856</ele>
        <time>2013-09-08T07:12:04.390Z</time>
      </trkpt>
      <trkpt lat="45.6035" lon="6.63207">
        <ele>1692.512</ele>
        <time>2013-09-08T07:12:08.390Z</time>
      </trkpt>
      <trkpt lat="45.60359" lon="6.63197">
        <ele>1693.512</ele>
        <time>2013-09-08T07:12:13.390Z</time>
      </trkpt>
      <trkpt lat="45.60368" lon="6.63188">
        <ele>1694.768</ele>
        <time>2013-09-08T07:12:18.390Z</time>
      </trkpt>
      <trkpt lat="45.60376" lon="6.63179">
        <ele>1696.268</ele>
        <time>2013-09-08T07:12:23.390Z</time>
      </trkpt>
      <trkpt lat="45.60384" lon="6.63169">
        <ele>1698.024</ele>
        <time>2013-09-08T07:12:28.390Z</time>
      </trkpt>
      <trkpt lat="45.60391" lon="6.63158">
        <ele>1700.424</ele>
        <time>2013-09-08T07:12:34.390Z</time>
      </trkpt>
      <trkpt lat="45.60398" lon="6.63148">
        <ele>1701.912</ele>
        <time>2013-09-08T07:12:40.390Z</time>
      </trkpt>
      <trkpt lat="45.60407" lon="6.63141">
        <ele>1703.14999808</ele>
        <time>2013-09-08T07:12:46.330Z</time>
      </trkpt>
      <trkpt lat="45.60414" lon="6.6313">
        <ele>1704.94999808</ele>
        <time>2013-09-08T07:12:52.330Z</time>
      </trkpt>
      <trkpt lat="45.60419" lon="6.63116">
        <ele>1706.97199616</ele>
        <time>2013-09-08T07:12:58.260Z</time>
      </trkpt>
      <trkpt lat="45.60426" lon="6.63103">
        <ele>1708.97200128</ele>
        <time>2013-09-08T07:13:03.260Z</time>
      </trkpt>
      <trkpt lat="45.60432" lon="6.63094">
        <ele>1710.312</ele>
        <time>2013-09-08T07:13:07.390Z</time>
      </trkpt>
      <trkpt lat="45.60438" lon="6.63083">
        <ele>1711.312</ele>
        <time>2013-09-08T07:13:12.390Z</time>
      </trkpt>
      <trkpt lat="45.60445" lon="6.63071">
        <ele>1712.312</ele>
        <time>2013-09-08T07:13:17.390Z</time>
      </trkpt>
      <trkpt lat="45.60451" lon="6.63057">
        <ele>1713.512</ele>
        <time>2013-09-08T07:13:23.390Z</time>
      </trkpt>
      <trkpt lat="45.60456" lon="6.63045">
        <ele>1714.512</ele>
        <time>2013-09-08T07:13:28.390Z</time>
      </trkpt>
      <trkpt lat="45.60464" lon="6.63035">
        <ele>1715.49199872</ele>
        <time>2013-09-08T07:13:33.290Z</time>
      </trkpt>
      <trkpt lat="45.60471" lon="6.63024">
        <ele>1716.489551121</ele>
        <time>2013-09-08T07:13:38.290Z</time>
      </trkpt>
      <trkpt lat="45.60478" lon="6.63015">
        <ele>1717.4845763135</ele>
        <time>2013-09-08T07:13:43.290Z</time>
      </trkpt>
      <trkpt lat="45.60485" lon="6.63006">
        <ele>1718.4723623003</ele>
        <time>2013-09-08T07:13:48.230Z</time>
      </trkpt>
      <trkpt lat="45.60493" lon="6.62996">
        <ele>1719.4773871028</ele>
        <time>2013-09-08T07:13:53.230Z</time>
      </trkpt>
      <trkpt lat="45.60501" lon="6.62987">
        <ele>1720.73799808</ele>
        <time>2013-09-08T07:13:58.290Z</time>
      </trkpt>
      <trkpt lat="45.6051" lon="6.62977">
        <ele>1722.53799808</ele>
        <time>2013-09-08T07:14:04.290Z</time>
      </trkpt>
      <trkpt lat="45.60519" lon="6.62966">
        <ele>1723.89199872</ele>
        <time>2013-09-08T07:14:10.290Z</time>
      </trkpt>
      <trkpt lat="45.60528" lon="6.62956">
        <ele>1725.08</ele>
        <time>2013-09-08T07:14:16.230Z</time>
      </trkpt>
      <trkpt lat="45.60536" lon="6.62946">
        <ele>1726.28</ele>
        <time>2013-09-08T07:14:22.230Z</time>
      </trkpt>
      <trkpt lat="45.60543" lon="6.62935">
        <ele>1727.43799808</ele>
        <time>2013-09-08T07:14:27.290Z</time>
      </trkpt>
      <trkpt lat="45.6055" lon="6.62925">
        <ele>1728.93799808</ele>
        <time>2013-09-08T07:14:32.290Z</time>
      </trkpt>
      <trkpt lat="45.60557" lon="6.62914">
        <ele>1730.58399744</ele>
        <time>2013-09-08T07:14:37.290Z</time>
      </trkpt>
      <trkpt lat="45.60564" lon="6.62903">
        <ele>1732.58399744</ele>
        <time>2013-09-08T07:14:42.290Z</time>
      </trkpt>
      <trkpt lat="45.6057" lon="6.62894">
        <ele>1734.28</ele>
        <time>2013-09-08T07:14:47.230Z</time>
      </trkpt>
      <trkpt lat="45.60578" lon="6.62884">
        <ele>1735.28</ele>
        <time>2013-09-08T07:14:52.230Z</time>
      </trkpt>
      <trkpt lat="45.60586" lon="6.62878">
        <ele>1736.42</ele>
        <time>2013-09-08T07:14:57.230Z</time>
      </trkpt>
      <trkpt lat="45.60595" lon="6.62871">
        <ele>1737.92</ele>
        <time>2013-09-08T07:15:02.230Z</time>
      </trkpt>
      <trkpt lat="45.60605" lon="6.62868">
        <ele>1739.29199872</ele>
        <time>2013-09-08T07:15:07.290Z</time>
      </trkpt>
      <trkpt lat="45.60615" lon="6.62864">
        <ele>1740.29199872</ele>
        <time>2013-09-08T07:15:12.290Z</time>
      </trkpt>
      <trkpt lat="45.60625" lon="6.62859">
        <ele>1741</ele>
        <time>2013-09-08T07:15:17.290Z</time>
      </trkpt>
      <trkpt lat="45.60633" lon="6.6285">
        <ele>1741</ele>
        <time>2013-09-08T07:15:22.290Z</time>
      </trkpt>
      <trkpt lat="45.60637" lon="6.62841">
        <ele>1741.34599936</ele>
        <time>2013-09-08T07:15:29.290Z</time>
      </trkpt>
      <trkpt lat="45.60637" lon="6.62824">
        <ele>1742.94599936</ele>
        <time>2013-09-08T07:15:45.290Z</time>
      </trkpt>
      <trkpt lat="45.60639" lon="6.62811">
        <ele>1744.49199872</ele>
        <time>2013-09-08T07:15:53.290Z</time>
      </trkpt>
      <trkpt lat="45.60642" lon="6.62799">
        <ele>1747.58399744</ele>
        <time>2013-09-08T07:16:02.290Z</time>
      </trkpt>
      <trkpt lat="45.60645" lon="6.62786">
        <ele>1750.33799808</ele>
        <time>2013-09-08T07:16:10.290Z</time>
      </trkpt>
      <trkpt lat="45.60651" lon="6.62772">
        <ele>1752.49199872</ele>
        <time>2013-09-08T07:16:18.290Z</time>
      </trkpt>
      <trkpt lat="45.60657" lon="6.6276">
        <ele>1753.69199872</ele>
        <time>2013-09-08T07:16:24.290Z</time>
      </trkpt>
      <trkpt lat="45.60664" lon="6.62747">
        <ele>1755.0865662365</ele>
        <time>2013-09-08T07:16:31.290Z</time>
      </trkpt>
      <trkpt lat="45.6067" lon="6.62737">
        <ele>1756.4070360098</ele>
        <time>2013-09-08T07:16:37.230Z</time>
      </trkpt>
      <trkpt lat="45.60678" lon="6.62725">
        <ele>1758.2160806541</ele>
        <time>2013-09-08T07:16:43.230Z</time>
      </trkpt>
      <trkpt lat="45.60685" lon="6.62712">
        <ele>1760.03799808</ele>
        <time>2013-09-08T07:16:49.290Z</time>
      </trkpt>
      <trkpt lat="45.60691" lon="6.62702">
        <ele>1761.53799808</ele>
        <time>2013-09-08T07:16:54.290Z</time>
      </trkpt>
      <trkpt lat="45.60699" lon="6.6269">
        <ele>1763.78399744</ele>
        <time>2013-09-08T07:17:00.290Z</time>
      </trkpt>
      <trkpt lat="45.60707" lon="6.62682">
        <ele>1765.78399744</ele>
        <time>2013-09-08T07:17:05.290Z</time>
      </trkpt>
      <trkpt lat="45.60715" lon="6.62673">
        <ele>1767.33799808</ele>
        <time>2013-09-08T07:17:10.290Z</time>
      </trkpt>
      <trkpt lat="45.60723" lon="6.62665">
        <ele>1768.83799808</ele>
        <time>2013-09-08T07:17:15.290Z</time>
      </trkpt>
      <trkpt lat="45.60732" lon="6.62656">
        <ele>1769.88999936</ele>
        <time>2013-09-08T07:17:20.280Z</time>
      </trkpt>
      <trkpt lat="45.6074" lon="6.62649">
        <ele>1770.68999936</ele>
        <time>2013-09-08T07:17:24.280Z</time>
      </trkpt>
      <trkpt lat="45.60748" lon="6.62641">
        <ele>1771.49400064</ele>
        <time>2013-09-08T07:17:28.300Z</time>
      </trkpt>
      <trkpt lat="45.60757" lon="6.62633">
        <ele>1772.49199872</ele>
        <time>2013-09-08T07:17:33.290Z</time>
      </trkpt>
      <trkpt lat="45.60765" lon="6.62623">
        <ele>1773.48</ele>
        <time>2013-09-08T07:17:38.230Z</time>
      </trkpt>
      <trkpt lat="45.60774" lon="6.62614">
        <ele>1774.48</ele>
        <time>2013-09-08T07:17:43.230Z</time>
      </trkpt>
      <trkpt lat="45.60781" lon="6.62603">
        <ele>1775.72</ele>
        <time>2013-09-08T07:17:48.230Z</time>
      </trkpt>
      <trkpt lat="45.60785" lon="6.6259">
        <ele>1777.22</ele>
        <time>2013-09-08T07:17:53.230Z</time>
      </trkpt>
      <trkpt lat="45.60788" lon="6.62575">
        <ele>1778.68999936</ele>
        <time>2013-09-08T07:17:59.280Z</time>
      </trkpt>
      <trkpt lat="45.60795" lon="6.62566">
        <ele>1780.13799808</ele>
        <time>2013-09-08T07:18:06.290Z</time>
      </trkpt>
      <trkpt lat="45.60804" lon="6.62558">
        <ele>1781.63799808</ele>
        <time>2013-09-08T07:18:11.290Z</time>
      </trkpt>
      <trkpt lat="45.60812" lon="6.62546">
        <ele>1783.43799808</ele>
        <time>2013-09-08T07:18:17.290Z</time>
      </trkpt>
      <trkpt lat="45.6082" lon="6.62536">
        <ele>1784.93799808</ele>
        <time>2013-09-08T07:18:22.290Z</time>
      </trkpt>
      <trkpt lat="45.60827" lon="6.62523">
        <ele>1786.73799808</ele>
        <time>2013-09-08T07:18:28.290Z</time>
      </trkpt>
      <trkpt lat="45.60835" lon="6.62511">
        <ele>1788.53799808</ele>
        <time>2013-09-08T07:18:34.290Z</time>
      </trkpt>
      <trkpt lat="45.60839" lon="6.62498">
        <ele>1789.53799936</ele>
        <time>2013-09-08T07:18:41.210Z</time>
      </trkpt>
      <trkpt lat="45.60843" lon="6.62486">
        <ele>1790.68</ele>
        <time>2013-09-08T07:18:49.230Z</time>
      </trkpt>
      <trkpt lat="45.60849" lon="6.62474">
        <ele>1791.88</ele>
        <time>2013-09-08T07:18:55.230Z</time>
      </trkpt>
      <trkpt lat="45.60856" lon="6.62461">
        <ele>1792.89400064</ele>
        <time>2013-09-08T07:19:00.300Z</time>
      </trkpt>
      <trkpt lat="45.60865" lon="6.62452">
        <ele>1793.89199872</ele>
        <time>2013-09-08T07:19:05.290Z</time>
      </trkpt>
      <trkpt lat="45.60875" lon="6.62444">
        <ele>1794.89199872</ele>
        <time>2013-09-08T07:19:10.290Z</time>
      </trkpt>
      <trkpt lat="45.60883" lon="6.62436">
        <ele>1795.89199872</ele>
        <time>2013-09-08T07:19:15.290Z</time>
      </trkpt>
      <trkpt lat="45.60893" lon="6.62427">
        <ele>1796.879683711</ele>
        <time>2013-09-08T07:19:20.290Z</time>
      </trkpt>
      <trkpt lat="45.60901" lon="6.62416">
        <ele>1797.8658776274</ele>
        <time>2013-09-08T07:19:25.290Z</time>
      </trkpt>
      <trkpt lat="45.60909" lon="6.62406">
        <ele>1798.8843807647</ele>
        <time>2013-09-08T07:19:30.330Z</time>
      </trkpt>
      <trkpt lat="45.60915" lon="6.62394">
        <ele>1800.09999872</ele>
        <time>2013-09-08T07:19:36.330Z</time>
      </trkpt>
      <trkpt lat="45.60921" lon="6.62381">
        <ele>1801.69999872</ele>
        <time>2013-09-08T07:19:44.330Z</time>
      </trkpt>
      <trkpt lat="45.60926" lon="6.62368">
        <ele>1803.968</ele>
        <time>2013-09-08T07:19:52.390Z</time>
      </trkpt>
      <trkpt lat="45.60933" lon="6.62357">
        <ele>1806.368</ele>
        <time>2013-09-08T07:20:00.390Z</time>
      </trkpt>
      <trkpt lat="45.60942" lon="6.62351">
        <ele>1808.512</ele>
        <time>2013-09-08T07:20:08.390Z</time>
      </trkpt>
      <trkpt lat="45.6095" lon="6.62343">
        <ele>1809.912</ele>
        <time>2013-09-08T07:20:15.390Z</time>
      </trkpt>
      <trkpt lat="45.60959" lon="6.62337">
        <ele>1811.312</ele>
        <time>2013-09-08T07:20:22.390Z</time>
      </trkpt>
      <trkpt lat="45.60967" lon="6.6233">
        <ele>1813.3486498617</ele>
        <time>2013-09-08T07:20:30.330Z</time>
      </trkpt>
      <trkpt lat="45.60975" lon="6.62323">
        <ele>1815.4474463432</ele>
        <time>2013-09-08T07:20:37.330Z</time>
      </trkpt>
      <trkpt lat="45.60983" lon="6.62317">
        <ele>1817.5495477719</ele>
        <time>2013-09-08T07:20:44.330Z</time>
      </trkpt>
      <trkpt lat="45.6099" lon="6.62312">
        <ele>1819.112</ele>
        <time>2013-09-08T07:20:51.390Z</time>
      </trkpt>
      <trkpt lat="45.60998" lon="6.62307">
        <ele>1821.424</ele>
        <time>2013-09-08T07:20:59.390Z</time>
      </trkpt>
      <trkpt lat="45.61005" lon="6.62299">
        <ele>1824.168</ele>
        <time>2013-09-08T07:21:06.390Z</time>
      </trkpt>
      <trkpt lat="45.61011" lon="6.62291">
        <ele>1826.268</ele>
        <time>2013-09-08T07:21:13.390Z</time>
      </trkpt>
      <trkpt lat="45.61019" lon="6.62284">
        <ele>1828.668</ele>
        <time>2013-09-08T07:21:21.390Z</time>
      </trkpt>
      <trkpt lat="45.61026" lon="6.62276">
        <ele>1831.04999808</ele>
        <time>2013-09-08T07:21:29.330Z</time>
      </trkpt>
      <trkpt lat="45.61033" lon="6.62268">
        <ele>1833.29999872</ele>
        <time>2013-09-08T07:21:37.330Z</time>
      </trkpt>
      <trkpt lat="45.61042" lon="6.62262">
        <ele>1834.89999872</ele>
        <time>2013-09-08T07:21:45.330Z</time>
      </trkpt>
      <trkpt lat="45.6105" lon="6.62256">
        <ele>1836.712</ele>
        <time>2013-09-08T07:21:54.390Z</time>
      </trkpt>
      <trkpt lat="45.61056" lon="6.62247">
        <ele>1839.26499712</ele>
        <time>2013-09-08T07:22:03.380Z</time>
      </trkpt>
      <trkpt lat="45.61064" lon="6.62239">
        <ele>1841.3598418194</ele>
        <time>2013-09-08T07:22:10.390Z</time>
      </trkpt>
      <trkpt lat="45.61072" lon="6.62228">
        <ele>1843.0885311301</ele>
        <time>2013-09-08T07:22:16.330Z</time>
      </trkpt>
      <trkpt lat="45.6108" lon="6.62218">
        <ele>1844.0945666997</ele>
        <time>2013-09-08T07:22:21.330Z</time>
      </trkpt>
      <trkpt lat="45.61086" lon="6.62205">
        <ele>1845.09199872</ele>
        <time>2013-09-08T07:22:26.290Z</time>
      </trkpt>
      <trkpt lat="45.6109" lon="6.62194">
        <ele>1846.29199872</ele>
        <time>2013-09-08T07:22:32.290Z</time>
      </trkpt>
      <trkpt lat="45.61095" lon="6.6218">
        <ele>1847.66199808</ele>
        <time>2013-09-08T07:22:39.140Z</time>
      </trkpt>
      <trkpt lat="45.611" lon="6.62167">
        <ele>1849.42</ele>
        <time>2013-09-08T07:22:47.230Z</time>
      </trkpt>
      <trkpt lat="45.61104" lon="6.62154">
        <ele>1851.22</ele>
        <time>2013-09-08T07:22:53.230Z</time>
      </trkpt>
      <trkpt lat="45.61107" lon="6.62145">
        <ele>1852.98399744</ele>
        <time>2013-09-08T07:22:58.290Z</time>
      </trkpt>
      <trkpt lat="45.6111" lon="6.62132">
        <ele>1856.09199872</ele>
        <time>2013-09-08T07:23:06.290Z</time>
      </trkpt>
      <trkpt lat="45.61112" lon="6.62118">
        <ele>1857.69199872</ele>
        <time>2013-09-08T07:23:14.290Z</time>
      </trkpt>
      <trkpt lat="45.61119" lon="6.62105">
        <ele>1859.48</ele>
        <time>2013-09-08T07:23:23.230Z</time>
      </trkpt>
      <trkpt lat="45.61124" lon="6.62096">
        <ele>1861.62</ele>
        <time>2013-09-08T07:23:31.230Z</time>
      </trkpt>
      <trkpt lat="45.61129" lon="6.62084">
        <ele>1863.73799808</ele>
        <time>2013-09-08T07:23:38.290Z</time>
      </trkpt>
      <trkpt lat="45.61134" lon="6.62073">
        <ele>1865.83799808</ele>
        <time>2013-09-08T07:23:45.290Z</time>
      </trkpt>
      <trkpt lat="45.61141" lon="6.62061">
        <ele>1867.49199872</ele>
        <time>2013-09-08T07:23:53.290Z</time>
      </trkpt>
      <trkpt lat="45.61149" lon="6.62055">
        <ele>1869.33799808</ele>
        <time>2013-09-08T07:24:00.290Z</time>
      </trkpt>
      <trkpt lat="45.61157" lon="6.62051">
        <ele>1871.29199872</ele>
        <time>2013-09-08T07:24:07.290Z</time>
      </trkpt>
      <trkpt lat="45.61164" lon="6.62048">
        <ele>1872.49199872</ele>
        <time>2013-09-08T07:24:13.290Z</time>
      </trkpt>
      <trkpt lat="45.61171" lon="6.62045">
        <ele>1874.32</ele>
        <time>2013-09-08T07:24:20.230Z</time>
      </trkpt>
      <trkpt lat="45.61179" lon="6.6204">
        <ele>1876.93199872</ele>
        <time>2013-09-08T07:24:28.160Z</time>
      </trkpt>
      <trkpt lat="45.61185" lon="6.62032">
        <ele>1879.73199872</ele>
        <time>2013-09-08T07:24:35.160Z</time>
      </trkpt>
      <trkpt lat="45.61192" lon="6.6202">
        <ele>1882.23799808</ele>
        <time>2013-09-08T07:24:43.290Z</time>
      </trkpt>
      <trkpt lat="45.61198" lon="6.62007">
        <ele>1885.18399744</ele>
        <time>2013-09-08T07:24:51.290Z</time>
      </trkpt>
      <trkpt lat="45.61206" lon="6.61998">
        <ele>1887.2447755605</ele>
        <time>2013-09-08T07:24:58.290Z</time>
      </trkpt>
      <trkpt lat="45.61213" lon="6.61989">
        <ele>1888.1356786699</ele>
        <time>2013-09-08T07:25:07.230Z</time>
      </trkpt>
      <trkpt lat="45.61222" lon="6.61982">
        <ele>1888.9396985119</ele>
        <time>2013-09-08T07:25:15.230Z</time>
      </trkpt>
      <trkpt lat="45.61231" lon="6.61974">
        <ele>1891.53499904</ele>
        <time>2013-09-08T07:25:24.280Z</time>
      </trkpt>
      <trkpt lat="45.6124" lon="6.61966">
        <ele>1894.98399744</ele>
        <time>2013-09-08T07:25:33.290Z</time>
      </trkpt>
      <trkpt lat="45.6125" lon="6.61961">
        <ele>1896.89199872</ele>
        <time>2013-09-08T07:25:40.290Z</time>
      </trkpt>
      <trkpt lat="45.61261" lon="6.61957">
        <ele>1898.29199872</ele>
        <time>2013-09-08T07:25:47.290Z</time>
      </trkpt>
      <trkpt lat="45.61269" lon="6.61949">
        <ele>1899.89199872</ele>
        <time>2013-09-08T07:25:55.290Z</time>
      </trkpt>
      <trkpt lat="45.61279" lon="6.61941">
        <ele>1901.49199872</ele>
        <time>2013-09-08T07:26:03.290Z</time>
      </trkpt>
      <trkpt lat="45.61287" lon="6.61934">
        <ele>1903.63799808</ele>
        <time>2013-09-08T07:26:11.290Z</time>
      </trkpt>
      <trkpt lat="45.61297" lon="6.61929">
        <ele>1905.42</ele>
        <time>2013-09-08T07:26:17.230Z</time>
      </trkpt>
      <trkpt lat="45.61307" lon="6.61926">
        <ele>1907.52</ele>
        <time>2013-09-08T07:26:24.230Z</time>
      </trkpt>
      <trkpt lat="45.61317" lon="6.61921">
        <ele>1911.38399744</ele>
        <time>2013-09-08T07:26:34.290Z</time>
      </trkpt>
      <trkpt lat="45.61327" lon="6.61916">
        <ele>1913.29199872</ele>
        <time>2013-09-08T07:26:42.290Z</time>
      </trkpt>
      <trkpt lat="45.61338" lon="6.61909">
        <ele>1915.93799808</ele>
        <time>2013-09-08T07:26:52.290Z</time>
      </trkpt>
      <trkpt lat="45.61349" lon="6.61912">
        <ele>1917.73799808</ele>
        <time>2013-09-08T07:26:58.290Z</time>
      </trkpt>
      <trkpt lat="45.61358" lon="6.61916">
        <ele>1919.23799808</ele>
        <time>2013-09-08T07:27:03.290Z</time>
      </trkpt>
      <trkpt lat="45.61369" lon="6.61916">
        <ele>1921.62</ele>
        <time>2013-09-08T07:27:11.230Z</time>
      </trkpt>
      <trkpt lat="45.61378" lon="6.61909">
        <ele>1924.03799808</ele>
        <time>2013-09-08T07:27:19.290Z</time>
      </trkpt>
      <trkpt lat="45.61384" lon="6.61898">
        <ele>1926.48</ele>
        <time>2013-09-08T07:27:28.230Z</time>
      </trkpt>
      <trkpt lat="45.61392" lon="6.61889">
        <ele>1927.88</ele>
        <time>2013-09-08T07:27:35.230Z</time>
      </trkpt>
      <trkpt lat="45.61398" lon="6.61883">
        <ele>1929.69199872</ele>
        <time>2013-09-08T07:27:44.290Z</time>
      </trkpt>
      <trkpt lat="45.61403" lon="6.61879">
        <ele>1931.3689404097</ele>
        <time>2013-09-08T07:27:49.290Z</time>
      </trkpt>
      <trkpt lat="45.61411" lon="6.61876">
        <ele>1934.1183021703</ele>
        <time>2013-09-08T07:27:56.330Z</time>
      </trkpt>
      <trkpt lat="45.61419" lon="6.61876">
        <ele>1935.6349842168</ele>
        <time>2013-09-08T07:28:01.330Z</time>
      </trkpt>
      <trkpt lat="45.61429" lon="6.61881">
        <ele>1937.34999936</ele>
        <time>2013-09-08T07:28:09.330Z</time>
      </trkpt>
      <trkpt lat="45.61437" lon="6.61878">
        <ele>1938.49999872</ele>
        <time>2013-09-08T07:28:18.330Z</time>
      </trkpt>
      <trkpt lat="45.61434" lon="6.61867">
        <ele>1939.70199808</ele>
        <time>2013-09-08T07:28:24.340Z</time>
      </trkpt>
      <trkpt lat="45.61428" lon="6.61855">
        <ele>1942.112</ele>
        <time>2013-09-08T07:28:36.390Z</time>
      </trkpt>
      <trkpt lat="45.61418" lon="6.61848">
        <ele>1943.312</ele>
        <time>2013-09-08T07:28:42.390Z</time>
      </trkpt>
      <trkpt lat="45.6141" lon="6.61838">
        <ele>1945.068</ele>
        <time>2013-09-08T07:28:49.390Z</time>
      </trkpt>
      <trkpt lat="45.6142" lon="6.61834">
        <ele>1948.39999744</ele>
        <time>2013-09-08T07:28:59.330Z</time>
      </trkpt>
      <trkpt lat="45.61431" lon="6.61836">
        <ele>1951.14999808</ele>
        <time>2013-09-08T07:29:06.330Z</time>
      </trkpt>
      <trkpt lat="45.61442" lon="6.61836">
        <ele>1952.94999808</ele>
        <time>2013-09-08T07:29:12.330Z</time>
      </trkpt>
      <trkpt lat="45.61453" lon="6.61837">
        <ele>1954.768</ele>
        <time>2013-09-08T07:29:18.390Z</time>
      </trkpt>
      <trkpt lat="45.61462" lon="6.61844">
        <ele>1956.568</ele>
        <time>2013-09-08T07:29:24.390Z</time>
      </trkpt>
      <trkpt lat="45.6147" lon="6.61855">
        <ele>1958.824</ele>
        <time>2013-09-08T07:29:30.390Z</time>
      </trkpt>
      <trkpt lat="45.61473" lon="6.61868">
        <ele>1960.824</ele>
        <time>2013-09-08T07:29:35.390Z</time>
      </trkpt>
      <trkpt lat="45.61478" lon="6.61882">
        <ele>1962.368</ele>
        <time>2013-09-08T07:29:40.390Z</time>
      </trkpt>
      <trkpt lat="45.61485" lon="6.61892">
        <ele>1963.868</ele>
        <time>2013-09-08T07:29:45.390Z</time>
      </trkpt>
      <trkpt lat="45.61494" lon="6.61897">
        <ele>1966.224</ele>
        <time>2013-09-08T07:29:51.390Z</time>
      </trkpt>
      <trkpt lat="45.61506" lon="6.61897">
        <ele>1968.14999936</ele>
        <time>2013-09-08T07:29:57.330Z</time>
      </trkpt>
      <trkpt lat="45.61515" lon="6.61889">
        <ele>1968.54999936</ele>
        <time>2013-09-08T07:30:01.330Z</time>
      </trkpt>
      <trkpt lat="45.61526" lon="6.61879">
        <ele>1968.94999936</ele>
        <time>2013-09-08T07:30:05.330Z</time>
      </trkpt>
      <trkpt lat="45.61534" lon="6.61872">
        <ele>1969</ele>
        <time>2013-09-08T07:30:08.390Z</time>
      </trkpt>
      <trkpt lat="45.61542" lon="6.61863">
        <ele>1969</ele>
        <time>2013-09-08T07:30:12.390Z</time>
      </trkpt>
      <trkpt lat="45.6155" lon="6.61852">
        <ele>1969.112</ele>
        <time>2013-09-08T07:30:16.390Z</time>
      </trkpt>
      <trkpt lat="45.61558" lon="6.61841">
        <ele>1969.912</ele>
        <time>2013-09-08T07:30:20.390Z</time>
      </trkpt>
      <trkpt lat="45.61567" lon="6.6183">
        <ele>1970.712</ele>
        <time>2013-09-08T07:30:24.390Z</time>
      </trkpt>
      <trkpt lat="45.61574" lon="6.6182">
        <ele>1971</ele>
        <time>2013-09-08T07:30:29.390Z</time>
      </trkpt>
      <trkpt lat="45.61584" lon="6.61813">
        <ele>1971</ele>
        <time>2013-09-08T07:30:49.160Z</time>
      </trkpt>
      <trkpt lat="45.61591" lon="6.61803">
        <ele>1971</ele>
        <time>2013-09-08T07:30:54.160Z</time>
      </trkpt>
      <trkpt lat="45.616" lon="6.61794">
        <ele>1971.24</ele>
        <time>2013-09-08T07:30:58.230Z</time>
      </trkpt>
      <trkpt lat="45.61609" lon="6.61786">
        <ele>1971.64</ele>
        <time>2013-09-08T07:31:02.230Z</time>
      </trkpt>
      <trkpt lat="45.61617" lon="6.61773">
        <ele>1972.28</ele>
        <time>2013-09-08T07:31:07.230Z</time>
      </trkpt>
      <trkpt lat="45.61621" lon="6.61759">
        <ele>1973.28</ele>
        <time>2013-09-08T07:31:12.230Z</time>
      </trkpt>
      <trkpt lat="45.61622" lon="6.61743">
        <ele>1974.73799808</ele>
        <time>2013-09-08T07:31:18.290Z</time>
      </trkpt>
      <trkpt lat="45.61621" lon="6.61727">
        <ele>1976.53799808</ele>
        <time>2013-09-08T07:31:24.290Z</time>
      </trkpt>
      <trkpt lat="45.61622" lon="6.6171">
        <ele>1978.33799808</ele>
        <time>2013-09-08T07:31:30.290Z</time>
      </trkpt>
      <trkpt lat="45.61623" lon="6.61695">
        <ele>1979.83799808</ele>
        <time>2013-09-08T07:31:35.290Z</time>
      </trkpt>
      <trkpt lat="45.61626" lon="6.61681">
        <ele>1981.33799808</ele>
        <time>2013-09-08T07:31:40.290Z</time>
      </trkpt>
      <trkpt lat="45.6163" lon="6.61667">
        <ele>1982.83799808</ele>
        <time>2013-09-08T07:31:45.290Z</time>
      </trkpt>
      <trkpt lat="45.61632" lon="6.61653">
        <ele>1983.88</ele>
        <time>2013-09-08T07:31:50.230Z</time>
      </trkpt>
      <trkpt lat="45.61633" lon="6.61639">
        <ele>1985.03799936</ele>
        <time>2013-09-08T07:31:56.210Z</time>
      </trkpt>
      <trkpt lat="45.61637" lon="6.61625">
        <ele>1985.83799936</ele>
        <time>2013-09-08T07:32:04.210Z</time>
      </trkpt>
      <trkpt lat="45.61641" lon="6.6161">
        <ele>1988.23799808</ele>
        <time>2013-09-08T07:32:13.290Z</time>
      </trkpt>
      <trkpt lat="45.61645" lon="6.61597">
        <ele>1990.63799808</ele>
        <time>2013-09-08T07:32:21.290Z</time>
      </trkpt>
      <trkpt lat="45.61647" lon="6.61583">
        <ele>1993.03799808</ele>
        <time>2013-09-08T07:32:29.290Z</time>
      </trkpt>
      <trkpt lat="45.61651" lon="6.61567">
        <ele>1995.13799808</ele>
        <time>2013-09-08T07:32:36.290Z</time>
      </trkpt>
      <trkpt lat="45.61654" lon="6.61553">
        <ele>1996.93799808</ele>
        <time>2013-09-08T07:32:42.290Z</time>
      </trkpt>
      <trkpt lat="45.6166" lon="6.61542">
        <ele>1998.28</ele>
        <time>2013-09-08T07:32:47.230Z</time>
      </trkpt>
      <trkpt lat="45.61668" lon="6.6153">
        <ele>1999.28</ele>
        <time>2013-09-08T07:32:52.230Z</time>
      </trkpt>
      <trkpt lat="45.61675" lon="6.61517">
        <ele>2000.49400064</ele>
        <time>2013-09-08T07:32:58.300Z</time>
      </trkpt>
      <trkpt lat="45.61678" lon="6.61501">
        <ele>2001.69199872</ele>
        <time>2013-09-08T07:33:04.290Z</time>
      </trkpt>
      <trkpt lat="45.61689" lon="6.61503">
        <ele>2002.54499968</ele>
        <time>2013-09-08T07:33:11.280Z</time>
      </trkpt>
      <trkpt lat="45.61698" lon="6.61495">
        <ele>2003.49199872</ele>
        <time>2013-09-08T07:33:18.290Z</time>
      </trkpt>
      <trkpt lat="45.61704" lon="6.61484">
        <ele>2004.89199872</ele>
        <time>2013-09-08T07:33:25.290Z</time>
      </trkpt>
      <trkpt lat="45.61713" lon="6.61475">
        <ele>2007.525372028</ele>
        <time>2013-09-08T07:33:34.290Z</time>
      </trkpt>
      <trkpt lat="45.61702" lon="6.61472">
        <ele>2010.8190955356</ele>
        <time>2013-09-08T07:33:45.230Z</time>
      </trkpt>
      <trkpt lat="45.61691" lon="6.61469">
        <ele>2011.89199872</ele>
        <time>2013-09-08T07:33:50.290Z</time>
      </trkpt>
      <trkpt lat="45.61681" lon="6.61465">
        <ele>2012.69199872</ele>
        <time>2013-09-08T07:33:54.290Z</time>
      </trkpt>
      <trkpt lat="45.61689" lon="6.61455">
        <ele>2015.49199872</ele>
        <time>2013-09-08T07:34:08.290Z</time>
      </trkpt>
      <trkpt lat="45.61682" lon="6.61441">
        <ele>2017.89199872</ele>
        <time>2013-09-08T07:34:20.290Z</time>
      </trkpt>
      <trkpt lat="45.61673" lon="6.61434">
        <ele>2018.89199872</ele>
        <time>2013-09-08T07:34:25.290Z</time>
      </trkpt>
      <trkpt lat="45.61665" lon="6.61423">
        <ele>2020.63499904</ele>
        <time>2013-09-08T07:34:31.280Z</time>
      </trkpt>
      <trkpt lat="45.61673" lon="6.61418">
        <ele>2025.2</ele>
        <time>2013-09-08T07:34:42.230Z</time>
      </trkpt>
      <trkpt lat="45.61669" lon="6.61406">
        <ele>2028.28</ele>
        <time>2013-09-08T07:34:52.230Z</time>
      </trkpt>
      <trkpt lat="45.61665" lon="6.61397">
        <ele>2029.46599936</ele>
        <time>2013-09-08T07:34:58.160Z</time>
      </trkpt>
      <trkpt lat="45.61675" lon="6.61396">
        <ele>2031.12</ele>
        <time>2013-09-08T07:35:06.230Z</time>
      </trkpt>
      <trkpt lat="45.61682" lon="6.61396">
        <ele>2032.92</ele>
        <time>2013-09-08T07:35:12.230Z</time>
      </trkpt>
      <trkpt lat="45.6169" lon="6.61395">
        <ele>2034.73799808</ele>
        <time>2013-09-08T07:35:18.290Z</time>
      </trkpt>
      <trkpt lat="45.61697" lon="6.61391">
        <ele>2035.93799808</ele>
        <time>2013-09-08T07:35:22.290Z</time>
      </trkpt>
      <trkpt lat="45.61703" lon="6.6138">
        <ele>2037.43799808</ele>
        <time>2013-09-08T07:35:27.290Z</time>
      </trkpt>
      <trkpt lat="45.61708" lon="6.6137">
        <ele>2038.63799808</ele>
        <time>2013-09-08T07:35:31.290Z</time>
      </trkpt>
      <trkpt lat="45.61711" lon="6.61357">
        <ele>2039.83799808</ele>
        <time>2013-09-08T07:35:35.290Z</time>
      </trkpt>
      <trkpt lat="45.61713" lon="6.61341">
        <ele>2040.89199872</ele>
        <time>2013-09-08T07:35:40.290Z</time>
      </trkpt>
      <trkpt lat="45.61719" lon="6.61328">
        <ele>2042.09199872</ele>
        <time>2013-09-08T07:35:46.290Z</time>
      </trkpt>
      <trkpt lat="45.61726" lon="6.61317">
        <ele>2043.29199872</ele>
        <time>2013-09-08T07:35:52.290Z</time>
      </trkpt>
      <trkpt lat="45.61733" lon="6.61304">
        <ele>2044.69199872</ele>
        <time>2013-09-08T07:35:59.290Z</time>
      </trkpt>
      <trkpt lat="45.61734" lon="6.61292">
        <ele>2045.89199872</ele>
        <time>2013-09-08T07:36:05.290Z</time>
      </trkpt>
      <trkpt lat="45.61735" lon="6.6128">
        <ele>2047.09199872</ele>
        <time>2013-09-08T07:36:11.290Z</time>
      </trkpt>
      <trkpt lat="45.61738" lon="6.61269">
        <ele>2047.89199872</ele>
        <time>2013-09-08T07:36:15.290Z</time>
      </trkpt>
      <trkpt lat="45.61741" lon="6.61256">
        <ele>2049.3234414941</ele>
        <time>2013-09-08T07:36:20.290Z</time>
      </trkpt>
      <trkpt lat="45.61744" lon="6.61242">
        <ele>2050.8071224281</ele>
        <time>2013-09-08T07:36:25.290Z</time>
      </trkpt>
      <trkpt lat="45.61746" lon="6.61228">
        <ele>2052.7674440276</ele>
        <time>2013-09-08T07:36:30.310Z</time>
      </trkpt>
      <trkpt lat="45.61746" lon="6.61214">
        <ele>2054.7896867562</ele>
        <time>2013-09-08T07:36:35.310Z</time>
      </trkpt>
      <trkpt lat="45.61746" lon="6.61198">
        <ele>2056.112</ele>
        <time>2013-09-08T07:36:41.390Z</time>
      </trkpt>
      <trkpt lat="45.61745" lon="6.61183">
        <ele>2057.29999872</ele>
        <time>2013-09-08T07:36:47.330Z</time>
      </trkpt>
      <trkpt lat="45.61746" lon="6.61167">
        <ele>2058.49999872</ele>
        <time>2013-09-08T07:36:53.330Z</time>
      </trkpt>
      <trkpt lat="45.61751" lon="6.61154">
        <ele>2060.368</ele>
        <time>2013-09-08T07:37:00.390Z</time>
      </trkpt>
      <trkpt lat="45.61756" lon="6.61144">
        <ele>2062.156</ele>
        <time>2013-09-08T07:37:07.390Z</time>
      </trkpt>
      <trkpt lat="45.61759" lon="6.61133">
        <ele>2062.856</ele>
        <time>2013-09-08T07:37:14.390Z</time>
      </trkpt>
      <trkpt lat="45.61762" lon="6.61119">
        <ele>2063.712</ele>
        <time>2013-09-08T07:37:19.390Z</time>
      </trkpt>
      <trkpt lat="45.61764" lon="6.61106">
        <ele>2064.512</ele>
        <time>2013-09-08T07:37:23.390Z</time>
      </trkpt>
      <trkpt lat="45.61764" lon="6.61092">
        <ele>2065.312</ele>
        <time>2013-09-08T07:37:27.390Z</time>
      </trkpt>
      <trkpt lat="45.61764" lon="6.61076">
        <ele>2066.312</ele>
        <time>2013-09-08T07:37:32.390Z</time>
      </trkpt>
      <trkpt lat="45.61762" lon="6.6106">
        <ele>2067.14999936</ele>
        <time>2013-09-08T07:37:37.330Z</time>
      </trkpt>
      <trkpt lat="45.61759" lon="6.61045">
        <ele>2067.54999936</ele>
        <time>2013-09-08T07:37:41.330Z</time>
      </trkpt>
      <trkpt lat="45.61757" lon="6.6103">
        <ele>2067.94999936</ele>
        <time>2013-09-08T07:37:45.330Z</time>
      </trkpt>
      <trkpt lat="45.61754" lon="6.61016">
        <ele>2068.356</ele>
        <time>2013-09-08T07:37:49.390Z</time>
      </trkpt>
      <trkpt lat="45.6175" lon="6.60999">
        <ele>2068.856</ele>
        <time>2013-09-08T07:37:54.390Z</time>
      </trkpt>
      <trkpt lat="45.6175" lon="6.60982">
        <ele>2070.068</ele>
        <time>2013-09-08T07:37:59.390Z</time>
      </trkpt>
      <trkpt lat="45.61749" lon="6.60966">
        <ele>2071.868</ele>
        <time>2013-09-08T07:38:05.390Z</time>
      </trkpt>
      <trkpt lat="45.61749" lon="6.60951">
        <ele>2072.912</ele>
        <time>2013-09-08T07:38:10.390Z</time>
      </trkpt>
      <trkpt lat="45.61753" lon="6.6094">
        <ele>2073.712</ele>
        <time>2013-09-08T07:38:14.390Z</time>
      </trkpt>
      <trkpt lat="45.61758" lon="6.60932">
        <ele>2074.356</ele>
        <time>2013-09-08T07:38:19.390Z</time>
      </trkpt>
      <trkpt lat="45.61764" lon="6.60923">
        <ele>2075.44999808</ele>
        <time>2013-09-08T07:38:27.330Z</time>
      </trkpt>
      <trkpt lat="45.61769" lon="6.60914">
        <ele>2077.24999808</ele>
        <time>2013-09-08T07:38:33.330Z</time>
      </trkpt>
      <trkpt lat="45.61774" lon="6.60905">
        <ele>2079.068</ele>
        <time>2013-09-08T07:38:39.390Z</time>
      </trkpt>
      <trkpt lat="45.61781" lon="6.609">
        <ele>2080.868</ele>
        <time>2013-09-08T07:38:45.390Z</time>
      </trkpt>
      <trkpt lat="45.61788" lon="6.60893">
        <ele>2082.368</ele>
        <time>2013-09-08T07:38:50.390Z</time>
      </trkpt>
      <trkpt lat="45.61794" lon="6.60884">
        <ele>2083.568</ele>
        <time>2013-09-08T07:38:54.390Z</time>
      </trkpt>
      <trkpt lat="45.618" lon="6.60875">
        <ele>2084.512</ele>
        <time>2013-09-08T07:38:58.390Z</time>
      </trkpt>
      <trkpt lat="45.61806" lon="6.60865">
        <ele>2085.312</ele>
        <time>2013-09-08T07:39:02.390Z</time>
      </trkpt>
      <trkpt lat="45.61811" lon="6.60851">
        <ele>2086.31044786</ele>
        <time>2013-09-08T07:39:07.390Z</time>
      </trkpt>
      <trkpt lat="45.61816" lon="6.60839">
        <ele>2087.3054730525</ele>
        <time>2013-09-08T07:39:12.390Z</time>
      </trkpt>
      <trkpt lat="45.61823" lon="6.60826">
        <ele>2088.2874377367</ele>
        <time>2013-09-08T07:39:17.310Z</time>
      </trkpt>
      <trkpt lat="45.61829" lon="6.60814">
        <ele>2089.0914575786</ele>
        <time>2013-09-08T07:39:21.310Z</time>
      </trkpt>
      <trkpt lat="45.6182" lon="6.60806">
        <ele>2090.69999872</ele>
        <time>2013-09-08T07:39:29.330Z</time>
      </trkpt>
      <trkpt lat="45.61808" lon="6.6081">
        <ele>2091.69999872</ele>
        <time>2013-09-08T07:39:34.330Z</time>
      </trkpt>
      <trkpt lat="45.61797" lon="6.60809">
        <ele>2093.368</ele>
        <time>2013-09-08T07:39:40.390Z</time>
      </trkpt>
      <trkpt lat="45.61788" lon="6.60803">
        <ele>2095.156</ele>
        <time>2013-09-08T07:39:47.390Z</time>
      </trkpt>
      <trkpt lat="45.6178" lon="6.60794">
        <ele>2095.656</ele>
        <time>2013-09-08T07:39:52.390Z</time>
      </trkpt>
      <trkpt lat="45.61769" lon="6.60787">
        <ele>2096.512</ele>
        <time>2013-09-08T07:39:58.390Z</time>
      </trkpt>
      <trkpt lat="45.6176" lon="6.60785">
        <ele>2097.512</ele>
        <time>2013-09-08T07:40:03.390Z</time>
      </trkpt>
      <trkpt lat="45.61749" lon="6.60787">
        <ele>2098.744</ele>
        <time>2013-09-08T07:40:08.310Z</time>
      </trkpt>
      <trkpt lat="45.61741" lon="6.60786">
        <ele>2099.944</ele>
        <time>2013-09-08T07:40:12.310Z</time>
      </trkpt>
      <trkpt lat="45.6173" lon="6.60787">
        <ele>2101.312</ele>
        <time>2013-09-08T07:40:17.390Z</time>
      </trkpt>
      <trkpt lat="45.61723" lon="6.60795">
        <ele>2102.112</ele>
        <time>2013-09-08T07:40:21.390Z</time>
      </trkpt>
      <trkpt lat="45.61713" lon="6.60803">
        <ele>2103.09999872</ele>
        <time>2013-09-08T07:40:26.330Z</time>
      </trkpt>
      <trkpt lat="45.61702" lon="6.60802">
        <ele>2104.09999872</ele>
        <time>2013-09-08T07:40:31.330Z</time>
      </trkpt>
      <trkpt lat="45.61691" lon="6.60802">
        <ele>2104.89999872</ele>
        <time>2013-09-08T07:40:35.330Z</time>
      </trkpt>
      <trkpt lat="45.61681" lon="6.60807">
        <ele>2105</ele>
        <time>2013-09-08T07:40:39.390Z</time>
      </trkpt>
      <trkpt lat="45.61672" lon="6.6081">
        <ele>2105</ele>
        <time>2013-09-08T07:40:43.390Z</time>
      </trkpt>
      <trkpt lat="45.6166" lon="6.60811">
        <ele>2105</ele>
        <time>2013-09-08T07:40:48.390Z</time>
      </trkpt>
      <trkpt lat="45.6165" lon="6.60817">
        <ele>2105</ele>
        <time>2013-09-08T07:40:52.390Z</time>
      </trkpt>
      <trkpt lat="45.6164" lon="6.60822">
        <ele>2105.112</ele>
        <time>2013-09-08T07:40:56.390Z</time>
      </trkpt>
      <trkpt lat="45.6163" lon="6.60826">
        <ele>2105.912</ele>
        <time>2013-09-08T07:41:00.390Z</time>
      </trkpt>
      <trkpt lat="45.61618" lon="6.60829">
        <ele>2106.912</ele>
        <time>2013-09-08T07:41:05.390Z</time>
      </trkpt>
      <trkpt lat="45.61607" lon="6.60824">
        <ele>2107.912</ele>
        <time>2013-09-08T07:41:10.390Z</time>
      </trkpt>
      <trkpt lat="45.61597" lon="6.60816">
        <ele>2108.912</ele>
        <time>2013-09-08T07:41:15.390Z</time>
      </trkpt>
      <trkpt lat="45.61591" lon="6.60805">
        <ele>2109.356</ele>
        <time>2013-09-08T07:41:19.390Z</time>
      </trkpt>
      <trkpt lat="45.61584" lon="6.60793">
        <ele>2109.756</ele>
        <time>2013-09-08T07:41:23.390Z</time>
      </trkpt>
      <trkpt lat="45.61576" lon="6.60781">
        <ele>2110</ele>
        <time>2013-09-08T07:41:27.260Z</time>
      </trkpt>
      <trkpt lat="45.61567" lon="6.60771">
        <ele>2110</ele>
        <time>2013-09-08T07:41:31.260Z</time>
      </trkpt>
      <trkpt lat="45.61557" lon="6.60764">
        <ele>2110</ele>
        <time>2013-09-08T07:41:35.260Z</time>
      </trkpt>
      <trkpt lat="45.61547" lon="6.6076">
        <ele>2110</ele>
        <time>2013-09-08T07:41:39.390Z</time>
      </trkpt>
      <trkpt lat="45.61537" lon="6.60754">
        <ele>2110</ele>
        <time>2013-09-08T07:41:43.390Z</time>
      </trkpt>
      <trkpt lat="45.61527" lon="6.60747">
        <ele>2110.156</ele>
        <time>2013-09-08T07:41:47.390Z</time>
      </trkpt>
      <trkpt lat="45.61517" lon="6.6074">
        <ele>2110.556</ele>
        <time>2013-09-08T07:41:51.390Z</time>
      </trkpt>
      <trkpt lat="45.61508" lon="6.60734">
        <ele>2110.956</ele>
        <time>2013-09-08T07:41:55.390Z</time>
      </trkpt>
      <trkpt lat="45.61496" lon="6.60736">
        <ele>2111.9074629755</ele>
        <time>2013-09-08T07:42:00.390Z</time>
      </trkpt>
      <trkpt lat="45.61486" lon="6.60743">
        <ele>2112.7034831295</ele>
        <time>2013-09-08T07:42:04.390Z</time>
      </trkpt>
      <trkpt lat="45.61477" lon="6.60753">
        <ele>2113.246230755</ele>
        <time>2013-09-08T07:42:08.330Z</time>
      </trkpt>
      <trkpt lat="45.61467" lon="6.60755">
        <ele>2113.6482406759</ele>
        <time>2013-09-08T07:42:12.330Z</time>
      </trkpt>
      <trkpt lat="45.61455" lon="6.60758">
        <ele>2114</ele>
        <time>2013-09-08T07:42:16.330Z</time>
      </trkpt>
      <trkpt lat="45.61445" lon="6.60766">
        <ele>2114</ele>
        <time>2013-09-08T07:42:20.330Z</time>
      </trkpt>
      <trkpt lat="45.61435" lon="6.60777">
        <ele>2114</ele>
        <time>2013-09-08T07:42:24.330Z</time>
      </trkpt>
      <trkpt lat="45.61426" lon="6.60781">
        <ele>2114</ele>
        <time>2013-09-08T07:42:28.390Z</time>
      </trkpt>
      <trkpt lat="45.61415" lon="6.60774">
        <ele>2114</ele>
        <time>2013-09-08T07:42:32.390Z</time>
      </trkpt>
      <trkpt lat="45.61405" lon="6.60767">
        <ele>2114</ele>
        <time>2013-09-08T07:42:36.390Z</time>
      </trkpt>
      <trkpt lat="45.61394" lon="6.60763">
        <ele>2114</ele>
        <time>2013-09-08T07:42:40.400Z</time>
      </trkpt>
      <trkpt lat="45.61383" lon="6.60763">
        <ele>2114</ele>
        <time>2013-09-08T07:42:44.390Z</time>
      </trkpt>
      <trkpt lat="45.61374" lon="6.60772">
        <ele>2114.256</ele>
        <time>2013-09-08T07:42:48.390Z</time>
      </trkpt>
      <trkpt lat="45.61366" lon="6.60783">
        <ele>2114.74599936</ele>
        <time>2013-09-08T07:42:53.290Z</time>
      </trkpt>
      <trkpt lat="45.61358" lon="6.60788">
        <ele>2114.85400064</ele>
        <time>2013-09-08T07:42:57.290Z</time>
      </trkpt>
      <trkpt lat="45.61349" lon="6.6079">
        <ele>2114.35400064</ele>
        <time>2013-09-08T07:43:02.290Z</time>
      </trkpt>
      <trkpt lat="45.61339" lon="6.60801">
        <ele>2114</ele>
        <time>2013-09-08T07:43:15.230Z</time>
      </trkpt>
      <trkpt lat="45.61331" lon="6.6081">
        <ele>2114.34699904</ele>
        <time>2013-09-08T07:43:19.300Z</time>
      </trkpt>
      <trkpt lat="45.61329" lon="6.60823">
        <ele>2114.74599936</ele>
        <time>2013-09-08T07:43:23.290Z</time>
      </trkpt>
      <trkpt lat="45.61324" lon="6.60838">
        <ele>2115</ele>
        <time>2013-09-08T07:43:28.290Z</time>
      </trkpt>
      <trkpt lat="45.61314" lon="6.60838">
        <ele>2115</ele>
        <time>2013-09-08T07:43:34.290Z</time>
      </trkpt>
      <trkpt lat="45.6131" lon="6.6085">
        <ele>2115.74599936</ele>
        <time>2013-09-08T07:43:43.290Z</time>
      </trkpt>
      <trkpt lat="45.613" lon="6.6085">
        <ele>2122.44999808</ele>
        <time>2013-09-08T07:44:07.330Z</time>
      </trkpt>
      <trkpt lat="45.61294" lon="6.60843">
        <ele>2124.84999808</ele>
        <time>2013-09-08T07:44:15.330Z</time>
      </trkpt>
      <trkpt lat="45.61288" lon="6.60832">
        <ele>2130.768</ele>
        <time>2013-09-08T07:44:28.390Z</time>
      </trkpt>
      <trkpt lat="45.6128" lon="6.60822">
        <ele>2134.34999808</ele>
        <time>2013-09-08T07:44:40.330Z</time>
      </trkpt>
      <trkpt lat="45.61273" lon="6.60818">
        <ele>2137.3408662261</ele>
        <time>2013-09-08T07:44:50.380Z</time>
      </trkpt>
      <trkpt lat="45.61265" lon="6.60814">
        <ele>2139.9837080351</ele>
        <time>2013-09-08T07:44:59.230Z</time>
      </trkpt>
      <trkpt lat="45.61259" lon="6.60814">
        <ele>2142.12</ele>
        <time>2013-09-08T07:45:06.230Z</time>
      </trkpt>
      <trkpt lat="45.61252" lon="6.60812">
        <ele>2144.22</ele>
        <time>2013-09-08T07:45:13.230Z</time>
      </trkpt>
      <trkpt lat="45.61253" lon="6.60822">
        <ele>2145.89199872</ele>
        <time>2013-09-08T07:45:20.290Z</time>
      </trkpt>
      <trkpt lat="45.61255" lon="6.60831">
        <ele>2147.09899904</ele>
        <time>2013-09-08T07:45:26.160Z</time>
      </trkpt>
      <trkpt lat="45.61256" lon="6.60841">
        <ele>2149.19899904</ele>
        <time>2013-09-08T07:45:33.160Z</time>
      </trkpt>
      <trkpt lat="45.6125" lon="6.60844">
        <ele>2152.23799808</ele>
        <time>2013-09-08T07:45:43.290Z</time>
      </trkpt>
      <trkpt lat="45.61241" lon="6.60839">
        <ele>2154.63799808</ele>
        <time>2013-09-08T07:45:51.290Z</time>
      </trkpt>
      <trkpt lat="45.61231" lon="6.60844">
        <ele>2158.22</ele>
        <time>2013-09-08T07:46:03.230Z</time>
      </trkpt>
      <trkpt lat="45.61232" lon="6.60858">
        <ele>2159.44</ele>
        <time>2013-09-08T07:46:10.230Z</time>
      </trkpt>
      <trkpt lat="45.61235" lon="6.60872">
        <ele>2160.28</ele>
        <time>2013-09-08T07:46:17.230Z</time>
      </trkpt>
      <trkpt lat="45.6123" lon="6.60882">
        <ele>2161.68</ele>
        <time>2013-09-08T07:46:24.230Z</time>
      </trkpt>
      <trkpt lat="45.61223" lon="6.60894">
        <ele>2164.23799808</ele>
        <time>2013-09-08T07:46:33.290Z</time>
      </trkpt>
      <trkpt lat="45.61217" lon="6.60903">
        <ele>2165.69199872</ele>
        <time>2013-09-08T07:46:39.290Z</time>
      </trkpt>
      <trkpt lat="45.61208" lon="6.60896">
        <ele>2167.28999936</ele>
        <time>2013-09-08T07:46:47.280Z</time>
      </trkpt>
      <trkpt lat="45.61201" lon="6.60888">
        <ele>2168.88999936</ele>
        <time>2013-09-08T07:46:55.280Z</time>
      </trkpt>
      <trkpt lat="45.61193" lon="6.60883">
        <ele>2170.93799808</ele>
        <time>2013-09-08T07:47:02.290Z</time>
      </trkpt>
      <trkpt lat="45.61184" lon="6.60881">
        <ele>2173.62</ele>
        <time>2013-09-08T07:47:11.230Z</time>
      </trkpt>
      <trkpt lat="45.61174" lon="6.60881">
        <ele>2175.68</ele>
        <time>2013-09-08T07:47:19.230Z</time>
      </trkpt>
      <trkpt lat="45.61167" lon="6.60882">
        <ele>2176.88</ele>
        <time>2013-09-08T07:47:25.230Z</time>
      </trkpt>
      <trkpt lat="45.6117" lon="6.60897">
        <ele>2177.93799936</ele>
        <time>2013-09-08T07:47:35.210Z</time>
      </trkpt>
      <trkpt lat="45.61176" lon="6.6091">
        <ele>2180.969152627</ele>
        <time>2013-09-08T07:47:43.290Z</time>
      </trkpt>
      <trkpt lat="45.61176" lon="6.60922">
        <ele>2183.0753771818</ele>
        <time>2013-09-08T07:47:51.230Z</time>
      </trkpt>
      <trkpt lat="45.61168" lon="6.60923">
        <ele>2184.53199872</ele>
        <time>2013-09-08T07:47:57.160Z</time>
      </trkpt>
      <trkpt lat="45.61157" lon="6.60921">
        <ele>2186.93199872</ele>
        <time>2013-09-08T07:48:03.160Z</time>
      </trkpt>
      <trkpt lat="45.61145" lon="6.60921">
        <ele>2189.3798591871</ele>
        <time>2013-09-08T07:48:09.290Z</time>
      </trkpt>
      <trkpt lat="45.6114" lon="6.6093">
        <ele>2192.7311938396</ele>
        <time>2013-09-08T07:48:18.290Z</time>
      </trkpt>
      <trkpt lat="45.61141" lon="6.60942">
        <ele>2193.9348035131</ele>
        <time>2013-09-08T07:48:22.290Z</time>
      </trkpt>
      <trkpt lat="45.61134" lon="6.60955">
        <ele>2195.24599936</ele>
        <time>2013-09-08T07:48:28.290Z</time>
      </trkpt>
      <trkpt lat="45.61125" lon="6.60963">
        <ele>2195.84599936</ele>
        <time>2013-09-08T07:48:34.290Z</time>
      </trkpt>
      <trkpt lat="45.61115" lon="6.6097">
        <ele>2196.54599936</ele>
        <time>2013-09-08T07:48:41.290Z</time>
      </trkpt>
      <trkpt lat="45.61104" lon="6.60969">
        <ele>2198.02</ele>
        <time>2013-09-08T07:48:49.230Z</time>
      </trkpt>
      <trkpt lat="45.61093" lon="6.60963">
        <ele>2200.12</ele>
        <time>2013-09-08T07:48:56.230Z</time>
      </trkpt>
      <trkpt lat="45.61086" lon="6.60957">
        <ele>2201.62</ele>
        <time>2013-09-08T07:49:01.230Z</time>
      </trkpt>
      <trkpt lat="45.61076" lon="6.60949">
        <ele>2203.72</ele>
        <time>2013-09-08T07:49:08.230Z</time>
      </trkpt>
      <trkpt lat="45.61067" lon="6.60939">
        <ele>2205.52</ele>
        <time>2013-09-08T07:49:14.230Z</time>
      </trkpt>
      <trkpt lat="45.61057" lon="6.60943">
        <ele>2207.63799808</ele>
        <time>2013-09-08T07:49:21.290Z</time>
      </trkpt>
      <trkpt lat="45.6106" lon="6.60958">
        <ele>2209.14599936</ele>
        <time>2013-09-08T07:49:27.290Z</time>
      </trkpt>
      <trkpt lat="45.61065" lon="6.60971">
        <ele>2209.94599936</ele>
        <time>2013-09-08T07:49:35.290Z</time>
      </trkpt>
      <trkpt lat="45.61068" lon="6.60986">
        <ele>2210.74599936</ele>
        <time>2013-09-08T07:49:43.290Z</time>
      </trkpt>
      <trkpt lat="45.61071" lon="6.61001">
        <ele>2211.89199872</ele>
        <time>2013-09-08T07:49:50.290Z</time>
      </trkpt>
      <trkpt lat="45.61065" lon="6.61015">
        <ele>2213.08</ele>
        <time>2013-09-08T07:49:56.230Z</time>
      </trkpt>
      <trkpt lat="45.61057" lon="6.6102">
        <ele>2214.08</ele>
        <time>2013-09-08T07:50:01.230Z</time>
      </trkpt>
      <trkpt lat="45.61048" lon="6.61016">
        <ele>2215.42</ele>
        <time>2013-09-08T07:50:07.230Z</time>
      </trkpt>
      <trkpt lat="45.61041" lon="6.61012">
        <ele>2218.24</ele>
        <time>2013-09-08T07:50:18.230Z</time>
      </trkpt>
      <trkpt lat="45.61035" lon="6.61009">
        <ele>2218.74</ele>
        <time>2013-09-08T07:50:23.230Z</time>
      </trkpt>
      <trkpt lat="45.61025" lon="6.61005">
        <ele>2219.6885561595</ele>
        <time>2013-09-08T07:50:29.290Z</time>
      </trkpt>
      <trkpt lat="45.61017" lon="6.61002">
        <ele>2220.4845763135</ele>
        <time>2013-09-08T07:50:33.290Z</time>
      </trkpt>
      <trkpt lat="45.61011" lon="6.61">
        <ele>2221.1055285691</ele>
        <time>2013-09-08T07:50:36.230Z</time>
      </trkpt>
      <trkpt lat="45.61005" lon="6.60998">
        <ele>2222.0100508912</ele>
        <time>2013-09-08T07:50:39.230Z</time>
      </trkpt>
      <trkpt lat="45.61" lon="6.60995">
        <ele>2222.9145732134</ele>
        <time>2013-09-08T07:50:42.230Z</time>
      </trkpt>
      <trkpt lat="45.60995" lon="6.60991">
        <ele>2223.8190955356</ele>
        <time>2013-09-08T07:50:45.230Z</time>
      </trkpt>
      <trkpt lat="45.60989" lon="6.60986">
        <ele>2224.98800128</ele>
        <time>2013-09-08T07:50:48.300Z</time>
      </trkpt>
      <trkpt lat="45.60984" lon="6.60981">
        <ele>2226.18399744</ele>
        <time>2013-09-08T07:50:51.290Z</time>
      </trkpt>
      <trkpt lat="45.60979" lon="6.60979">
        <ele>2227.38399744</ele>
        <time>2013-09-08T07:50:54.290Z</time>
      </trkpt>
      <trkpt lat="45.60972" lon="6.60981">
        <ele>2228.73799808</ele>
        <time>2013-09-08T07:50:58.290Z</time>
      </trkpt>
      <trkpt lat="45.60967" lon="6.60984">
        <ele>2229.63799808</ele>
        <time>2013-09-08T07:51:01.290Z</time>
      </trkpt>
      <trkpt lat="45.6096" lon="6.60989">
        <ele>2230.83799808</ele>
        <time>2013-09-08T07:51:05.290Z</time>
      </trkpt>
      <trkpt lat="45.60954" lon="6.60993">
        <ele>2231</ele>
        <time>2013-09-08T07:51:09.290Z</time>
      </trkpt>
      <trkpt lat="45.60947" lon="6.60999">
        <ele>2231</ele>
        <time>2013-09-08T07:51:13.290Z</time>
      </trkpt>
      <trkpt lat="45.60942" lon="6.61013">
        <ele>2231.3453449144</ele>
        <time>2013-09-08T07:51:19.290Z</time>
      </trkpt>
      <trkpt lat="45.60938" lon="6.61022">
        <ele>2231.6456451185</ele>
        <time>2013-09-08T07:51:22.290Z</time>
      </trkpt>
      <trkpt lat="45.60934" lon="6.61033">
        <ele>2232.04599936</ele>
        <time>2013-09-08T07:51:26.290Z</time>
      </trkpt>
      <trkpt lat="45.60933" lon="6.61047">
        <ele>2232.54599936</ele>
        <time>2013-09-08T07:51:31.290Z</time>
      </trkpt>
      <trkpt lat="45.60932" lon="6.61055">
        <ele>2232.84599936</ele>
        <time>2013-09-08T07:51:34.290Z</time>
      </trkpt>
      <trkpt lat="45.60931" lon="6.61067">
        <ele>2233.34</ele>
        <time>2013-09-08T07:51:39.230Z</time>
      </trkpt>
      <trkpt lat="45.60928" lon="6.61076">
        <ele>2233.84</ele>
        <time>2013-09-08T07:51:44.230Z</time>
      </trkpt>
      <trkpt lat="45.60931" lon="6.61088">
        <ele>2234</ele>
        <time>2013-09-08T07:52:12.290Z</time>
      </trkpt>
      <trkpt lat="45.60931" lon="6.61104">
        <ele>2234.14599936</ele>
        <time>2013-09-08T07:52:17.290Z</time>
      </trkpt>
      <trkpt lat="45.6093" lon="6.61118">
        <ele>2234.54599936</ele>
        <time>2013-09-08T07:52:21.290Z</time>
      </trkpt>
      <trkpt lat="45.60932" lon="6.61135">
        <ele>2235.09199872</ele>
        <time>2013-09-08T07:52:26.290Z</time>
      </trkpt>
      <trkpt lat="45.60935" lon="6.61148">
        <ele>2235.89199872</ele>
        <time>2013-09-08T07:52:30.290Z</time>
      </trkpt>
      <trkpt lat="45.60937" lon="6.61162">
        <ele>2236.69199872</ele>
        <time>2013-09-08T07:52:34.290Z</time>
      </trkpt>
      <trkpt lat="45.60941" lon="6.61175">
        <ele>2237</ele>
        <time>2013-09-08T07:52:40.230Z</time>
      </trkpt>
      <trkpt lat="45.60942" lon="6.61189">
        <ele>2237.68</ele>
        <time>2013-09-08T07:52:49.230Z</time>
      </trkpt>
      <trkpt lat="45.60941" lon="6.61199">
        <ele>2238.48</ele>
        <time>2013-09-08T07:52:53.230Z</time>
      </trkpt>
      <trkpt lat="45.60938" lon="6.61211">
        <ele>2239.73799808</ele>
        <time>2013-09-08T07:52:58.290Z</time>
      </trkpt>
      <trkpt lat="45.60935" lon="6.61226">
        <ele>2241.53799808</ele>
        <time>2013-09-08T07:53:04.290Z</time>
      </trkpt>
      <trkpt lat="45.60931" lon="6.61235">
        <ele>2242.245753685</ele>
        <time>2013-09-08T07:53:08.290Z</time>
      </trkpt>
      <trkpt lat="45.60926" lon="6.61239">
        <ele>2242.5454540805</ele>
        <time>2013-09-08T07:53:11.290Z</time>
      </trkpt>
      <trkpt lat="45.60919" lon="6.61241">
        <ele>2242.845154476</ele>
        <time>2013-09-08T07:53:14.290Z</time>
      </trkpt>
      <trkpt lat="45.60913" lon="6.61242">
        <ele>2243.2888439841</ele>
        <time>2013-09-08T07:53:17.290Z</time>
      </trkpt>
      <trkpt lat="45.60908" lon="6.61245">
        <ele>2243.8864535458</ele>
        <time>2013-09-08T07:53:20.290Z</time>
      </trkpt>
      <trkpt lat="45.60904" lon="6.61249">
        <ele>2244.6832662948</ele>
        <time>2013-09-08T07:53:24.290Z</time>
      </trkpt>
      <trkpt lat="45.60899" lon="6.61252">
        <ele>2245.2361811502</ele>
        <time>2013-09-08T07:53:28.230Z</time>
      </trkpt>
      <trkpt lat="45.60893" lon="6.61256">
        <ele>2245.6381910711</ele>
        <time>2013-09-08T07:53:32.230Z</time>
      </trkpt>
      <trkpt lat="45.60889" lon="6.61259">
        <ele>2246.13799808</ele>
        <time>2013-09-08T07:53:36.290Z</time>
      </trkpt>
      <trkpt lat="45.60885" lon="6.61262">
        <ele>2249</ele>
        <time>2013-09-08T07:53:46.160Z</time>
      </trkpt>
      <trkpt lat="45.60879" lon="6.61263">
        <ele>2249</ele>
        <time>2013-09-08T07:53:52.160Z</time>
      </trkpt>
      <trkpt lat="45.60873" lon="6.61264">
        <ele>2249.13799808</ele>
        <time>2013-09-08T07:53:56.290Z</time>
      </trkpt>
      <trkpt lat="45.60865" lon="6.6127">
        <ele>2251.23799808</ele>
        <time>2013-09-08T07:54:03.290Z</time>
      </trkpt>
      <trkpt lat="45.60855" lon="6.61273">
        <ele>2252.89199872</ele>
        <time>2013-09-08T07:54:10.290Z</time>
      </trkpt>
      <trkpt lat="45.60851" lon="6.61274">
        <ele>2253.49199872</ele>
        <time>2013-09-08T07:54:13.290Z</time>
      </trkpt>
      <trkpt lat="45.60846" lon="6.61274">
        <ele>2254.43799808</ele>
        <time>2013-09-08T07:54:17.290Z</time>
      </trkpt>
      <trkpt lat="45.60842" lon="6.61274">
        <ele>2255.63799808</ele>
        <time>2013-09-08T07:54:21.290Z</time>
      </trkpt>
      <trkpt lat="45.60838" lon="6.61274">
        <ele>2256.83799808</ele>
        <time>2013-09-08T07:54:25.290Z</time>
      </trkpt>
      <trkpt lat="45.60836" lon="6.61275">
        <ele>2257.42</ele>
        <time>2013-09-08T07:54:27.230Z</time>
      </trkpt>
      <trkpt lat="45.60834" lon="6.61276">
        <ele>2258.32</ele>
        <time>2013-09-08T07:54:30.230Z</time>
      </trkpt>
      <trkpt lat="45.6083" lon="6.61275">
        <ele>2259.82</ele>
        <time>2013-09-08T07:54:35.230Z</time>
      </trkpt>
      <trkpt lat="45.60826" lon="6.61274">
        <ele>2261.031807893</ele>
        <time>2013-09-08T07:54:39.290Z</time>
      </trkpt>
      <trkpt lat="45.60818" lon="6.61271">
        <ele>2264.026156281</ele>
        <time>2013-09-08T07:54:49.290Z</time>
      </trkpt>
      <trkpt lat="45.60809" lon="6.61266">
        <ele>2266.72</ele>
        <time>2013-09-08T07:54:58.230Z</time>
      </trkpt>
      <trkpt lat="45.60801" lon="6.61263">
        <ele>2268.82</ele>
        <time>2013-09-08T07:55:05.230Z</time>
      </trkpt>
      <trkpt lat="45.60792" lon="6.61262">
        <ele>2270.29199872</ele>
        <time>2013-09-08T07:55:12.290Z</time>
      </trkpt>
      <trkpt lat="45.60782" lon="6.61262">
        <ele>2272.63799808</ele>
        <time>2013-09-08T07:55:21.290Z</time>
      </trkpt>
      <trkpt lat="45.60775" lon="6.61262">
        <ele>2274.48</ele>
        <time>2013-09-08T07:55:28.230Z</time>
      </trkpt>
      <trkpt lat="45.60769" lon="6.61262">
        <ele>2275.28</ele>
        <time>2013-09-08T07:55:32.230Z</time>
      </trkpt>
      <trkpt lat="45.60764" lon="6.6126">
        <ele>2275.88</ele>
        <time>2013-09-08T07:55:35.230Z</time>
      </trkpt>
      <trkpt lat="45.60758" lon="6.61256">
        <ele>2276.49199872</ele>
        <time>2013-09-08T07:55:38.290Z</time>
      </trkpt>
      <trkpt lat="45.60753" lon="6.61254">
        <ele>2277.09199872</ele>
        <time>2013-09-08T07:55:41.290Z</time>
      </trkpt>
      <trkpt lat="45.60748" lon="6.61252">
        <ele>2277.69199872</ele>
        <time>2013-09-08T07:55:44.290Z</time>
      </trkpt>
      <trkpt lat="45.60743" lon="6.61249">
        <ele>2278.29199872</ele>
        <time>2013-09-08T07:55:47.290Z</time>
      </trkpt>
      <trkpt lat="45.60738" lon="6.61245">
        <ele>2278.89199872</ele>
        <time>2013-09-08T07:55:50.290Z</time>
      </trkpt>
      <trkpt lat="45.60733" lon="6.61243">
        <ele>2279.49199872</ele>
        <time>2013-09-08T07:55:53.290Z</time>
      </trkpt>
      <trkpt lat="45.60728" lon="6.6124">
        <ele>2280.09199872</ele>
        <time>2013-09-08T07:55:56.290Z</time>
      </trkpt>
      <trkpt lat="45.60723" lon="6.61236">
        <ele>2280.69199872</ele>
        <time>2013-09-08T07:55:59.290Z</time>
      </trkpt>
      <trkpt lat="45.60717" lon="6.61234">
        <ele>2281.29199872</ele>
        <time>2013-09-08T07:56:02.290Z</time>
      </trkpt>
      <trkpt lat="45.60712" lon="6.61232">
        <ele>2281.89199872</ele>
        <time>2013-09-08T07:56:05.290Z</time>
      </trkpt>
      <trkpt lat="45.60707" lon="6.61231">
        <ele>2282.1452730413</ele>
        <time>2013-09-08T07:56:07.290Z</time>
      </trkpt>
      <trkpt lat="45.60703" lon="6.61231">
        <ele>2282.3442780798</ele>
        <time>2013-09-08T07:56:09.290Z</time>
      </trkpt>
      <trkpt lat="45.60697" lon="6.61229">
        <ele>2282.5432831183</ele>
        <time>2013-09-08T07:56:11.290Z</time>
      </trkpt>
      <trkpt lat="45.60693" lon="6.61227">
        <ele>2282.7422881567</ele>
        <time>2013-09-08T07:56:13.290Z</time>
      </trkpt>
      <trkpt lat="45.60686" lon="6.61223">
        <ele>2283</ele>
        <time>2013-09-08T07:56:16.260Z</time>
      </trkpt>
      <trkpt lat="45.60676" lon="6.61217">
        <ele>2283</ele>
        <time>2013-09-08T07:56:21.260Z</time>
      </trkpt>
      <trkpt lat="45.60666" lon="6.61215">
        <ele>2282.95000064</ele>
        <time>2013-09-08T07:56:26.330Z</time>
      </trkpt>
      <trkpt lat="45.60658" lon="6.61215">
        <ele>2282.65000064</ele>
        <time>2013-09-08T07:56:29.330Z</time>
      </trkpt>
      <trkpt lat="45.60651" lon="6.61216">
        <ele>2282.35000064</ele>
        <time>2013-09-08T07:56:32.330Z</time>
      </trkpt>
      <trkpt lat="45.60644" lon="6.61217">
        <ele>2282.05000064</ele>
        <time>2013-09-08T07:56:35.330Z</time>
      </trkpt>
      <trkpt lat="45.60636" lon="6.61221">
        <ele>2280.932</ele>
        <time>2013-09-08T07:56:39.390Z</time>
      </trkpt>
      <trkpt lat="45.60628" lon="6.61224">
        <ele>2279.732</ele>
        <time>2013-09-08T07:56:43.390Z</time>
      </trkpt>
      <trkpt lat="45.60618" lon="6.61231">
        <ele>2277.44</ele>
        <time>2013-09-08T07:56:47.390Z</time>
      </trkpt>
      <trkpt lat="45.60608" lon="6.6124">
        <ele>2273.44</ele>
        <time>2013-09-08T07:56:51.390Z</time>
      </trkpt>
      <trkpt lat="45.60596" lon="6.61246">
        <ele>2268.608</ele>
        <time>2013-09-08T07:56:56.390Z</time>
      </trkpt>
      <trkpt lat="45.60585" lon="6.61252">
        <ele>2265.808</ele>
        <time>2013-09-08T07:57:00.390Z</time>
      </trkpt>
      <trkpt lat="45.60573" lon="6.61258">
        <ele>2263.008</ele>
        <time>2013-09-08T07:57:04.390Z</time>
      </trkpt>
      <trkpt lat="45.60561" lon="6.61256">
        <ele>2261.4910533542</ele>
        <time>2013-09-08T07:57:08.390Z</time>
      </trkpt>
      <trkpt lat="45.6055" lon="6.61254">
        <ele>2260.8946315035</ele>
        <time>2013-09-08T07:57:11.390Z</time>
      </trkpt>
      <trkpt lat="45.6054" lon="6.61251">
        <ele>2260.2982096529</ele>
        <time>2013-09-08T07:57:14.390Z</time>
      </trkpt>
      <trkpt lat="45.60529" lon="6.61249">
        <ele>2259.5432592076</ele>
        <time>2013-09-08T07:57:18.160Z</time>
      </trkpt>
      <trkpt lat="45.60519" lon="6.61244">
        <ele>2258.7384307519</ele>
        <time>2013-09-08T07:57:22.160Z</time>
      </trkpt>
      <trkpt lat="45.60507" lon="6.61241">
        <ele>2257.56200192</ele>
        <time>2013-09-08T07:57:27.290Z</time>
      </trkpt>
      <trkpt lat="45.60496" lon="6.61238">
        <ele>2256.36200192</ele>
        <time>2013-09-08T07:57:31.290Z</time>
      </trkpt>
      <trkpt lat="45.60485" lon="6.61236">
        <ele>2255.16200192</ele>
        <time>2013-09-08T07:57:35.290Z</time>
      </trkpt>
      <trkpt lat="45.60473" lon="6.61237">
        <ele>2251.88600576</ele>
        <time>2013-09-08T07:57:39.290Z</time>
      </trkpt>
      <trkpt lat="45.60462" lon="6.6124">
        <ele>2248.28600576</ele>
        <time>2013-09-08T07:57:43.290Z</time>
      </trkpt>
      <trkpt lat="45.60451" lon="6.61241">
        <ele>2245.12400384</ele>
        <time>2013-09-08T07:57:47.290Z</time>
      </trkpt>
      <trkpt lat="45.6044" lon="6.61239">
        <ele>2242.72400384</ele>
        <time>2013-09-08T07:57:51.290Z</time>
      </trkpt>
      <trkpt lat="45.60428" lon="6.61233">
        <ele>2240.32400384</ele>
        <time>2013-09-08T07:57:55.290Z</time>
      </trkpt>
      <trkpt lat="45.6042" lon="6.61228">
        <ele>2239.26200192</ele>
        <time>2013-09-08T07:57:58.290Z</time>
      </trkpt>
      <trkpt lat="45.6041" lon="6.61221">
        <ele>2238.06200192</ele>
        <time>2013-09-08T07:58:02.290Z</time>
      </trkpt>
      <trkpt lat="45.60398" lon="6.61225">
        <ele>2236.70800128</ele>
        <time>2013-09-08T07:58:07.290Z</time>
      </trkpt>
      <trkpt lat="45.60388" lon="6.61224">
        <ele>2235.70800128</ele>
        <time>2013-09-08T07:58:12.290Z</time>
      </trkpt>
      <trkpt lat="45.60377" lon="6.61226">
        <ele>2235.24</ele>
        <time>2013-09-08T07:58:18.230Z</time>
      </trkpt>
      <trkpt lat="45.60367" lon="6.6123">
        <ele>2235.94</ele>
        <time>2013-09-08T07:58:25.230Z</time>
      </trkpt>
      <trkpt lat="45.60356" lon="6.6123">
        <ele>2235.35400064</ele>
        <time>2013-09-08T07:58:32.290Z</time>
      </trkpt>
      <trkpt lat="45.60344" lon="6.61231">
        <ele>2234.70800128</ele>
        <time>2013-09-08T07:58:37.290Z</time>
      </trkpt>
      <trkpt lat="45.60333" lon="6.61232">
        <ele>2233.90800128</ele>
        <time>2013-09-08T07:58:41.290Z</time>
      </trkpt>
      <trkpt lat="45.60322" lon="6.61236">
        <ele>2232.86200192</ele>
        <time>2013-09-08T07:58:46.290Z</time>
      </trkpt>
      <trkpt lat="45.60312" lon="6.61245">
        <ele>2231.06200192</ele>
        <time>2013-09-08T07:58:52.290Z</time>
      </trkpt>
      <trkpt lat="45.60306" lon="6.61257">
        <ele>2229.1283617523</ele>
        <time>2013-09-08T07:58:57.290Z</time>
      </trkpt>
      <trkpt lat="45.60296" lon="6.61264">
        <ele>2224.949255944</ele>
        <time>2013-09-08T07:59:04.290Z</time>
      </trkpt>
      <trkpt lat="45.60287" lon="6.61273">
        <ele>2222.688441668</ele>
        <time>2013-09-08T07:59:10.230Z</time>
      </trkpt>
      <trkpt lat="45.60282" lon="6.61282">
        <ele>2221.4824119052</ele>
        <time>2013-09-08T07:59:14.230Z</time>
      </trkpt>
      <trkpt lat="45.60276" lon="6.61296">
        <ele>2218.30400256</ele>
        <time>2013-09-08T07:59:19.200Z</time>
      </trkpt>
      <trkpt lat="45.60272" lon="6.61303">
        <ele>2215.90400256</ele>
        <time>2013-09-08T07:59:22.200Z</time>
      </trkpt>
      <trkpt lat="45.60265" lon="6.61315">
        <ele>2211.72</ele>
        <time>2013-09-08T07:59:32.230Z</time>
      </trkpt>
      <trkpt lat="45.60256" lon="6.61324">
        <ele>2211.04599936</ele>
        <time>2013-09-08T07:59:36.290Z</time>
      </trkpt>
      <trkpt lat="45.60251" lon="6.61338">
        <ele>2211.44599936</ele>
        <time>2013-09-08T07:59:40.290Z</time>
      </trkpt>
      <trkpt lat="45.60251" lon="6.61354">
        <ele>2211.84599936</ele>
        <time>2013-09-08T07:59:44.290Z</time>
      </trkpt>
      <trkpt lat="45.60251" lon="6.61372">
        <ele>2211.50800128</ele>
        <time>2013-09-08T07:59:48.290Z</time>
      </trkpt>
      <trkpt lat="45.6025" lon="6.6139">
        <ele>2210.70800128</ele>
        <time>2013-09-08T07:59:52.290Z</time>
      </trkpt>
      <trkpt lat="45.60248" lon="6.61406">
        <ele>2209.7700032</ele>
        <time>2013-09-08T07:59:56.290Z</time>
      </trkpt>
      <trkpt lat="45.60248" lon="6.61421">
        <ele>2207.7700032</ele>
        <time>2013-09-08T08:00:00.290Z</time>
      </trkpt>
      <trkpt lat="45.60252" lon="6.61438">
        <ele>2205.7700032</ele>
        <time>2013-09-08T08:00:04.290Z</time>
      </trkpt>
      <trkpt lat="45.60255" lon="6.61454">
        <ele>2203.62000128</ele>
        <time>2013-09-08T08:00:09.280Z</time>
      </trkpt>
      <trkpt lat="45.6026" lon="6.61468">
        <ele>2202.02000128</ele>
        <time>2013-09-08T08:00:13.280Z</time>
      </trkpt>
      <trkpt lat="45.60266" lon="6.61482">
        <ele>2200.44</ele>
        <time>2013-09-08T08:00:17.230Z</time>
      </trkpt>
      <trkpt lat="45.60268" lon="6.61497">
        <ele>2198.84</ele>
        <time>2013-09-08T08:00:21.230Z</time>
      </trkpt>
      <trkpt lat="45.60269" lon="6.61512">
        <ele>2197.24</ele>
        <time>2013-09-08T08:00:25.230Z</time>
      </trkpt>
      <trkpt lat="45.60272" lon="6.61526">
        <ele>2193.19400704</ele>
        <time>2013-09-08T08:00:29.290Z</time>
      </trkpt>
      <trkpt lat="45.60276" lon="6.61539">
        <ele>2187.69400704</ele>
        <time>2013-09-08T08:00:34.290Z</time>
      </trkpt>
      <trkpt lat="45.60277" lon="6.61556">
        <ele>2183.92400384</ele>
        <time>2013-09-08T08:00:39.290Z</time>
      </trkpt>
      <trkpt lat="45.60278" lon="6.61572">
        <ele>2180.32400384</ele>
        <time>2013-09-08T08:00:45.290Z</time>
      </trkpt>
      <trkpt lat="45.60275" lon="6.61588">
        <ele>2176.17800448</ele>
        <time>2013-09-08T08:00:51.290Z</time>
      </trkpt>
      <trkpt lat="45.60271" lon="6.61604">
        <ele>2172.56200192</ele>
        <time>2013-09-08T08:00:57.290Z</time>
      </trkpt>
      <trkpt lat="45.60272" lon="6.61619">
        <ele>2171.36200192</ele>
        <time>2013-09-08T08:01:01.290Z</time>
      </trkpt>
      <trkpt lat="45.60273" lon="6.61635">
        <ele>2169.64</ele>
        <time>2013-09-08T08:01:06.230Z</time>
      </trkpt>
      <trkpt lat="45.6027" lon="6.6165">
        <ele>2166.04</ele>
        <time>2013-09-08T08:01:10.230Z</time>
      </trkpt>
      <trkpt lat="45.60266" lon="6.61666">
        <ele>2162.44</ele>
        <time>2013-09-08T08:01:14.230Z</time>
      </trkpt>
      <trkpt lat="45.60261" lon="6.61679">
        <ele>2159.7700032</ele>
        <time>2013-09-08T08:01:18.290Z</time>
      </trkpt>
      <trkpt lat="45.60259" lon="6.61693">
        <ele>2157.7700032</ele>
        <time>2013-09-08T08:01:22.290Z</time>
      </trkpt>
      <trkpt lat="45.6026" lon="6.61707">
        <ele>2155.8621397361</ele>
        <time>2013-09-08T08:01:26.290Z</time>
      </trkpt>
      <trkpt lat="45.6026" lon="6.61723">
        <ele>2154.6633381541</ele>
        <time>2013-09-08T08:01:30.290Z</time>
      </trkpt>
      <trkpt lat="45.60258" lon="6.61739">
        <ele>2153.1648361766</ele>
        <time>2013-09-08T08:01:35.290Z</time>
      </trkpt>
      <trkpt lat="45.60258" lon="6.61755">
        <ele>2150.7727750878</ele>
        <time>2013-09-08T08:01:40.290Z</time>
      </trkpt>
      <trkpt lat="45.60262" lon="6.6177">
        <ele>2148.2702733869</ele>
        <time>2013-09-08T08:01:45.290Z</time>
      </trkpt>
      <trkpt lat="45.60261" lon="6.61786">
        <ele>2145.2997038652</ele>
        <time>2013-09-08T08:01:51.290Z</time>
      </trkpt>
      <trkpt lat="45.6026" lon="6.61802">
        <ele>2142.5267913188</ele>
        <time>2013-09-08T08:01:56.330Z</time>
      </trkpt>
      <trkpt lat="45.60262" lon="6.61818">
        <ele>2136.4600631328</ele>
        <time>2013-09-08T08:02:01.330Z</time>
      </trkpt>
      <trkpt lat="45.60262" lon="6.61833">
        <ele>2130.65000448</ele>
        <time>2013-09-08T08:02:06.330Z</time>
      </trkpt>
      <trkpt lat="45.60261" lon="6.61848">
        <ele>2127.15000448</ele>
        <time>2013-09-08T08:02:11.330Z</time>
      </trkpt>
      <trkpt lat="45.60258" lon="6.61862">
        <ele>2123.87100288</ele>
        <time>2013-09-08T08:02:16.260Z</time>
      </trkpt>
      <trkpt lat="45.60248" lon="6.61861">
        <ele>2122.97099904</ele>
        <time>2013-09-08T08:02:19.260Z</time>
      </trkpt>
      <trkpt lat="45.60237" lon="6.61858">
        <ele>2121.77099904</ele>
        <time>2013-09-08T08:02:23.260Z</time>
      </trkpt>
      <trkpt lat="45.60227" lon="6.61866">
        <ele>2120.232</ele>
        <time>2013-09-08T08:02:28.390Z</time>
      </trkpt>
      <trkpt lat="45.60218" lon="6.61875">
        <ele>2118.732</ele>
        <time>2013-09-08T08:02:33.390Z</time>
      </trkpt>
      <trkpt lat="45.60208" lon="6.61881">
        <ele>2118.512</ele>
        <time>2013-09-08T08:02:38.390Z</time>
      </trkpt>
      <trkpt lat="45.60201" lon="6.61887">
        <ele>2119.312</ele>
        <time>2013-09-08T08:02:42.390Z</time>
      </trkpt>
      <trkpt lat="45.60192" lon="6.61892">
        <ele>2120.056</ele>
        <time>2013-09-08T08:02:46.390Z</time>
      </trkpt>
      <trkpt lat="45.60185" lon="6.61898">
        <ele>2120.556</ele>
        <time>2013-09-08T08:02:51.390Z</time>
      </trkpt>
      <trkpt lat="45.60181" lon="6.61908">
        <ele>2121</ele>
        <time>2013-09-08T08:02:56.390Z</time>
      </trkpt>
      <trkpt lat="45.60177" lon="6.6192">
        <ele>2121</ele>
        <time>2013-09-08T08:03:01.390Z</time>
      </trkpt>
      <trkpt lat="45.60172" lon="6.6193">
        <ele>2121</ele>
        <time>2013-09-08T08:03:04.390Z</time>
      </trkpt>
      <trkpt lat="45.60169" lon="6.61939">
        <ele>2121</ele>
        <time>2013-09-08T08:03:07.390Z</time>
      </trkpt>
      <trkpt lat="45.60165" lon="6.61953">
        <ele>2121</ele>
        <time>2013-09-08T08:03:11.390Z</time>
      </trkpt>
      <trkpt lat="45.60161" lon="6.61966">
        <ele>2121</ele>
        <time>2013-09-08T08:03:15.390Z</time>
      </trkpt>
      <trkpt lat="45.60154" lon="6.61977">
        <ele>2121.356</ele>
        <time>2013-09-08T08:03:19.390Z</time>
      </trkpt>
      <trkpt lat="45.60147" lon="6.61991">
        <ele>2121.856</ele>
        <time>2013-09-08T08:03:24.390Z</time>
      </trkpt>
      <trkpt lat="45.60142" lon="6.62005">
        <ele>2122.356</ele>
        <time>2013-09-08T08:03:29.390Z</time>
      </trkpt>
      <trkpt lat="45.60138" lon="6.62018">
        <ele>2122.756</ele>
        <time>2013-09-08T08:03:33.390Z</time>
      </trkpt>
      <trkpt lat="45.60134" lon="6.62033">
        <ele>2122.844</ele>
        <time>2013-09-08T08:03:37.390Z</time>
      </trkpt>
      <trkpt lat="45.60131" lon="6.62051">
        <ele>2122.444</ele>
        <time>2013-09-08T08:03:41.390Z</time>
      </trkpt>
      <trkpt lat="45.60127" lon="6.62061">
        <ele>2122.144</ele>
        <time>2013-09-08T08:03:44.390Z</time>
      </trkpt>
      <trkpt lat="45.60122" lon="6.62072">
        <ele>2121.744</ele>
        <time>2013-09-08T08:03:48.390Z</time>
      </trkpt>
      <trkpt lat="45.60114" lon="6.62084">
        <ele>2121.244</ele>
        <time>2013-09-08T08:03:53.390Z</time>
      </trkpt>
      <trkpt lat="45.60107" lon="6.62096">
        <ele>2121.69999872</ele>
        <time>2013-09-08T08:03:59.330Z</time>
      </trkpt>
      <trkpt lat="45.60104" lon="6.62103">
        <ele>2122.29999872</ele>
        <time>2013-09-08T08:04:02.330Z</time>
      </trkpt>
      <trkpt lat="45.60099" lon="6.62109">
        <ele>2123.09999872</ele>
        <time>2013-09-08T08:04:06.330Z</time>
      </trkpt>
      <trkpt lat="45.60097" lon="6.62121">
        <ele>2124.09999872</ele>
        <time>2013-09-08T08:04:11.330Z</time>
      </trkpt>
      <trkpt lat="45.60094" lon="6.62134">
        <ele>2124.89999872</ele>
        <time>2013-09-08T08:04:15.330Z</time>
      </trkpt>
      <trkpt lat="45.60092" lon="6.62147">
        <ele>2126.112</ele>
        <time>2013-09-08T08:04:21.390Z</time>
      </trkpt>
      <trkpt lat="45.60091" lon="6.6216">
        <ele>2127.51000064</ele>
        <time>2013-09-08T08:04:28.380Z</time>
      </trkpt>
      <trkpt lat="45.60091" lon="6.62172">
        <ele>2128.71000064</ele>
        <time>2013-09-08T08:04:34.380Z</time>
      </trkpt>
      <trkpt lat="45.60093" lon="6.62185">
        <ele>2130.0999021325</ele>
        <time>2013-09-08T08:04:41.390Z</time>
      </trkpt>
      <trkpt lat="45.60094" lon="6.62197">
        <ele>2131.6946432893</ele>
        <time>2013-09-08T08:04:48.230Z</time>
      </trkpt>
      <trkpt lat="45.60097" lon="6.62209">
        <ele>2134.1198801582</ele>
        <time>2013-09-08T08:04:56.230Z</time>
      </trkpt>
      <trkpt lat="45.60099" lon="6.62222">
        <ele>2136.2177829268</ele>
        <time>2013-09-08T08:05:03.230Z</time>
      </trkpt>
      <trkpt lat="45.60101" lon="6.62234">
        <ele>2137.6906898288</ele>
        <time>2013-09-08T08:05:09.290Z</time>
      </trkpt>
      <trkpt lat="45.60103" lon="6.62243">
        <ele>2139.14799872</ele>
        <time>2013-09-08T08:05:16.200Z</time>
      </trkpt>
      <trkpt lat="45.601" lon="6.62252">
        <ele>2143.16</ele>
        <time>2013-09-08T08:05:26.230Z</time>
      </trkpt>
      <trkpt lat="45.60101" lon="6.62264">
        <ele>2146.76</ele>
        <time>2013-09-08T08:05:35.230Z</time>
      </trkpt>
      <trkpt lat="45.60103" lon="6.62275">
        <ele>2149.23799808</ele>
        <time>2013-09-08T08:05:43.290Z</time>
      </trkpt>
      <trkpt lat="45.60104" lon="6.62285">
        <ele>2150.89199872</ele>
        <time>2013-09-08T08:05:50.290Z</time>
      </trkpt>
      <trkpt lat="45.60102" lon="6.62294">
        <ele>2152</ele>
        <time>2013-09-08T08:06:04.230Z</time>
      </trkpt>
      <trkpt lat="45.60101" lon="6.62305">
        <ele>2154.23799808</ele>
        <time>2013-09-08T08:06:13.290Z</time>
      </trkpt>
      <trkpt lat="45.601" lon="6.62317">
        <ele>2157.98399744</ele>
        <time>2013-09-08T08:06:23.290Z</time>
      </trkpt>
      <trkpt lat="45.60099" lon="6.62332">
        <ele>2160.93799808</ele>
        <time>2013-09-08T08:06:32.290Z</time>
      </trkpt>
      <trkpt lat="45.60102" lon="6.62345">
        <ele>2162.54599936</ele>
        <time>2013-09-08T08:06:41.290Z</time>
      </trkpt>
      <trkpt lat="45.60108" lon="6.62358">
        <ele>2164.32</ele>
        <time>2013-09-08T08:06:50.230Z</time>
      </trkpt>
      <trkpt lat="45.60113" lon="6.62371">
        <ele>2166.42</ele>
        <time>2013-09-08T08:06:57.230Z</time>
      </trkpt>
      <trkpt lat="45.60119" lon="6.62382">
        <ele>2170.02</ele>
        <time>2013-09-08T08:07:09.230Z</time>
      </trkpt>
      <trkpt lat="45.60125" lon="6.62394">
        <ele>2174.23799808</ele>
        <time>2013-09-08T08:07:23.290Z</time>
      </trkpt>
      <trkpt lat="45.60129" lon="6.62402">
        <ele>2176.285571275</ele>
        <time>2013-09-08T08:07:32.290Z</time>
      </trkpt>
      <trkpt lat="45.60128" lon="6.62415">
        <ele>2176.70100096</ele>
        <time>2013-09-08T08:07:50.160Z</time>
      </trkpt>
      <trkpt lat="45.60125" lon="6.62421">
        <ele>2175.80100096</ele>
        <time>2013-09-08T08:07:53.160Z</time>
      </trkpt>
      <trkpt lat="45.6012" lon="6.62426">
        <ele>2174.69600512</ele>
        <time>2013-09-08T08:07:56.210Z</time>
      </trkpt>
      <trkpt lat="45.60128" lon="6.62433">
        <ele>2169.89600512</ele>
        <time>2013-09-08T08:08:02.210Z</time>
      </trkpt>
      <trkpt lat="45.60136" lon="6.62435">
        <ele>2167.49600512</ele>
        <time>2013-09-08T08:08:05.210Z</time>
      </trkpt>
      <trkpt lat="45.60146" lon="6.62438">
        <ele>2163.5300096</ele>
        <time>2013-09-08T08:08:09.300Z</time>
      </trkpt>
      <trkpt lat="45.60153" lon="6.62443">
        <ele>2160.44</ele>
        <time>2013-09-08T08:08:12.390Z</time>
      </trkpt>
      <trkpt lat="45.60148" lon="6.62451">
        <ele>2156.664</ele>
        <time>2013-09-08T08:08:16.390Z</time>
      </trkpt>
      <trkpt lat="45.60141" lon="6.62462">
        <ele>2153.664</ele>
        <time>2013-09-08T08:08:21.390Z</time>
      </trkpt>
      <trkpt lat="45.60134" lon="6.62474">
        <ele>2151.264</ele>
        <time>2013-09-08T08:08:25.390Z</time>
      </trkpt>
      <trkpt lat="45.60127" lon="6.62484">
        <ele>2150.232</ele>
        <time>2013-09-08T08:08:28.390Z</time>
      </trkpt>
      <trkpt lat="45.60124" lon="6.62492">
        <ele>2149.632</ele>
        <time>2013-09-08T08:08:30.390Z</time>
      </trkpt>
      <trkpt lat="45.60122" lon="6.62504">
        <ele>2148.732</ele>
        <time>2013-09-08T08:08:33.390Z</time>
      </trkpt>
      <trkpt lat="45.60124" lon="6.62518">
        <ele>2146.72</ele>
        <time>2013-09-08T08:08:38.390Z</time>
      </trkpt>
      <trkpt lat="45.60133" lon="6.62526">
        <ele>2144.72</ele>
        <time>2013-09-08T08:08:42.390Z</time>
      </trkpt>
      <trkpt lat="45.60142" lon="6.62533">
        <ele>2143.22</ele>
        <time>2013-09-08T08:08:45.390Z</time>
      </trkpt>
      <trkpt lat="45.60143" lon="6.62544">
        <ele>2138.44</ele>
        <time>2013-09-08T08:08:50.390Z</time>
      </trkpt>
      <trkpt lat="45.60134" lon="6.62551">
        <ele>2135.44</ele>
        <time>2013-09-08T08:08:53.390Z</time>
      </trkpt>
      <trkpt lat="45.60127" lon="6.62555">
        <ele>2133.44</ele>
        <time>2013-09-08T08:08:55.390Z</time>
      </trkpt>
      <trkpt lat="45.6012" lon="6.62556">
        <ele>2132.064</ele>
        <time>2013-09-08T08:08:57.390Z</time>
      </trkpt>
      <trkpt lat="45.60108" lon="6.62556">
        <ele>2129.664</ele>
        <time>2013-09-08T08:09:01.390Z</time>
      </trkpt>
      <trkpt lat="45.60099" lon="6.62562">
        <ele>2127.264</ele>
        <time>2013-09-08T08:09:05.390Z</time>
      </trkpt>
      <trkpt lat="45.60089" lon="6.62571">
        <ele>2125.22</ele>
        <time>2013-09-08T08:09:09.390Z</time>
      </trkpt>
      <trkpt lat="45.60079" lon="6.62579">
        <ele>2123.22</ele>
        <time>2013-09-08T08:09:13.390Z</time>
      </trkpt>
      <trkpt lat="45.60068" lon="6.62583">
        <ele>2121.22</ele>
        <time>2013-09-08T08:09:17.390Z</time>
      </trkpt>
      <trkpt lat="45.60058" lon="6.62589">
        <ele>2119.22</ele>
        <time>2013-09-08T08:09:21.390Z</time>
      </trkpt>
      <trkpt lat="45.60047" lon="6.62595">
        <ele>2117.22</ele>
        <time>2013-09-08T08:09:25.390Z</time>
      </trkpt>
      <trkpt lat="45.60037" lon="6.62596">
        <ele>2112.732266368</ele>
        <time>2013-09-08T08:09:29.390Z</time>
      </trkpt>
      <trkpt lat="45.60027" lon="6.62596">
        <ele>2106.7382584578</ele>
        <time>2013-09-08T08:09:34.390Z</time>
      </trkpt>
      <trkpt lat="45.6002" lon="6.62595">
        <ele>2103.2552580564</ele>
        <time>2013-09-08T08:09:38.330Z</time>
      </trkpt>
      <trkpt lat="45.60008" lon="6.62593">
        <ele>2099.0510551989</ele>
        <time>2013-09-08T08:09:44.330Z</time>
      </trkpt>
      <trkpt lat="45.59997" lon="6.62589">
        <ele>2095.508</ele>
        <time>2013-09-08T08:09:49.390Z</time>
      </trkpt>
      <trkpt lat="45.59986" lon="6.62585">
        <ele>2092.008</ele>
        <time>2013-09-08T08:09:54.390Z</time>
      </trkpt>
      <trkpt lat="45.59975" lon="6.62588">
        <ele>2090.288</ele>
        <time>2013-09-08T08:09:59.390Z</time>
      </trkpt>
      <trkpt lat="45.59963" lon="6.62588">
        <ele>2089.288</ele>
        <time>2013-09-08T08:10:04.390Z</time>
      </trkpt>
      <trkpt lat="45.59953" lon="6.62585">
        <ele>2088.232</ele>
        <time>2013-09-08T08:10:08.390Z</time>
      </trkpt>
      <trkpt lat="45.59944" lon="6.62578">
        <ele>2087.032</ele>
        <time>2013-09-08T08:10:12.390Z</time>
      </trkpt>
      <trkpt lat="45.59936" lon="6.62569">
        <ele>2085.498507303</ele>
        <time>2013-09-08T08:10:16.390Z</time>
      </trkpt>
      <trkpt lat="45.59927" lon="6.62558">
        <ele>2081.020893937</ele>
        <time>2013-09-08T08:10:21.390Z</time>
      </trkpt>
      <trkpt lat="45.59919" lon="6.62569">
        <ele>2076.6834194385</ele>
        <time>2013-09-08T08:10:26.330Z</time>
      </trkpt>
      <trkpt lat="45.59914" lon="6.62581">
        <ele>2073.8693499918</ele>
        <time>2013-09-08T08:10:30.330Z</time>
      </trkpt>
      <trkpt lat="45.59907" lon="6.62592">
        <ele>2071.055280545</ele>
        <time>2013-09-08T08:10:34.330Z</time>
      </trkpt>
      <trkpt lat="45.59898" lon="6.62601">
        <ele>2068.50000384</ele>
        <time>2013-09-08T08:10:38.330Z</time>
      </trkpt>
      <trkpt lat="45.59886" lon="6.62605">
        <ele>2066.10000384</ele>
        <time>2013-09-08T08:10:42.330Z</time>
      </trkpt>
      <trkpt lat="45.59876" lon="6.62612">
        <ele>2063.2500032</ele>
        <time>2013-09-08T08:10:47.330Z</time>
      </trkpt>
      <trkpt lat="45.59867" lon="6.6262">
        <ele>2061.2500032</ele>
        <time>2013-09-08T08:10:51.330Z</time>
      </trkpt>
      <trkpt lat="45.59856" lon="6.62629">
        <ele>2059.2500032</ele>
        <time>2013-09-08T08:10:55.330Z</time>
      </trkpt>
      <trkpt lat="45.59846" lon="6.62639">
        <ele>2057.932</ele>
        <time>2013-09-08T08:10:59.390Z</time>
      </trkpt>
      <trkpt lat="45.59839" lon="6.6265">
        <ele>2057.032</ele>
        <time>2013-09-08T08:11:02.390Z</time>
      </trkpt>
      <trkpt lat="45.5983" lon="6.62662">
        <ele>2056.056</ele>
        <time>2013-09-08T08:11:06.390Z</time>
      </trkpt>
      <trkpt lat="45.59821" lon="6.62674">
        <ele>2056.456</ele>
        <time>2013-09-08T08:11:10.390Z</time>
      </trkpt>
      <trkpt lat="45.59813" lon="6.62687">
        <ele>2056.856</ele>
        <time>2013-09-08T08:11:14.390Z</time>
      </trkpt>
      <trkpt lat="45.5981" lon="6.62704">
        <ele>2056.744</ele>
        <time>2013-09-08T08:11:18.390Z</time>
      </trkpt>
      <trkpt lat="45.59806" lon="6.62721">
        <ele>2056.344</ele>
        <time>2013-09-08T08:11:22.390Z</time>
      </trkpt>
      <trkpt lat="45.59802" lon="6.62735">
        <ele>2055.944</ele>
        <time>2013-09-08T08:11:26.390Z</time>
      </trkpt>
      <trkpt lat="45.59794" lon="6.62748">
        <ele>2055.544</ele>
        <time>2013-09-08T08:11:30.390Z</time>
      </trkpt>
      <trkpt lat="45.59786" lon="6.62758">
        <ele>2055.244</ele>
        <time>2013-09-08T08:11:33.390Z</time>
      </trkpt>
      <trkpt lat="45.59779" lon="6.62767">
        <ele>2054.7450048</ele>
        <time>2013-09-08T08:11:36.340Z</time>
      </trkpt>
      <trkpt lat="45.59772" lon="6.62778">
        <ele>2053.2500032</ele>
        <time>2013-09-08T08:11:39.330Z</time>
      </trkpt>
      <trkpt lat="45.59764" lon="6.62794">
        <ele>2051.2500032</ele>
        <time>2013-09-08T08:11:43.330Z</time>
      </trkpt>
      <trkpt lat="45.59761" lon="6.62808">
        <ele>2049.72</ele>
        <time>2013-09-08T08:11:46.390Z</time>
      </trkpt>
      <trkpt lat="45.59756" lon="6.62825">
        <ele>2047.72</ele>
        <time>2013-09-08T08:11:50.390Z</time>
      </trkpt>
      <trkpt lat="45.5975" lon="6.6284">
        <ele>2045.72</ele>
        <time>2013-09-08T08:11:54.390Z</time>
      </trkpt>
      <trkpt lat="45.59739" lon="6.62851">
        <ele>2044.232</ele>
        <time>2013-09-08T08:11:58.390Z</time>
      </trkpt>
      <trkpt lat="45.59731" lon="6.62861">
        <ele>2043.032</ele>
        <time>2013-09-08T08:12:02.390Z</time>
      </trkpt>
      <trkpt lat="45.59721" lon="6.62871">
        <ele>2041.688</ele>
        <time>2013-09-08T08:12:07.390Z</time>
      </trkpt>
      <trkpt lat="45.59713" lon="6.62881">
        <ele>2040.888</ele>
        <time>2013-09-08T08:12:11.390Z</time>
      </trkpt>
      <trkpt lat="45.59705" lon="6.6289">
        <ele>2040.088</ele>
        <time>2013-09-08T08:12:15.390Z</time>
      </trkpt>
      <trkpt lat="45.59697" lon="6.62901">
        <ele>2038.889110534</ele>
        <time>2013-09-08T08:12:21.390Z</time>
      </trkpt>
      <trkpt lat="45.59691" lon="6.62914">
        <ele>2037.8038051479</ele>
        <time>2013-09-08T08:12:26.330Z</time>
      </trkpt>
      <trkpt lat="45.59687" lon="6.6293">
        <ele>2035.8018037872</ele>
        <time>2013-09-08T08:12:31.330Z</time>
      </trkpt>
      <trkpt lat="45.59686" lon="6.62944">
        <ele>2033.95000064</ele>
        <time>2013-09-08T08:12:36.330Z</time>
      </trkpt>
      <trkpt lat="45.59684" lon="6.62959">
        <ele>2033.35000064</ele>
        <time>2013-09-08T08:12:42.330Z</time>
      </trkpt>
      <trkpt lat="45.59681" lon="6.62975">
        <ele>2033</ele>
        <time>2013-09-08T08:12:47.330Z</time>
      </trkpt>
      <trkpt lat="45.59678" lon="6.62989">
        <ele>2033</ele>
        <time>2013-09-08T08:12:52.330Z</time>
      </trkpt>
      <trkpt lat="45.59674" lon="6.63003">
        <ele>2033</ele>
        <time>2013-09-08T08:12:57.380Z</time>
      </trkpt>
      <trkpt lat="45.59671" lon="6.63014">
        <ele>2033</ele>
        <time>2013-09-08T08:13:01.380Z</time>
      </trkpt>
      <trkpt lat="45.59666" lon="6.63028">
        <ele>2033.1668321218</ele>
        <time>2013-09-08T08:13:06.390Z</time>
      </trkpt>
      <trkpt lat="45.59664" lon="6.6304">
        <ele>2034.3584901343</ele>
        <time>2013-09-08T08:13:10.390Z</time>
      </trkpt>
      <trkpt lat="45.59662" lon="6.63051">
        <ele>2035.5501481469</ele>
        <time>2013-09-08T08:13:14.390Z</time>
      </trkpt>
      <trkpt lat="45.5966" lon="6.63061">
        <ele>2036.4894242061</ele>
        <time>2013-09-08T08:13:18.330Z</time>
      </trkpt>
      <trkpt lat="45.59658" lon="6.6307">
        <ele>2037.093654008</ele>
        <time>2013-09-08T08:13:21.330Z</time>
      </trkpt>
      <trkpt lat="45.59654" lon="6.63077">
        <ele>2037.69788381</ele>
        <time>2013-09-08T08:13:24.330Z</time>
      </trkpt>
      <trkpt lat="45.59649" lon="6.63086">
        <ele>2038.248</ele>
        <time>2013-09-08T08:13:28.310Z</time>
      </trkpt>
      <trkpt lat="45.59646" lon="6.63094">
        <ele>2038.548</ele>
        <time>2013-09-08T08:13:31.310Z</time>
      </trkpt>
      <trkpt lat="45.59644" lon="6.63105">
        <ele>2038.948</ele>
        <time>2013-09-08T08:13:35.310Z</time>
      </trkpt>
      <trkpt lat="45.59644" lon="6.63115">
        <ele>2039.456</ele>
        <time>2013-09-08T08:13:40.390Z</time>
      </trkpt>
      <trkpt lat="45.59639" lon="6.63128">
        <ele>2040.04999936</ele>
        <time>2013-09-08T08:13:46.330Z</time>
      </trkpt>
      <trkpt lat="45.59636" lon="6.6314">
        <ele>2040.64</ele>
        <time>2013-09-08T08:13:52.230Z</time>
      </trkpt>
      <trkpt lat="45.59632" lon="6.63147">
        <ele>2041.29199872</ele>
        <time>2013-09-08T08:13:57.290Z</time>
      </trkpt>
      <trkpt lat="45.59628" lon="6.63153">
        <ele>2042.09199872</ele>
        <time>2013-09-08T08:14:01.290Z</time>
      </trkpt>
      <trkpt lat="45.59621" lon="6.63158">
        <ele>2042.89199872</ele>
        <time>2013-09-08T08:14:05.290Z</time>
      </trkpt>
      <trkpt lat="45.59615" lon="6.63168">
        <ele>2043.89199872</ele>
        <time>2013-09-08T08:14:10.290Z</time>
      </trkpt>
      <trkpt lat="45.59608" lon="6.63177">
        <ele>2044.89199872</ele>
        <time>2013-09-08T08:14:15.290Z</time>
      </trkpt>
      <trkpt lat="45.59602" lon="6.63188">
        <ele>2046.63799808</ele>
        <time>2013-09-08T08:14:21.290Z</time>
      </trkpt>
      <trkpt lat="45.59597" lon="6.63201">
        <ele>2048.08</ele>
        <time>2013-09-08T08:14:26.230Z</time>
      </trkpt>
      <trkpt lat="45.59592" lon="6.63211">
        <ele>2049.28</ele>
        <time>2013-09-08T08:14:32.230Z</time>
      </trkpt>
      <trkpt lat="45.59587" lon="6.6322">
        <ele>2050.34</ele>
        <time>2013-09-08T08:14:39.230Z</time>
      </trkpt>
      <trkpt lat="45.59582" lon="6.63228">
        <ele>2051.08999936</ele>
        <time>2013-09-08T08:14:46.280Z</time>
      </trkpt>
      <trkpt lat="45.59577" lon="6.63235">
        <ele>2052.28999936</ele>
        <time>2013-09-08T08:14:52.280Z</time>
      </trkpt>
      <trkpt lat="45.59571" lon="6.6324">
        <ele>2053.98399744</ele>
        <time>2013-09-08T08:14:58.290Z</time>
      </trkpt>
      <trkpt lat="45.59565" lon="6.63241">
        <ele>2055.98399744</ele>
        <time>2013-09-08T08:15:03.290Z</time>
      </trkpt>
      <trkpt lat="45.59558" lon="6.63243">
        <ele>2057.58399744</ele>
        <time>2013-09-08T08:15:07.290Z</time>
      </trkpt>
      <trkpt lat="45.59552" lon="6.63247">
        <ele>2059.18399744</ele>
        <time>2013-09-08T08:15:11.290Z</time>
      </trkpt>
      <trkpt lat="45.59544" lon="6.63255">
        <ele>2061.16</ele>
        <time>2013-09-08T08:15:16.230Z</time>
      </trkpt>
      <trkpt lat="45.59536" lon="6.63259">
        <ele>2062.76</ele>
        <time>2013-09-08T08:15:20.230Z</time>
      </trkpt>
      <trkpt lat="45.59528" lon="6.63263">
        <ele>2064.36</ele>
        <time>2013-09-08T08:15:24.230Z</time>
      </trkpt>
      <trkpt lat="45.59521" lon="6.6327">
        <ele>2065.24</ele>
        <time>2013-09-08T08:15:28.230Z</time>
      </trkpt>
      <trkpt lat="45.59513" lon="6.63271">
        <ele>2065.54</ele>
        <time>2013-09-08T08:15:31.230Z</time>
      </trkpt>
      <trkpt lat="45.59503" lon="6.63271">
        <ele>2065.94</ele>
        <time>2013-09-08T08:15:35.230Z</time>
      </trkpt>
      <trkpt lat="45.59496" lon="6.63277">
        <ele>2065.01600256</ele>
        <time>2013-09-08T08:15:38.290Z</time>
      </trkpt>
      <trkpt lat="45.59491" lon="6.63288">
        <ele>2063.81600256</ele>
        <time>2013-09-08T08:15:41.290Z</time>
      </trkpt>
      <trkpt lat="45.59487" lon="6.63295">
        <ele>2063.01600256</ele>
        <time>2013-09-08T08:15:43.290Z</time>
      </trkpt>
      <trkpt lat="45.5948" lon="6.63305">
        <ele>2061.5400064</ele>
        <time>2013-09-08T08:15:46.290Z</time>
      </trkpt>
      <trkpt lat="45.59472" lon="6.63312">
        <ele>2058.5400064</ele>
        <time>2013-09-08T08:15:49.290Z</time>
      </trkpt>
      <trkpt lat="45.59465" lon="6.63319">
        <ele>2054.5400064</ele>
        <time>2013-09-08T08:15:53.290Z</time>
      </trkpt>
      <trkpt lat="45.59463" lon="6.63328">
        <ele>2050.8378156697</ele>
        <time>2013-09-08T08:15:57.290Z</time>
      </trkpt>
      <trkpt lat="45.59461" lon="6.63336">
        <ele>2048.4497552079</ele>
        <time>2013-09-08T08:16:00.290Z</time>
      </trkpt>
      <trkpt lat="45.59454" lon="6.63346">
        <ele>2044.4696544381</ele>
        <time>2013-09-08T08:16:05.290Z</time>
      </trkpt>
      <trkpt lat="45.59443" lon="6.63348">
        <ele>2043.6633163696</ele>
        <time>2013-09-08T08:16:09.230Z</time>
      </trkpt>
      <trkpt lat="45.59433" lon="6.63354">
        <ele>2043.2613064486</ele>
        <time>2013-09-08T08:16:13.230Z</time>
      </trkpt>
      <trkpt lat="45.59426" lon="6.63361">
        <ele>2042.93400064</ele>
        <time>2013-09-08T08:16:16.160Z</time>
      </trkpt>
      <trkpt lat="45.59419" lon="6.63366">
        <ele>2042.33400064</ele>
        <time>2013-09-08T08:16:19.160Z</time>
      </trkpt>
      <trkpt lat="45.59412" lon="6.63372">
        <ele>2041.73400064</ele>
        <time>2013-09-08T08:16:22.160Z</time>
      </trkpt>
      <trkpt lat="45.59405" lon="6.63377">
        <ele>2041.13200128</ele>
        <time>2013-09-08T08:16:25.170Z</time>
      </trkpt>
      <trkpt lat="45.59396" lon="6.63386">
        <ele>2041</ele>
        <time>2013-09-08T08:16:29.290Z</time>
      </trkpt>
      <trkpt lat="45.59389" lon="6.6339">
        <ele>2041</ele>
        <time>2013-09-08T08:16:32.290Z</time>
      </trkpt>
      <trkpt lat="45.59382" lon="6.63394">
        <ele>2041</ele>
        <time>2013-09-08T08:16:35.290Z</time>
      </trkpt>
      <trkpt lat="45.59373" lon="6.63395">
        <ele>2040.52400128</ele>
        <time>2013-09-08T08:16:38.210Z</time>
      </trkpt>
      <trkpt lat="45.59364" lon="6.63393">
        <ele>2039.92400128</ele>
        <time>2013-09-08T08:16:41.210Z</time>
      </trkpt>
      <trkpt lat="45.59358" lon="6.6339">
        <ele>2039.52400128</ele>
        <time>2013-09-08T08:16:43.210Z</time>
      </trkpt>
      <trkpt lat="45.59351" lon="6.63387">
        <ele>2039.12400128</ele>
        <time>2013-09-08T08:16:45.210Z</time>
      </trkpt>
      <trkpt lat="45.59339" lon="6.63384">
        <ele>2038.30800128</ele>
        <time>2013-09-08T08:16:49.290Z</time>
      </trkpt>
      <trkpt lat="45.59329" lon="6.63383">
        <ele>2037.70800128</ele>
        <time>2013-09-08T08:16:52.290Z</time>
      </trkpt>
      <trkpt lat="45.59318" lon="6.6338">
        <ele>2036.86200192</ele>
        <time>2013-09-08T08:16:56.290Z</time>
      </trkpt>
      <trkpt lat="45.59307" lon="6.63375">
        <ele>2035.66200192</ele>
        <time>2013-09-08T08:17:00.290Z</time>
      </trkpt>
      <trkpt lat="45.59301" lon="6.6337">
        <ele>2034.76200192</ele>
        <time>2013-09-08T08:17:03.290Z</time>
      </trkpt>
      <trkpt lat="45.59292" lon="6.63362">
        <ele>2033.26500096</ele>
        <time>2013-09-08T08:17:08.280Z</time>
      </trkpt>
      <trkpt lat="45.59285" lon="6.63351">
        <ele>2032.06500096</ele>
        <time>2013-09-08T08:17:12.280Z</time>
      </trkpt>
      <trkpt lat="45.59279" lon="6.63336">
        <ele>2029.88</ele>
        <time>2013-09-08T08:17:17.230Z</time>
      </trkpt>
      <trkpt lat="45.59275" lon="6.63321">
        <ele>2025.88</ele>
        <time>2013-09-08T08:17:22.230Z</time>
      </trkpt>
      <trkpt lat="45.5927" lon="6.63307">
        <ele>2022.95400064</ele>
        <time>2013-09-08T08:17:26.290Z</time>
      </trkpt>
      <trkpt lat="45.59265" lon="6.63292">
        <ele>2022.55400064</ele>
        <time>2013-09-08T08:17:30.290Z</time>
      </trkpt>
      <trkpt lat="45.59259" lon="6.63279">
        <ele>2022.15400064</ele>
        <time>2013-09-08T08:17:34.290Z</time>
      </trkpt>
      <trkpt lat="45.59253" lon="6.63266">
        <ele>2021.26200192</ele>
        <time>2013-09-08T08:17:38.290Z</time>
      </trkpt>
      <trkpt lat="45.59246" lon="6.63252">
        <ele>2019.76200192</ele>
        <time>2013-09-08T08:17:43.290Z</time>
      </trkpt>
      <trkpt lat="45.59239" lon="6.63238">
        <ele>2018.01600256</ele>
        <time>2013-09-08T08:17:48.290Z</time>
      </trkpt>
      <trkpt lat="45.59234" lon="6.63224">
        <ele>2016.01600256</ele>
        <time>2013-09-08T08:17:53.290Z</time>
      </trkpt>
      <trkpt lat="45.59228" lon="6.63211">
        <ele>2014.75400064</ele>
        <time>2013-09-08T08:17:58.290Z</time>
      </trkpt>
      <trkpt lat="45.59221" lon="6.63198">
        <ele>2014.35400064</ele>
        <time>2013-09-08T08:18:02.290Z</time>
      </trkpt>
      <trkpt lat="45.59213" lon="6.63187">
        <ele>2014</ele>
        <time>2013-09-08T08:18:06.230Z</time>
      </trkpt>
      <trkpt lat="45.59207" lon="6.63172">
        <ele>2014</ele>
        <time>2013-09-08T08:18:11.230Z</time>
      </trkpt>
      <trkpt lat="45.59202" lon="6.63159">
        <ele>2014</ele>
        <time>2013-09-08T08:18:15.230Z</time>
      </trkpt>
      <trkpt lat="45.59195" lon="6.63145">
        <ele>2012.9639652568</ele>
        <time>2013-09-08T08:18:19.290Z</time>
      </trkpt>
      <trkpt lat="45.59187" lon="6.63133">
        <ele>2011.7627644404</ele>
        <time>2013-09-08T08:18:23.290Z</time>
      </trkpt>
      <trkpt lat="45.5918" lon="6.6312">
        <ele>2010.41600256</ele>
        <time>2013-09-08T08:18:27.290Z</time>
      </trkpt>
      <trkpt lat="45.59172" lon="6.63109">
        <ele>2008.81600256</ele>
        <time>2013-09-08T08:18:31.290Z</time>
      </trkpt>
      <trkpt lat="45.59162" lon="6.631">
        <ele>2007.21600256</ele>
        <time>2013-09-08T08:18:35.290Z</time>
      </trkpt>
      <trkpt lat="45.59155" lon="6.63086">
        <ele>2005.61600256</ele>
        <time>2013-09-08T08:18:39.290Z</time>
      </trkpt>
      <trkpt lat="45.5915" lon="6.63072">
        <ele>2004.01600256</ele>
        <time>2013-09-08T08:18:43.290Z</time>
      </trkpt>
      <trkpt lat="45.59142" lon="6.63059">
        <ele>2002.5641808762</ele>
        <time>2013-09-08T08:18:47.290Z</time>
      </trkpt>
      <trkpt lat="45.59132" lon="6.63047">
        <ele>2001.3701506452</ele>
        <time>2013-09-08T08:18:51.290Z</time>
      </trkpt>
      <trkpt lat="45.59123" lon="6.63036">
        <ele>2000.1761204143</ele>
        <time>2013-09-08T08:18:55.290Z</time>
      </trkpt>
      <trkpt lat="45.59115" lon="6.6305">
        <ele>1997.3768833361</ele>
        <time>2013-09-08T08:19:00.230Z</time>
      </trkpt>
      <trkpt lat="45.59117" lon="6.63064">
        <ele>1995.5678386918</ele>
        <time>2013-09-08T08:19:03.230Z</time>
      </trkpt>
      <trkpt lat="45.59114" lon="6.63082">
        <ele>1993.02</ele>
        <time>2013-09-08T08:19:07.230Z</time>
      </trkpt>
      <trkpt lat="45.59115" lon="6.63099">
        <ele>1990.22</ele>
        <time>2013-09-08T08:19:11.230Z</time>
      </trkpt>
      <trkpt lat="45.59117" lon="6.63115">
        <ele>1987.42</ele>
        <time>2013-09-08T08:19:15.230Z</time>
      </trkpt>
      <trkpt lat="45.59118" lon="6.6313">
        <ele>1985.61600256</ele>
        <time>2013-09-08T08:19:19.290Z</time>
      </trkpt>
      <trkpt lat="45.5912" lon="6.63144">
        <ele>1983.61600256</ele>
        <time>2013-09-08T08:19:24.290Z</time>
      </trkpt>
      <trkpt lat="45.59126" lon="6.63158">
        <ele>1982.01600256</ele>
        <time>2013-09-08T08:19:28.290Z</time>
      </trkpt>
      <trkpt lat="45.59131" lon="6.63172">
        <ele>1980.41600256</ele>
        <time>2013-09-08T08:19:32.290Z</time>
      </trkpt>
      <trkpt lat="45.59137" lon="6.63187">
        <ele>1978.81600256</ele>
        <time>2013-09-08T08:19:36.290Z</time>
      </trkpt>
      <trkpt lat="45.59141" lon="6.63203">
        <ele>1977.21600256</ele>
        <time>2013-09-08T08:19:40.290Z</time>
      </trkpt>
      <trkpt lat="45.59143" lon="6.63219">
        <ele>1975.61600256</ele>
        <time>2013-09-08T08:19:44.290Z</time>
      </trkpt>
      <trkpt lat="45.59149" lon="6.63234">
        <ele>1973.7700032</ele>
        <time>2013-09-08T08:19:48.290Z</time>
      </trkpt>
      <trkpt lat="45.59146" lon="6.63249">
        <ele>1971.7700032</ele>
        <time>2013-09-08T08:19:52.290Z</time>
      </trkpt>
      <trkpt lat="45.59133" lon="6.63253">
        <ele>1969.58600576</ele>
        <time>2013-09-08T08:19:56.290Z</time>
      </trkpt>
      <trkpt lat="45.59121" lon="6.63244">
        <ele>1965.98600576</ele>
        <time>2013-09-08T08:20:00.290Z</time>
      </trkpt>
      <trkpt lat="45.59112" lon="6.63236">
        <ele>1963.28600576</ele>
        <time>2013-09-08T08:20:03.290Z</time>
      </trkpt>
      <trkpt lat="45.59104" lon="6.63226">
        <ele>1960.88600192</ele>
        <time>2013-09-08T08:20:06.210Z</time>
      </trkpt>
      <trkpt lat="45.59095" lon="6.63219">
        <ele>1959.68600192</ele>
        <time>2013-09-08T08:20:10.210Z</time>
      </trkpt>
      <trkpt lat="45.59084" lon="6.63212">
        <ele>1958.18600192</ele>
        <time>2013-09-08T08:20:15.210Z</time>
      </trkpt>
      <trkpt lat="45.59074" lon="6.63204">
        <ele>1956.61600256</ele>
        <time>2013-09-08T08:20:19.290Z</time>
      </trkpt>
      <trkpt lat="45.59061" lon="6.63201">
        <ele>1955.01600256</ele>
        <time>2013-09-08T08:20:23.290Z</time>
      </trkpt>
      <trkpt lat="45.59049" lon="6.63205">
        <ele>1953.41600256</ele>
        <time>2013-09-08T08:20:27.290Z</time>
      </trkpt>
      <trkpt lat="45.59041" lon="6.63213">
        <ele>1951.81600256</ele>
        <time>2013-09-08T08:20:31.290Z</time>
      </trkpt>
      <trkpt lat="45.59034" lon="6.63224">
        <ele>1950.21600256</ele>
        <time>2013-09-08T08:20:35.290Z</time>
      </trkpt>
      <trkpt lat="45.59027" lon="6.63236">
        <ele>1948.61600256</ele>
        <time>2013-09-08T08:20:39.290Z</time>
      </trkpt>
      <trkpt lat="45.59017" lon="6.6324">
        <ele>1947.01600256</ele>
        <time>2013-09-08T08:20:43.290Z</time>
      </trkpt>
      <trkpt lat="45.59007" lon="6.63243">
        <ele>1945.86200064</ele>
        <time>2013-09-08T08:20:47.210Z</time>
      </trkpt>
      <trkpt lat="45.58999" lon="6.63252">
        <ele>1945.36200064</ele>
        <time>2013-09-08T08:20:52.210Z</time>
      </trkpt>
      <trkpt lat="45.58994" lon="6.63265">
        <ele>1944.96</ele>
        <time>2013-09-08T08:20:56.230Z</time>
      </trkpt>
      <trkpt lat="45.58985" lon="6.63277">
        <ele>1944.46</ele>
        <time>2013-09-08T08:21:01.230Z</time>
      </trkpt>
      <trkpt lat="45.58976" lon="6.63282">
        <ele>1944.06</ele>
        <time>2013-09-08T08:21:05.230Z</time>
      </trkpt>
      <trkpt lat="45.58969" lon="6.63293">
        <ele>1943.30800128</ele>
        <time>2013-09-08T08:21:09.290Z</time>
      </trkpt>
      <trkpt lat="45.58966" lon="6.63309">
        <ele>1942.50800128</ele>
        <time>2013-09-08T08:21:13.290Z</time>
      </trkpt>
      <trkpt lat="45.58962" lon="6.63323">
        <ele>1941.65400064</ele>
        <time>2013-09-08T08:21:19.290Z</time>
      </trkpt>
      <trkpt lat="45.58953" lon="6.63334">
        <ele>1941</ele>
        <time>2013-09-08T08:21:35.230Z</time>
      </trkpt>
      <trkpt lat="45.58944" lon="6.63341">
        <ele>1941.6831681161</ele>
        <time>2013-09-08T08:21:39.290Z</time>
      </trkpt>
      <trkpt lat="45.58934" lon="6.63346">
        <ele>1942.4752478259</ele>
        <time>2013-09-08T08:21:43.290Z</time>
      </trkpt>
      <trkpt lat="45.58925" lon="6.63351">
        <ele>1942.7189076136</ele>
        <time>2013-09-08T08:21:47.330Z</time>
      </trkpt>
      <trkpt lat="45.58912" lon="6.63346">
        <ele>1941.7077862493</ele>
        <time>2013-09-08T08:21:52.330Z</time>
      </trkpt>
      <trkpt lat="45.58902" lon="6.63336">
        <ele>1940.85000192</ele>
        <time>2013-09-08T08:21:56.330Z</time>
      </trkpt>
      <trkpt lat="45.58891" lon="6.63329">
        <ele>1939.65000192</ele>
        <time>2013-09-08T08:22:00.330Z</time>
      </trkpt>
      <trkpt lat="45.58881" lon="6.63324">
        <ele>1938.45000192</ele>
        <time>2013-09-08T08:22:04.330Z</time>
      </trkpt>
      <trkpt lat="45.58871" lon="6.63327">
        <ele>1938</ele>
        <time>2013-09-08T08:22:08.390Z</time>
      </trkpt>
      <trkpt lat="45.58865" lon="6.6334">
        <ele>1938</ele>
        <time>2013-09-08T08:22:12.390Z</time>
      </trkpt>
      <trkpt lat="45.58859" lon="6.63355">
        <ele>1937.91400192</ele>
        <time>2013-09-08T08:22:16.260Z</time>
      </trkpt>
      <trkpt lat="45.58852" lon="6.63366">
        <ele>1937.11400192</ele>
        <time>2013-09-08T08:22:20.260Z</time>
      </trkpt>
      <trkpt lat="45.58845" lon="6.63377">
        <ele>1936.31400192</ele>
        <time>2013-09-08T08:22:24.260Z</time>
      </trkpt>
      <trkpt lat="45.58841" lon="6.63391">
        <ele>1936.356</ele>
        <time>2013-09-08T08:22:29.390Z</time>
      </trkpt>
      <trkpt lat="45.58837" lon="6.63406">
        <ele>1936.856</ele>
        <time>2013-09-08T08:22:34.390Z</time>
      </trkpt>
      <trkpt lat="45.58828" lon="6.63416">
        <ele>1938.368</ele>
        <time>2013-09-08T08:22:40.390Z</time>
      </trkpt>
      <trkpt lat="45.58817" lon="6.63411">
        <ele>1939.868</ele>
        <time>2013-09-08T08:22:45.390Z</time>
      </trkpt>
      <trkpt lat="45.58806" lon="6.63409">
        <ele>1940.556</ele>
        <time>2013-09-08T08:22:51.390Z</time>
      </trkpt>
      <trkpt lat="45.58794" lon="6.6341">
        <ele>1940.95000064</ele>
        <time>2013-09-08T08:22:56.330Z</time>
      </trkpt>
      <trkpt lat="45.5879" lon="6.63416">
        <ele>1940.75000064</ele>
        <time>2013-09-08T08:22:58.330Z</time>
      </trkpt>
      <trkpt lat="45.58786" lon="6.63421">
        <ele>1940.55000064</ele>
        <time>2013-09-08T08:23:00.330Z</time>
      </trkpt>
      <trkpt lat="45.58781" lon="6.6343">
        <ele>1940.25000064</ele>
        <time>2013-09-08T08:23:03.330Z</time>
      </trkpt>
      <trkpt lat="45.58778" lon="6.63441">
        <ele>1940.056</ele>
        <time>2013-09-08T08:23:06.390Z</time>
      </trkpt>
      <trkpt lat="45.58774" lon="6.63455">
        <ele>1940.456</ele>
        <time>2013-09-08T08:23:10.390Z</time>
      </trkpt>
      <trkpt lat="45.58771" lon="6.63467">
        <ele>1940.856</ele>
        <time>2013-09-08T08:23:14.390Z</time>
      </trkpt>
      <trkpt lat="45.58768" lon="6.6348">
        <ele>1940.744</ele>
        <time>2013-09-08T08:23:18.390Z</time>
      </trkpt>
      <trkpt lat="45.58764" lon="6.63489">
        <ele>1940.444</ele>
        <time>2013-09-08T08:23:21.390Z</time>
      </trkpt>
      <trkpt lat="45.5876" lon="6.63497">
        <ele>1940.044</ele>
        <time>2013-09-08T08:23:25.390Z</time>
      </trkpt>
      <trkpt lat="45.58757" lon="6.63506">
        <ele>1941.7497491893</ele>
        <time>2013-09-08T08:23:43.330Z</time>
      </trkpt>
      <trkpt lat="45.58753" lon="6.63516">
        <ele>1942.28</ele>
        <time>2013-09-08T08:23:47.230Z</time>
      </trkpt>
      <trkpt lat="45.58752" lon="6.63525">
        <ele>1942.88</ele>
        <time>2013-09-08T08:23:50.230Z</time>
      </trkpt>
      <trkpt lat="45.58749" lon="6.63538">
        <ele>1943.68</ele>
        <time>2013-09-08T08:23:54.230Z</time>
      </trkpt>
      <trkpt lat="45.58745" lon="6.63548">
        <ele>1944.47599872</ele>
        <time>2013-09-08T08:23:58.210Z</time>
      </trkpt>
      <trkpt lat="45.5874" lon="6.63557">
        <ele>1945.47599872</ele>
        <time>2013-09-08T08:24:03.210Z</time>
      </trkpt>
      <trkpt lat="45.58735" lon="6.63568">
        <ele>1947.03799808</ele>
        <time>2013-09-08T08:24:09.290Z</time>
      </trkpt>
      <trkpt lat="45.5873" lon="6.63578">
        <ele>1948.53799808</ele>
        <time>2013-09-08T08:24:14.290Z</time>
      </trkpt>
      <trkpt lat="45.58727" lon="6.63591">
        <ele>1950.63799808</ele>
        <time>2013-09-08T08:24:21.290Z</time>
      </trkpt>
      <trkpt lat="45.58725" lon="6.63604">
        <ele>1952.2450192829</ele>
        <time>2013-09-08T08:24:28.290Z</time>
      </trkpt>
      <trkpt lat="45.58719" lon="6.63615">
        <ele>1953.4186756627</ele>
        <time>2013-09-08T08:24:37.260Z</time>
      </trkpt>
      <trkpt lat="45.58713" lon="6.63625">
        <ele>1955.5271055422</ele>
        <time>2013-09-08T08:24:44.260Z</time>
      </trkpt>
      <trkpt lat="45.58705" lon="6.63628">
        <ele>1959.2499968</ele>
        <time>2013-09-08T08:24:52.330Z</time>
      </trkpt>
      <trkpt lat="45.587" lon="6.63641">
        <ele>1962.668</ele>
        <time>2013-09-08T08:25:01.390Z</time>
      </trkpt>
      <trkpt lat="45.58701" lon="6.63652">
        <ele>1963.868</ele>
        <time>2013-09-08T08:25:05.390Z</time>
      </trkpt>
      <trkpt lat="45.58704" lon="6.63664">
        <ele>1964.712</ele>
        <time>2013-09-08T08:25:09.390Z</time>
      </trkpt>
      <trkpt lat="45.58707" lon="6.63676">
        <ele>1965.512</ele>
        <time>2013-09-08T08:25:13.390Z</time>
      </trkpt>
      <trkpt lat="45.58713" lon="6.63691">
        <ele>1966.256</ele>
        <time>2013-09-08T08:25:18.390Z</time>
      </trkpt>
      <trkpt lat="45.58716" lon="6.63706">
        <ele>1966.656</ele>
        <time>2013-09-08T08:25:22.390Z</time>
      </trkpt>
      <trkpt lat="45.58713" lon="6.63718">
        <ele>1967</ele>
        <time>2013-09-08T08:25:26.390Z</time>
      </trkpt>
      <trkpt lat="45.58708" lon="6.63731">
        <ele>1967</ele>
        <time>2013-09-08T08:25:31.390Z</time>
      </trkpt>
      <trkpt lat="45.58701" lon="6.63738">
        <ele>1967</ele>
        <time>2013-09-08T08:25:35.390Z</time>
      </trkpt>
      <trkpt lat="45.58692" lon="6.63748">
        <ele>1967</ele>
        <time>2013-09-08T08:25:40.390Z</time>
      </trkpt>
      <trkpt lat="45.58684" lon="6.63759">
        <ele>1967</ele>
        <time>2013-09-08T08:25:44.390Z</time>
      </trkpt>
      <trkpt lat="45.58677" lon="6.63765">
        <ele>1967</ele>
        <time>2013-09-08T08:25:48.330Z</time>
      </trkpt>
      <trkpt lat="45.58672" lon="6.63771">
        <ele>1967</ele>
        <time>2013-09-08T08:25:54.330Z</time>
      </trkpt>
      <trkpt lat="45.58667" lon="6.63781">
        <ele>1966</ele>
        <time>2013-09-08T08:26:37.260Z</time>
      </trkpt>
      <trkpt lat="45.5866" lon="6.63795">
        <ele>1966</ele>
        <time>2013-09-08T08:26:40.260Z</time>
      </trkpt>
      <trkpt lat="45.58658" lon="6.6381">
        <ele>1966</ele>
        <time>2013-09-08T08:26:44.260Z</time>
      </trkpt>
      <trkpt lat="45.58662" lon="6.63824">
        <ele>1964.2500032</ele>
        <time>2013-09-08T08:26:49.330Z</time>
      </trkpt>
      <trkpt lat="45.58667" lon="6.63839">
        <ele>1961.2500032</ele>
        <time>2013-09-08T08:26:55.330Z</time>
      </trkpt>
      <trkpt lat="45.58667" lon="6.63854">
        <ele>1957.44</ele>
        <time>2013-09-08T08:26:59.390Z</time>
      </trkpt>
      <trkpt lat="45.58667" lon="6.63869">
        <ele>1953.44</ele>
        <time>2013-09-08T08:27:03.390Z</time>
      </trkpt>
      <trkpt lat="45.58669" lon="6.63884">
        <ele>1950.07000576</ele>
        <time>2013-09-08T08:27:07.380Z</time>
      </trkpt>
      <trkpt lat="45.58671" lon="6.63902">
        <ele>1947.67000576</ele>
        <time>2013-09-08T08:27:11.380Z</time>
      </trkpt>
      <trkpt lat="45.58668" lon="6.63918">
        <ele>1945.27000576</ele>
        <time>2013-09-08T08:27:15.380Z</time>
      </trkpt>
      <trkpt lat="45.58678" lon="6.63915">
        <ele>1940.4399220052</ele>
        <time>2013-09-08T08:27:22.390Z</time>
      </trkpt>
      <trkpt lat="45.58685" lon="6.63905">
        <ele>1937.956697831</ele>
        <time>2013-09-08T08:27:26.330Z</time>
      </trkpt>
      <trkpt lat="45.58694" lon="6.63895">
        <ele>1937.553877963</ele>
        <time>2013-09-08T08:27:30.330Z</time>
      </trkpt>
      <trkpt lat="45.58695" lon="6.6391">
        <ele>1936.25000192</ele>
        <time>2013-09-08T08:27:38.330Z</time>
      </trkpt>
      <trkpt lat="45.58693" lon="6.63926">
        <ele>1934.75000192</ele>
        <time>2013-09-08T08:27:43.330Z</time>
      </trkpt>
      <trkpt lat="45.58691" lon="6.63942">
        <ele>1933.2500032</ele>
        <time>2013-09-08T08:27:47.330Z</time>
      </trkpt>
      <trkpt lat="45.58688" lon="6.63957">
        <ele>1931.2500032</ele>
        <time>2013-09-08T08:27:51.330Z</time>
      </trkpt>
      <trkpt lat="45.58698" lon="6.63965">
        <ele>1926.75000576</ele>
        <time>2013-09-08T08:27:58.330Z</time>
      </trkpt>
      <trkpt lat="45.58708" lon="6.63959">
        <ele>1920.45000576</ele>
        <time>2013-09-08T08:28:05.330Z</time>
      </trkpt>
      <trkpt lat="45.58719" lon="6.63956">
        <ele>1918.032</ele>
        <time>2013-09-08T08:28:12.390Z</time>
      </trkpt>
      <trkpt lat="45.5873" lon="6.63947">
        <ele>1915.596</ele>
        <time>2013-09-08T08:28:17.390Z</time>
      </trkpt>
      <trkpt lat="45.5874" lon="6.63938">
        <ele>1911.096</ele>
        <time>2013-09-08T08:28:22.390Z</time>
      </trkpt>
      <trkpt lat="45.58749" lon="6.63945">
        <ele>1907.064</ele>
        <time>2013-09-08T08:28:27.390Z</time>
      </trkpt>
      <trkpt lat="45.58751" lon="6.6396">
        <ele>1904.664</ele>
        <time>2013-09-08T08:28:31.390Z</time>
      </trkpt>
      <trkpt lat="45.58752" lon="6.63976">
        <ele>1902.264</ele>
        <time>2013-09-08T08:28:35.390Z</time>
      </trkpt>
      <trkpt lat="45.58762" lon="6.63972">
        <ele>1896.752</ele>
        <time>2013-09-08T08:28:42.390Z</time>
      </trkpt>
      <trkpt lat="45.58771" lon="6.63959">
        <ele>1893.70000384</ele>
        <time>2013-09-08T08:28:46.330Z</time>
      </trkpt>
      <trkpt lat="45.58778" lon="6.63948">
        <ele>1891.90000384</ele>
        <time>2013-09-08T08:28:49.330Z</time>
      </trkpt>
      <trkpt lat="45.58786" lon="6.63934">
        <ele>1889.50000384</ele>
        <time>2013-09-08T08:28:53.330Z</time>
      </trkpt>
      <trkpt lat="45.58792" lon="6.63922">
        <ele>1887.832</ele>
        <time>2013-09-08T08:28:56.390Z</time>
      </trkpt>
      <trkpt lat="45.58799" lon="6.63909">
        <ele>1886.632</ele>
        <time>2013-09-08T08:29:00.390Z</time>
      </trkpt>
      <trkpt lat="45.58805" lon="6.63897">
        <ele>1885.432</ele>
        <time>2013-09-08T08:29:04.390Z</time>
      </trkpt>
      <trkpt lat="45.58813" lon="6.63906">
        <ele>1883.976</ele>
        <time>2013-09-08T08:29:08.390Z</time>
      </trkpt>
      <trkpt lat="45.58814" lon="6.63923">
        <ele>1882.77200128</ele>
        <time>2013-09-08T08:29:11.400Z</time>
      </trkpt>
      <trkpt lat="45.58817" lon="6.63937">
        <ele>1881.576</ele>
        <time>2013-09-08T08:29:14.390Z</time>
      </trkpt>
      <trkpt lat="45.5882" lon="6.63952">
        <ele>1878.184</ele>
        <time>2013-09-08T08:29:18.390Z</time>
      </trkpt>
      <trkpt lat="45.58823" lon="6.63967">
        <ele>1873.784</ele>
        <time>2013-09-08T08:29:22.390Z</time>
      </trkpt>
      <trkpt lat="45.58826" lon="6.63983">
        <ele>1869.60000512</ele>
        <time>2013-09-08T08:29:26.330Z</time>
      </trkpt>
      <trkpt lat="45.58829" lon="6.63998">
        <ele>1866.40000512</ele>
        <time>2013-09-08T08:29:30.330Z</time>
      </trkpt>
      <trkpt lat="45.58835" lon="6.6401">
        <ele>1863.20000512</ele>
        <time>2013-09-08T08:29:34.330Z</time>
      </trkpt>
      <trkpt lat="45.58845" lon="6.64001">
        <ele>1859.40000256</ele>
        <time>2013-09-08T08:29:42.330Z</time>
      </trkpt>
      <trkpt lat="45.5885" lon="6.63987">
        <ele>1858.20000256</ele>
        <time>2013-09-08T08:29:45.330Z</time>
      </trkpt>
      <trkpt lat="45.58856" lon="6.63972">
        <ele>1857.744</ele>
        <time>2013-09-08T08:29:48.390Z</time>
      </trkpt>
      <trkpt lat="45.5886" lon="6.63958">
        <ele>1857.444</ele>
        <time>2013-09-08T08:29:51.390Z</time>
      </trkpt>
      <trkpt lat="45.58866" lon="6.63946">
        <ele>1857.044</ele>
        <time>2013-09-08T08:29:55.390Z</time>
      </trkpt>
      <trkpt lat="45.58878" lon="6.63945">
        <ele>1854.76</ele>
        <time>2013-09-08T08:30:01.430Z</time>
      </trkpt>
      <trkpt lat="45.58887" lon="6.63956">
        <ele>1852.6122647159</ele>
        <time>2013-09-08T08:30:06.390Z</time>
      </trkpt>
      <trkpt lat="45.5889" lon="6.63972">
        <ele>1849.8427269723</ele>
        <time>2013-09-08T08:30:10.390Z</time>
      </trkpt>
      <trkpt lat="45.58891" lon="6.63991">
        <ele>1847.0731892287</ele>
        <time>2013-09-08T08:30:14.390Z</time>
      </trkpt>
      <trkpt lat="45.58889" lon="6.64007">
        <ele>1845.4782574933</ele>
        <time>2013-09-08T08:30:17.230Z</time>
      </trkpt>
      <trkpt lat="45.58889" lon="6.64021">
        <ele>1844.2649118561</ele>
        <time>2013-09-08T08:30:20.230Z</time>
      </trkpt>
      <trkpt lat="45.58888" lon="6.64036">
        <ele>1843.0515662189</ele>
        <time>2013-09-08T08:30:23.230Z</time>
      </trkpt>
      <trkpt lat="45.58888" lon="6.6405">
        <ele>1841.8</ele>
        <time>2013-09-08T08:30:26.230Z</time>
      </trkpt>
      <trkpt lat="45.5889" lon="6.64069">
        <ele>1839.8</ele>
        <time>2013-09-08T08:30:30.230Z</time>
      </trkpt>
      <trkpt lat="45.58894" lon="6.64087">
        <ele>1837.8</ele>
        <time>2013-09-08T08:30:34.230Z</time>
      </trkpt>
      <trkpt lat="45.58895" lon="6.64105">
        <ele>1835.03200512</ele>
        <time>2013-09-08T08:30:38.290Z</time>
      </trkpt>
      <trkpt lat="45.58894" lon="6.6412">
        <ele>1832.63200512</ele>
        <time>2013-09-08T08:30:41.290Z</time>
      </trkpt>
      <trkpt lat="45.58894" lon="6.64134">
        <ele>1829.43200512</ele>
        <time>2013-09-08T08:30:45.290Z</time>
      </trkpt>
      <trkpt lat="45.58901" lon="6.64119">
        <ele>1826.57800448</ele>
        <time>2013-09-08T08:30:49.290Z</time>
      </trkpt>
      <trkpt lat="45.58907" lon="6.64104">
        <ele>1824.47800448</ele>
        <time>2013-09-08T08:30:52.290Z</time>
      </trkpt>
      <trkpt lat="45.58914" lon="6.64091">
        <ele>1822.37800448</ele>
        <time>2013-09-08T08:30:55.290Z</time>
      </trkpt>
      <trkpt lat="45.58924" lon="6.64097">
        <ele>1821.10800128</ele>
        <time>2013-09-08T08:31:00.290Z</time>
      </trkpt>
      <trkpt lat="45.58926" lon="6.64113">
        <ele>1820.50800128</ele>
        <time>2013-09-08T08:31:03.290Z</time>
      </trkpt>
      <trkpt lat="45.58929" lon="6.64131">
        <ele>1818.97800448</ele>
        <time>2013-09-08T08:31:07.290Z</time>
      </trkpt>
      <trkpt lat="45.58931" lon="6.64147">
        <ele>1816.87800448</ele>
        <time>2013-09-08T08:31:10.290Z</time>
      </trkpt>
      <trkpt lat="45.58934" lon="6.64161">
        <ele>1814.77800448</ele>
        <time>2013-09-08T08:31:13.290Z</time>
      </trkpt>
      <trkpt lat="45.58937" lon="6.64176">
        <ele>1812.63200512</ele>
        <time>2013-09-08T08:31:16.290Z</time>
      </trkpt>
      <trkpt lat="45.5894" lon="6.6419">
        <ele>1810.23200512</ele>
        <time>2013-09-08T08:31:19.290Z</time>
      </trkpt>
      <trkpt lat="45.58941" lon="6.64205">
        <ele>1807.83200512</ele>
        <time>2013-09-08T08:31:22.290Z</time>
      </trkpt>
      <trkpt lat="45.5894" lon="6.6422">
        <ele>1805.43200512</ele>
        <time>2013-09-08T08:31:25.290Z</time>
      </trkpt>
      <trkpt lat="45.58938" lon="6.64238">
        <ele>1802.92400384</ele>
        <time>2013-09-08T08:31:29.290Z</time>
      </trkpt>
      <trkpt lat="45.58935" lon="6.64252">
        <ele>1801.12400384</ele>
        <time>2013-09-08T08:31:32.290Z</time>
      </trkpt>
      <trkpt lat="45.5893" lon="6.64266">
        <ele>1799.32400384</ele>
        <time>2013-09-08T08:31:35.290Z</time>
      </trkpt>
      <trkpt lat="45.58924" lon="6.6428">
        <ele>1797.03200512</ele>
        <time>2013-09-08T08:31:38.290Z</time>
      </trkpt>
      <trkpt lat="45.58917" lon="6.64293">
        <ele>1794.63200512</ele>
        <time>2013-09-08T08:31:41.290Z</time>
      </trkpt>
      <trkpt lat="45.58911" lon="6.64305">
        <ele>1792.23200512</ele>
        <time>2013-09-08T08:31:44.290Z</time>
      </trkpt>
      <trkpt lat="45.58903" lon="6.6432">
        <ele>1789.27800448</ele>
        <time>2013-09-08T08:31:48.290Z</time>
      </trkpt>
      <trkpt lat="45.58895" lon="6.64331">
        <ele>1787.17800448</ele>
        <time>2013-09-08T08:31:51.290Z</time>
      </trkpt>
      <trkpt lat="45.58888" lon="6.64342">
        <ele>1785.07800448</ele>
        <time>2013-09-08T08:31:54.290Z</time>
      </trkpt>
      <trkpt lat="45.58879" lon="6.64349">
        <ele>1783.41600256</ele>
        <time>2013-09-08T08:31:57.290Z</time>
      </trkpt>
      <trkpt lat="45.58869" lon="6.64352">
        <ele>1782.21600256</ele>
        <time>2013-09-08T08:32:00.290Z</time>
      </trkpt>
      <trkpt lat="45.58858" lon="6.64353">
        <ele>1781.01600256</ele>
        <time>2013-09-08T08:32:03.290Z</time>
      </trkpt>
      <trkpt lat="45.58847" lon="6.64352">
        <ele>1779.90800128</ele>
        <time>2013-09-08T08:32:06.290Z</time>
      </trkpt>
      <trkpt lat="45.58836" lon="6.64353">
        <ele>1779.30800128</ele>
        <time>2013-09-08T08:32:09.290Z</time>
      </trkpt>
      <trkpt lat="45.58826" lon="6.64355">
        <ele>1778.70800128</ele>
        <time>2013-09-08T08:32:12.290Z</time>
      </trkpt>
      <trkpt lat="45.58815" lon="6.64357">
        <ele>1778.10800128</ele>
        <time>2013-09-08T08:32:15.290Z</time>
      </trkpt>
      <trkpt lat="45.58803" lon="6.64359">
        <ele>1776.9640731108</ele>
        <time>2013-09-08T08:32:19.290Z</time>
      </trkpt>
      <trkpt lat="45.58789" lon="6.64361">
        <ele>1775.7664675554</ele>
        <time>2013-09-08T08:32:23.290Z</time>
      </trkpt>
      <trkpt lat="45.58779" lon="6.64365">
        <ele>1774.8236474077</ele>
        <time>2013-09-08T08:32:26.290Z</time>
      </trkpt>
      <trkpt lat="45.58766" lon="6.64371">
        <ele>1773.220442023</ele>
        <time>2013-09-08T08:32:30.290Z</time>
      </trkpt>
      <trkpt lat="45.58756" lon="6.64378">
        <ele>1772.0180379844</ele>
        <time>2013-09-08T08:32:33.290Z</time>
      </trkpt>
      <trkpt lat="45.58746" lon="6.64383">
        <ele>1770.86200192</ele>
        <time>2013-09-08T08:32:36.290Z</time>
      </trkpt>
      <trkpt lat="45.58735" lon="6.64386">
        <ele>1769.96200192</ele>
        <time>2013-09-08T08:32:39.290Z</time>
      </trkpt>
      <trkpt lat="45.58725" lon="6.64391">
        <ele>1769.06200192</ele>
        <time>2013-09-08T08:32:42.290Z</time>
      </trkpt>
      <trkpt lat="45.58715" lon="6.64394">
        <ele>1768.16200192</ele>
        <time>2013-09-08T08:32:45.290Z</time>
      </trkpt>
      <trkpt lat="45.58705" lon="6.64398">
        <ele>1767.26200192</ele>
        <time>2013-09-08T08:32:48.290Z</time>
      </trkpt>
      <trkpt lat="45.58695" lon="6.64404">
        <ele>1766.35900288</ele>
        <time>2013-09-08T08:32:51.300Z</time>
      </trkpt>
      <trkpt lat="45.58686" lon="6.6441">
        <ele>1765.46200192</ele>
        <time>2013-09-08T08:32:54.290Z</time>
      </trkpt>
      <trkpt lat="45.58674" lon="6.64417">
        <ele>1763.7833847993</ele>
        <time>2013-09-08T08:32:58.290Z</time>
      </trkpt>
      <trkpt lat="45.58664" lon="6.64423">
        <ele>1762.2997038652</ele>
        <time>2013-09-08T08:33:01.290Z</time>
      </trkpt>
      <trkpt lat="45.58654" lon="6.64427">
        <ele>1760.8160229311</ele>
        <time>2013-09-08T08:33:04.290Z</time>
      </trkpt>
      <trkpt lat="45.58644" lon="6.64431">
        <ele>1759.4499499778</ele>
        <time>2013-09-08T08:33:07.300Z</time>
      </trkpt>
      <trkpt lat="45.58633" lon="6.64432">
        <ele>1757.8321557949</ele>
        <time>2013-09-08T08:33:11.300Z</time>
      </trkpt>
      <trkpt lat="45.58621" lon="6.64438">
        <ele>1756.2103132438</ele>
        <time>2013-09-08T08:33:15.310Z</time>
      </trkpt>
      <trkpt lat="45.5861" lon="6.64444">
        <ele>1755.64899968</ele>
        <time>2013-09-08T08:33:19.340Z</time>
      </trkpt>
      <trkpt lat="45.58599" lon="6.64447">
        <ele>1755.25000064</ele>
        <time>2013-09-08T08:33:23.330Z</time>
      </trkpt>
      <trkpt lat="45.58589" lon="6.64451">
        <ele>1755.768</ele>
        <time>2013-09-08T08:33:28.390Z</time>
      </trkpt>
      <trkpt lat="45.58578" lon="6.64455">
        <ele>1756.968</ele>
        <time>2013-09-08T08:33:32.390Z</time>
      </trkpt>
      <trkpt lat="45.58566" lon="6.64457">
        <ele>1758.09999872</ele>
        <time>2013-09-08T08:33:36.330Z</time>
      </trkpt>
      <trkpt lat="45.58556" lon="6.64462">
        <ele>1758.89999872</ele>
        <time>2013-09-08T08:33:40.330Z</time>
      </trkpt>
      <trkpt lat="45.58544" lon="6.64466">
        <ele>1759.69999872</ele>
        <time>2013-09-08T08:33:44.330Z</time>
      </trkpt>
      <trkpt lat="45.58533" lon="6.64469">
        <ele>1760.51000064</ele>
        <time>2013-09-08T08:33:48.380Z</time>
      </trkpt>
      <trkpt lat="45.58525" lon="6.64468">
        <ele>1761.10999808</ele>
        <time>2013-09-08T08:33:51.380Z</time>
      </trkpt>
      <trkpt lat="45.58516" lon="6.64466">
        <ele>1761.71000064</ele>
        <time>2013-09-08T08:33:54.380Z</time>
      </trkpt>
      <trkpt lat="45.58505" lon="6.64461">
        <ele>1762.512</ele>
        <time>2013-09-08T08:33:58.390Z</time>
      </trkpt>
      <trkpt lat="45.58496" lon="6.6446">
        <ele>1763.112</ele>
        <time>2013-09-08T08:34:01.390Z</time>
      </trkpt>
      <trkpt lat="45.58483" lon="6.64457">
        <ele>1763.912</ele>
        <time>2013-09-08T08:34:05.390Z</time>
      </trkpt>
      <trkpt lat="45.58471" lon="6.64455">
        <ele>1764.356</ele>
        <time>2013-09-08T08:34:09.390Z</time>
      </trkpt>
      <trkpt lat="45.58461" lon="6.64453">
        <ele>1764.756</ele>
        <time>2013-09-08T08:34:13.390Z</time>
      </trkpt>
      <trkpt lat="45.58451" lon="6.64456">
        <ele>1764.70000128</ele>
        <time>2013-09-08T08:34:17.330Z</time>
      </trkpt>
      <trkpt lat="45.58449" lon="6.64473">
        <ele>1763.70000128</ele>
        <time>2013-09-08T08:34:22.330Z</time>
      </trkpt>
      <trkpt lat="45.58455" lon="6.64485">
        <ele>1761.20000768</ele>
        <time>2013-09-08T08:34:27.330Z</time>
      </trkpt>
      <trkpt lat="45.58458" lon="6.64499">
        <ele>1751.60000768</ele>
        <time>2013-09-08T08:34:35.330Z</time>
      </trkpt>
      <trkpt lat="45.58465" lon="6.64512">
        <ele>1748.864</ele>
        <time>2013-09-08T08:34:39.390Z</time>
      </trkpt>
      <trkpt lat="45.58474" lon="6.64522">
        <ele>1746.464</ele>
        <time>2013-09-08T08:34:43.390Z</time>
      </trkpt>
      <trkpt lat="45.58478" lon="6.64532">
        <ele>1743.752</ele>
        <time>2013-09-08T08:34:47.390Z</time>
      </trkpt>
      <trkpt lat="45.58467" lon="6.64539">
        <ele>1740.552</ele>
        <time>2013-09-08T08:34:51.390Z</time>
      </trkpt>
      <trkpt lat="45.58458" lon="6.64545">
        <ele>1738.152</ele>
        <time>2013-09-08T08:34:54.390Z</time>
      </trkpt>
      <trkpt lat="45.5845" lon="6.64553">
        <ele>1734.4499968</ele>
        <time>2013-09-08T08:34:58.380Z</time>
      </trkpt>
      <trkpt lat="45.58442" lon="6.64558">
        <ele>1731.4500096</ele>
        <time>2013-09-08T08:35:01.380Z</time>
      </trkpt>
      <trkpt lat="45.58432" lon="6.64559">
        <ele>1727.4500096</ele>
        <time>2013-09-08T08:35:05.380Z</time>
      </trkpt>
      <trkpt lat="45.58427" lon="6.64574">
        <ele>1724.2700032</ele>
        <time>2013-09-08T08:35:11.290Z</time>
      </trkpt>
      <trkpt lat="45.58419" lon="6.64583">
        <ele>1720.56</ele>
        <time>2013-09-08T08:35:18.230Z</time>
      </trkpt>
      <trkpt lat="45.5841" lon="6.64596">
        <ele>1717.56</ele>
        <time>2013-09-08T08:35:23.230Z</time>
      </trkpt>
      <trkpt lat="45.58403" lon="6.64603">
        <ele>1715.5400064</ele>
        <time>2013-09-08T08:35:26.290Z</time>
      </trkpt>
      <trkpt lat="45.58394" lon="6.64614">
        <ele>1711.5400064</ele>
        <time>2013-09-08T08:35:30.290Z</time>
      </trkpt>
      <trkpt lat="45.58386" lon="6.64624">
        <ele>1706.5400064</ele>
        <time>2013-09-08T08:35:35.290Z</time>
      </trkpt>
      <trkpt lat="45.58396" lon="6.6463">
        <ele>1703.7700032</ele>
        <time>2013-09-08T08:35:40.290Z</time>
      </trkpt>
      <trkpt lat="45.58407" lon="6.64634">
        <ele>1702.2700032</ele>
        <time>2013-09-08T08:35:43.290Z</time>
      </trkpt>
      <trkpt lat="45.58417" lon="6.64636">
        <ele>1700.9090021688</ele>
        <time>2013-09-08T08:35:46.290Z</time>
      </trkpt>
      <trkpt lat="45.58426" lon="6.64638">
        <ele>1700.3155297952</ele>
        <time>2013-09-08T08:35:49.290Z</time>
      </trkpt>
      <trkpt lat="45.58418" lon="6.64651">
        <ele>1698.0161766476</ele>
        <time>2013-09-08T08:35:57.330Z</time>
      </trkpt>
      <trkpt lat="45.58407" lon="6.64655">
        <ele>1695.8928217825</ele>
        <time>2013-09-08T08:36:00.330Z</time>
      </trkpt>
      <trkpt lat="45.58397" lon="6.64662">
        <ele>1693.7694669174</ele>
        <time>2013-09-08T08:36:03.330Z</time>
      </trkpt>
      <trkpt lat="45.58387" lon="6.64669">
        <ele>1691.7249984</ele>
        <time>2013-09-08T08:36:06.380Z</time>
      </trkpt>
      <trkpt lat="45.5838" lon="6.64676">
        <ele>1690.2250048</ele>
        <time>2013-09-08T08:36:09.380Z</time>
      </trkpt>
      <trkpt lat="45.58372" lon="6.64684">
        <ele>1688.7249984</ele>
        <time>2013-09-08T08:36:12.380Z</time>
      </trkpt>
      <trkpt lat="45.58364" lon="6.64692">
        <ele>1687.2250048</ele>
        <time>2013-09-08T08:36:15.380Z</time>
      </trkpt>
      <trkpt lat="45.58352" lon="6.647">
        <ele>1685.576</ele>
        <time>2013-09-08T08:36:19.390Z</time>
      </trkpt>
      <trkpt lat="45.5834" lon="6.64704">
        <ele>1683.976</ele>
        <time>2013-09-08T08:36:23.390Z</time>
      </trkpt>
      <trkpt lat="45.58329" lon="6.64706">
        <ele>1681.596</ele>
        <time>2013-09-08T08:36:27.390Z</time>
      </trkpt>
      <trkpt lat="45.58317" lon="6.64706">
        <ele>1677.996</ele>
        <time>2013-09-08T08:36:31.390Z</time>
      </trkpt>
      <trkpt lat="45.58306" lon="6.64707">
        <ele>1675.296</ele>
        <time>2013-09-08T08:36:34.390Z</time>
      </trkpt>
      <trkpt lat="45.58294" lon="6.64708">
        <ele>1673.688</ele>
        <time>2013-09-08T08:36:37.390Z</time>
      </trkpt>
      <trkpt lat="45.58281" lon="6.64707">
        <ele>1672.888</ele>
        <time>2013-09-08T08:36:41.390Z</time>
      </trkpt>
      <trkpt lat="45.5827" lon="6.64701">
        <ele>1672.288</ele>
        <time>2013-09-08T08:36:44.390Z</time>
      </trkpt>
      <trkpt lat="45.5826" lon="6.64695">
        <ele>1670.596</ele>
        <time>2013-09-08T08:36:47.390Z</time>
      </trkpt>
      <trkpt lat="45.5825" lon="6.64688">
        <ele>1667.896</ele>
        <time>2013-09-08T08:36:50.390Z</time>
      </trkpt>
      <trkpt lat="45.58241" lon="6.6468">
        <ele>1665.196</ele>
        <time>2013-09-08T08:36:53.390Z</time>
      </trkpt>
      <trkpt lat="45.58234" lon="6.64671">
        <ele>1662.552</ele>
        <time>2013-09-08T08:36:56.390Z</time>
      </trkpt>
      <trkpt lat="45.58225" lon="6.64665">
        <ele>1660.14400256</ele>
        <time>2013-09-08T08:36:59.400Z</time>
      </trkpt>
      <trkpt lat="45.58216" lon="6.64658">
        <ele>1657.752</ele>
        <time>2013-09-08T08:37:02.390Z</time>
      </trkpt>
      <trkpt lat="45.58207" lon="6.64655">
        <ele>1655.352</ele>
        <time>2013-09-08T08:37:05.390Z</time>
      </trkpt>
      <trkpt lat="45.58198" lon="6.64654">
        <ele>1654.232</ele>
        <time>2013-09-08T08:37:08.390Z</time>
      </trkpt>
      <trkpt lat="45.58188" lon="6.64651">
        <ele>1653.332</ele>
        <time>2013-09-08T08:37:11.390Z</time>
      </trkpt>
      <trkpt lat="45.58178" lon="6.64646">
        <ele>1652.432</ele>
        <time>2013-09-08T08:37:14.390Z</time>
      </trkpt>
      <trkpt lat="45.5817" lon="6.64639">
        <ele>1651.22</ele>
        <time>2013-09-08T08:37:17.390Z</time>
      </trkpt>
      <trkpt lat="45.58163" lon="6.64635">
        <ele>1649.72</ele>
        <time>2013-09-08T08:37:20.390Z</time>
      </trkpt>
      <trkpt lat="45.58154" lon="6.64631">
        <ele>1648.22</ele>
        <time>2013-09-08T08:37:23.390Z</time>
      </trkpt>
      <trkpt lat="45.58145" lon="6.64627">
        <ele>1646.72</ele>
        <time>2013-09-08T08:37:26.390Z</time>
      </trkpt>
      <trkpt lat="45.58136" lon="6.64622">
        <ele>1645.22</ele>
        <time>2013-09-08T08:37:29.390Z</time>
      </trkpt>
      <trkpt lat="45.58124" lon="6.64615">
        <ele>1643.22</ele>
        <time>2013-09-08T08:37:33.390Z</time>
      </trkpt>
      <trkpt lat="45.58115" lon="6.6461">
        <ele>1641.72</ele>
        <time>2013-09-08T08:37:36.390Z</time>
      </trkpt>
      <trkpt lat="45.58103" lon="6.64603">
        <ele>1639.7150016</ele>
        <time>2013-09-08T08:37:40.400Z</time>
      </trkpt>
      <trkpt lat="45.5809" lon="6.646">
        <ele>1637.72</ele>
        <time>2013-09-08T08:37:44.390Z</time>
      </trkpt>
      <trkpt lat="45.5808" lon="6.64598">
        <ele>1635.4462151394</ele>
        <time>2013-09-08T08:37:47.390Z</time>
      </trkpt>
      <trkpt lat="45.58068" lon="6.64595">
        <ele>1632.4581673307</ele>
        <time>2013-09-08T08:37:50.390Z</time>
      </trkpt>
      <trkpt lat="45.58058" lon="6.64591">
        <ele>1629.4701195219</ele>
        <time>2013-09-08T08:37:53.390Z</time>
      </trkpt>
      <trkpt lat="45.58048" lon="6.64587">
        <ele>1626.7911646586</ele>
        <time>2013-09-08T08:37:56.390Z</time>
      </trkpt>
      <trkpt lat="45.58038" lon="6.64581">
        <ele>1625.5863453815</ele>
        <time>2013-09-08T08:37:59.390Z</time>
      </trkpt>
      <trkpt lat="45.58028" lon="6.64575">
        <ele>1624.3815261044</ele>
        <time>2013-09-08T08:38:02.390Z</time>
      </trkpt>
      <trkpt lat="45.58018" lon="6.64569">
        <ele>1623.1767068273</ele>
        <time>2013-09-08T08:38:05.390Z</time>
      </trkpt>
      <trkpt lat="45.58007" lon="6.64563">
        <ele>1621.932</ele>
        <time>2013-09-08T08:38:09.390Z</time>
      </trkpt>
      <trkpt lat="45.58014" lon="6.64576">
        <ele>1618.95000192</ele>
        <time>2013-09-08T08:38:19.330Z</time>
      </trkpt>
      <trkpt lat="45.58023" lon="6.64589">
        <ele>1617.75000192</ele>
        <time>2013-09-08T08:38:23.330Z</time>
      </trkpt>
      <trkpt lat="45.5803" lon="6.64604">
        <ele>1615.128</ele>
        <time>2013-09-08T08:38:27.390Z</time>
      </trkpt>
      <trkpt lat="45.58037" lon="6.6462">
        <ele>1610.328</ele>
        <time>2013-09-08T08:38:31.390Z</time>
      </trkpt>
      <trkpt lat="45.58042" lon="6.64634">
        <ele>1606.71600384</ele>
        <time>2013-09-08T08:38:34.400Z</time>
      </trkpt>
      <trkpt lat="45.58046" lon="6.6465">
        <ele>1603.4776095451</ele>
        <time>2013-09-08T08:38:38.380Z</time>
      </trkpt>
      <trkpt lat="45.58049" lon="6.64663">
        <ele>1601.0895490832</ele>
        <time>2013-09-08T08:38:42.380Z</time>
      </trkpt>
      <trkpt lat="45.58057" lon="6.64675">
        <ele>1597.9799020768</ele>
        <time>2013-09-08T08:38:47.330Z</time>
      </trkpt>
      <trkpt lat="45.58059" lon="6.64692">
        <ele>1595.1658326301</ele>
        <time>2013-09-08T08:38:51.330Z</time>
      </trkpt>
      <trkpt lat="45.58063" lon="6.6471">
        <ele>1592.3517631833</ele>
        <time>2013-09-08T08:38:55.330Z</time>
      </trkpt>
      <trkpt lat="45.58062" lon="6.64724">
        <ele>1590.20100224</ele>
        <time>2013-09-08T08:38:58.400Z</time>
      </trkpt>
      <trkpt lat="45.58061" lon="6.64739">
        <ele>1587.408</ele>
        <time>2013-09-08T08:39:02.390Z</time>
      </trkpt>
      <trkpt lat="45.58052" lon="6.64747">
        <ele>1583.71299712</ele>
        <time>2013-09-08T08:39:07.260Z</time>
      </trkpt>
      <trkpt lat="45.58041" lon="6.64755">
        <ele>1580.11299712</ele>
        <time>2013-09-08T08:39:11.260Z</time>
      </trkpt>
      <trkpt lat="45.5803" lon="6.64764">
        <ele>1575.60000512</ele>
        <time>2013-09-08T08:39:16.330Z</time>
      </trkpt>
      <trkpt lat="45.58021" lon="6.6477">
        <ele>1572.40000512</ele>
        <time>2013-09-08T08:39:20.330Z</time>
      </trkpt>
      <trkpt lat="45.58011" lon="6.64769">
        <ele>1568.40000512</ele>
        <time>2013-09-08T08:39:25.330Z</time>
      </trkpt>
      <trkpt lat="45.58002" lon="6.64758">
        <ele>1564.808</ele>
        <time>2013-09-08T08:39:30.390Z</time>
      </trkpt>
      <trkpt lat="45.57991" lon="6.64752">
        <ele>1561.308</ele>
        <time>2013-09-08T08:39:35.390Z</time>
      </trkpt>
      <trkpt lat="45.57979" lon="6.64749">
        <ele>1557.808</ele>
        <time>2013-09-08T08:39:40.390Z</time>
      </trkpt>
      <trkpt lat="45.5797" lon="6.64747">
        <ele>1555.708</ele>
        <time>2013-09-08T08:39:43.390Z</time>
      </trkpt>
      <trkpt lat="45.57957" lon="6.64745">
        <ele>1552.596</ele>
        <time>2013-09-08T08:39:47.390Z</time>
      </trkpt>
      <trkpt lat="45.57946" lon="6.64748">
        <ele>1548.996</ele>
        <time>2013-09-08T08:39:51.390Z</time>
      </trkpt>
      <trkpt lat="45.57936" lon="6.64754">
        <ele>1545.396</ele>
        <time>2013-09-08T08:39:55.390Z</time>
      </trkpt>
      <trkpt lat="45.57925" lon="6.64756">
        <ele>1542.51500672</ele>
        <time>2013-09-08T08:39:59.380Z</time>
      </trkpt>
      <trkpt lat="45.57913" lon="6.64757">
        <ele>1539.71500672</ele>
        <time>2013-09-08T08:40:03.380Z</time>
      </trkpt>
      <trkpt lat="45.57903" lon="6.64755">
        <ele>1536.95000448</ele>
        <time>2013-09-08T08:40:07.330Z</time>
      </trkpt>
      <trkpt lat="45.5789" lon="6.64753">
        <ele>1534.15000448</ele>
        <time>2013-09-08T08:40:11.330Z</time>
      </trkpt>
      <trkpt lat="45.57878" lon="6.64752">
        <ele>1531.35000448</ele>
        <time>2013-09-08T08:40:15.330Z</time>
      </trkpt>
      <trkpt lat="45.57866" lon="6.64755">
        <ele>1528.152</ele>
        <time>2013-09-08T08:40:19.390Z</time>
      </trkpt>
      <trkpt lat="45.57856" lon="6.64758">
        <ele>1524.952</ele>
        <time>2013-09-08T08:40:23.390Z</time>
      </trkpt>
      <trkpt lat="45.57845" lon="6.64761">
        <ele>1521.752</ele>
        <time>2013-09-08T08:40:27.390Z</time>
      </trkpt>
      <trkpt lat="45.57833" lon="6.64766">
        <ele>1518.552</ele>
        <time>2013-09-08T08:40:31.390Z</time>
      </trkpt>
      <trkpt lat="45.57822" lon="6.6477">
        <ele>1514.552</ele>
        <time>2013-09-08T08:40:36.390Z</time>
      </trkpt>
      <trkpt lat="45.57812" lon="6.64777">
        <ele>1510.552</ele>
        <time>2013-09-08T08:40:41.390Z</time>
      </trkpt>
      <trkpt lat="45.57803" lon="6.64782">
        <ele>1508.152</ele>
        <time>2013-09-08T08:40:44.390Z</time>
      </trkpt>
      <trkpt lat="45.57794" lon="6.64787">
        <ele>1505.80000512</ele>
        <time>2013-09-08T08:40:47.330Z</time>
      </trkpt>
      <trkpt lat="45.57782" lon="6.64794">
        <ele>1501.80000512</ele>
        <time>2013-09-08T08:40:52.330Z</time>
      </trkpt>
      <trkpt lat="45.57772" lon="6.64802">
        <ele>1498.65000448</ele>
        <time>2013-09-08T08:40:56.330Z</time>
      </trkpt>
      <trkpt lat="45.57762" lon="6.64811">
        <ele>1495.85000448</ele>
        <time>2013-09-08T08:41:00.330Z</time>
      </trkpt>
      <trkpt lat="45.57755" lon="6.64821">
        <ele>1493.05000448</ele>
        <time>2013-09-08T08:41:04.330Z</time>
      </trkpt>
      <trkpt lat="45.57746" lon="6.6483">
        <ele>1489.70499712</ele>
        <time>2013-09-08T08:41:08.380Z</time>
      </trkpt>
      <trkpt lat="45.57738" lon="6.6484">
        <ele>1486.10499712</ele>
        <time>2013-09-08T08:41:12.380Z</time>
      </trkpt>
      <trkpt lat="45.57727" lon="6.6484">
        <ele>1482.552</ele>
        <time>2013-09-08T08:41:16.390Z</time>
      </trkpt>
      <trkpt lat="45.57716" lon="6.6484">
        <ele>1479.352</ele>
        <time>2013-09-08T08:41:20.390Z</time>
      </trkpt>
      <trkpt lat="45.57709" lon="6.64851">
        <ele>1475.352</ele>
        <time>2013-09-08T08:41:25.390Z</time>
      </trkpt>
      <trkpt lat="45.57709" lon="6.64867">
        <ele>1472.5203972204</ele>
        <time>2013-09-08T08:41:29.390Z</time>
      </trkpt>
      <trkpt lat="45.57711" lon="6.64883">
        <ele>1469.7343266816</ele>
        <time>2013-09-08T08:41:33.390Z</time>
      </trkpt>
      <trkpt lat="45.57715" lon="6.64898">
        <ele>1466.8341738021</ele>
        <time>2013-09-08T08:41:37.330Z</time>
      </trkpt>
      <trkpt lat="45.57719" lon="6.64912">
        <ele>1463.6180944344</ele>
        <time>2013-09-08T08:41:41.330Z</time>
      </trkpt>
      <trkpt lat="45.57722" lon="6.64927">
        <ele>1460.4020150667</ele>
        <time>2013-09-08T08:41:45.330Z</time>
      </trkpt>
      <trkpt lat="45.57724" lon="6.64941">
        <ele>1456.8151073178</ele>
        <time>2013-09-08T08:41:49.390Z</time>
      </trkpt>
      <trkpt lat="45.57727" lon="6.64956">
        <ele>1453.2365762141</ele>
        <time>2013-09-08T08:41:53.390Z</time>
      </trkpt>
      <trkpt lat="45.5773" lon="6.64974">
        <ele>1450.0945641242</ele>
        <time>2013-09-08T08:41:57.390Z</time>
      </trkpt>
      <trkpt lat="45.57734" lon="6.64989">
        <ele>1448.283700099</ele>
        <time>2013-09-08T08:42:00.390Z</time>
      </trkpt>
      <trkpt lat="45.57738" lon="6.65002">
        <ele>1446.4728360738</ele>
        <time>2013-09-08T08:42:03.390Z</time>
      </trkpt>
      <trkpt lat="45.57745" lon="6.65016">
        <ele>1444.688</ele>
        <time>2013-09-08T08:42:07.390Z</time>
      </trkpt>
      <trkpt lat="45.57752" lon="6.65029">
        <ele>1443.888</ele>
        <time>2013-09-08T08:42:11.390Z</time>
      </trkpt>
      <trkpt lat="45.57756" lon="6.65042">
        <ele>1443.288</ele>
        <time>2013-09-08T08:42:14.390Z</time>
      </trkpt>
      <trkpt lat="45.57757" lon="6.65058">
        <ele>1441.4500096</ele>
        <time>2013-09-08T08:42:17.380Z</time>
      </trkpt>
      <trkpt lat="45.57761" lon="6.65071">
        <ele>1438.4499968</ele>
        <time>2013-09-08T08:42:20.380Z</time>
      </trkpt>
      <trkpt lat="45.57768" lon="6.65084">
        <ele>1435.4500096</ele>
        <time>2013-09-08T08:42:23.380Z</time>
      </trkpt>
      <trkpt lat="45.57775" lon="6.65096">
        <ele>1432.888</ele>
        <time>2013-09-08T08:42:26.390Z</time>
      </trkpt>
      <trkpt lat="45.57781" lon="6.6511">
        <ele>1432.288</ele>
        <time>2013-09-08T08:42:29.390Z</time>
      </trkpt>
      <trkpt lat="45.57787" lon="6.65122">
        <ele>1431.688</ele>
        <time>2013-09-08T08:42:32.390Z</time>
      </trkpt>
      <trkpt lat="45.57793" lon="6.65135">
        <ele>1431.088</ele>
        <time>2013-09-08T08:42:35.390Z</time>
      </trkpt>
      <trkpt lat="45.57799" lon="6.65147">
        <ele>1429.72</ele>
        <time>2013-09-08T08:42:38.390Z</time>
      </trkpt>
      <trkpt lat="45.57805" lon="6.65164">
        <ele>1427.72</ele>
        <time>2013-09-08T08:42:42.390Z</time>
      </trkpt>
      <trkpt lat="45.57809" lon="6.65176">
        <ele>1426.2700032</ele>
        <time>2013-09-08T08:42:45.290Z</time>
      </trkpt>
      <trkpt lat="45.57815" lon="6.65192">
        <ele>1422.94</ele>
        <time>2013-09-08T08:42:49.230Z</time>
      </trkpt>
      <trkpt lat="45.57824" lon="6.65202">
        <ele>1419.34</ele>
        <time>2013-09-08T08:42:53.230Z</time>
      </trkpt>
      <trkpt lat="45.57835" lon="6.65209">
        <ele>1416.85400064</ele>
        <time>2013-09-08T08:42:57.290Z</time>
      </trkpt>
      <trkpt lat="45.57846" lon="6.65217">
        <ele>1416.45400064</ele>
        <time>2013-09-08T08:43:01.290Z</time>
      </trkpt>
      <trkpt lat="45.57853" lon="6.65226">
        <ele>1416.15400064</ele>
        <time>2013-09-08T08:43:04.290Z</time>
      </trkpt>
      <trkpt lat="45.57849" lon="6.65241">
        <ele>1414.61600256</ele>
        <time>2013-09-08T08:43:09.290Z</time>
      </trkpt>
      <trkpt lat="45.57834" lon="6.65243">
        <ele>1413.01600256</ele>
        <time>2013-09-08T08:43:13.290Z</time>
      </trkpt>
      <trkpt lat="45.57822" lon="6.65246">
        <ele>1411.5400064</ele>
        <time>2013-09-08T08:43:16.290Z</time>
      </trkpt>
      <trkpt lat="45.57814" lon="6.65255">
        <ele>1407.5400064</ele>
        <time>2013-09-08T08:43:20.290Z</time>
      </trkpt>
      <trkpt lat="45.57806" lon="6.65266">
        <ele>1403.5400064</ele>
        <time>2013-09-08T08:43:24.290Z</time>
      </trkpt>
      <trkpt lat="45.57797" lon="6.65274">
        <ele>1400.03200512</ele>
        <time>2013-09-08T08:43:28.290Z</time>
      </trkpt>
      <trkpt lat="45.57789" lon="6.65279">
        <ele>1397.63200512</ele>
        <time>2013-09-08T08:43:31.290Z</time>
      </trkpt>
      <trkpt lat="45.57779" lon="6.65281">
        <ele>1394.43200512</ele>
        <time>2013-09-08T08:43:35.290Z</time>
      </trkpt>
      <trkpt lat="45.57768" lon="6.65285">
        <ele>1391.57800448</ele>
        <time>2013-09-08T08:43:39.290Z</time>
      </trkpt>
      <trkpt lat="45.57758" lon="6.65288">
        <ele>1388.77800448</ele>
        <time>2013-09-08T08:43:43.290Z</time>
      </trkpt>
      <trkpt lat="45.57747" lon="6.65292">
        <ele>1386.28</ele>
        <time>2013-09-08T08:43:48.230Z</time>
      </trkpt>
      <trkpt lat="45.57736" lon="6.65286">
        <ele>1384.78</ele>
        <time>2013-09-08T08:43:53.230Z</time>
      </trkpt>
      <trkpt lat="45.57725" lon="6.65287">
        <ele>1382.5254778903</ele>
        <time>2013-09-08T08:43:58.290Z</time>
      </trkpt>
      <trkpt lat="45.57715" lon="6.65288">
        <ele>1380.7272755172</ele>
        <time>2013-09-08T08:44:01.290Z</time>
      </trkpt>
      <trkpt lat="45.57702" lon="6.65285">
        <ele>1378.3296723531</ele>
        <time>2013-09-08T08:44:05.290Z</time>
      </trkpt>
      <trkpt lat="45.57691" lon="6.65286">
        <ele>1376.9639652568</ele>
        <time>2013-09-08T08:44:09.290Z</time>
      </trkpt>
      <trkpt lat="45.57679" lon="6.65289">
        <ele>1375.4624642363</ele>
        <time>2013-09-08T08:44:14.290Z</time>
      </trkpt>
      <trkpt lat="45.57666" lon="6.65294">
        <ele>1372.7970199553</ele>
        <time>2013-09-08T08:44:18.290Z</time>
      </trkpt>
      <trkpt lat="45.57655" lon="6.65296">
        <ele>1369.2149292625</ele>
        <time>2013-09-08T08:44:22.290Z</time>
      </trkpt>
      <trkpt lat="45.57643" lon="6.65299">
        <ele>1365.0502493105</ele>
        <time>2013-09-08T08:44:27.230Z</time>
      </trkpt>
      <trkpt lat="45.57631" lon="6.65303">
        <ele>1362.2361798637</ele>
        <time>2013-09-08T08:44:31.230Z</time>
      </trkpt>
      <trkpt lat="45.57621" lon="6.65308">
        <ele>1359.422110417</ele>
        <time>2013-09-08T08:44:35.230Z</time>
      </trkpt>
      <trkpt lat="45.57613" lon="6.65315">
        <ele>1356.23200512</ele>
        <time>2013-09-08T08:44:39.290Z</time>
      </trkpt>
      <trkpt lat="45.57604" lon="6.65328">
        <ele>1353.03200512</ele>
        <time>2013-09-08T08:44:43.290Z</time>
      </trkpt>
      <trkpt lat="45.57593" lon="6.65335">
        <ele>1350.02</ele>
        <time>2013-09-08T08:44:47.230Z</time>
      </trkpt>
      <trkpt lat="45.57581" lon="6.65338">
        <ele>1347.22</ele>
        <time>2013-09-08T08:44:51.230Z</time>
      </trkpt>
      <trkpt lat="45.5757" lon="6.65336">
        <ele>1345.12</ele>
        <time>2013-09-08T08:44:54.230Z</time>
      </trkpt>
      <trkpt lat="45.57562" lon="6.65333">
        <ele>1343.72400384</ele>
        <time>2013-09-08T08:44:56.290Z</time>
      </trkpt>
      <trkpt lat="45.57554" lon="6.65329">
        <ele>1342.52400384</ele>
        <time>2013-09-08T08:44:58.290Z</time>
      </trkpt>
      <trkpt lat="45.57544" lon="6.65321">
        <ele>1340.72400384</ele>
        <time>2013-09-08T08:45:01.290Z</time>
      </trkpt>
      <trkpt lat="45.57537" lon="6.65314">
        <ele>1339.52400384</ele>
        <time>2013-09-08T08:45:03.290Z</time>
      </trkpt>
      <trkpt lat="45.5753" lon="6.65308">
        <ele>1338.32400384</ele>
        <time>2013-09-08T08:45:05.290Z</time>
      </trkpt>
      <trkpt lat="45.57523" lon="6.65302">
        <ele>1337.85400064</ele>
        <time>2013-09-08T08:45:07.290Z</time>
      </trkpt>
      <trkpt lat="45.57514" lon="6.65293">
        <ele>1337.55400064</ele>
        <time>2013-09-08T08:45:10.290Z</time>
      </trkpt>
      <trkpt lat="45.57506" lon="6.65282">
        <ele>1337.25400064</ele>
        <time>2013-09-08T08:45:13.290Z</time>
      </trkpt>
      <trkpt lat="45.57498" lon="6.65272">
        <ele>1336.81600256</ele>
        <time>2013-09-08T08:45:16.290Z</time>
      </trkpt>
      <trkpt lat="45.57489" lon="6.6526">
        <ele>1335.61600256</ele>
        <time>2013-09-08T08:45:19.290Z</time>
      </trkpt>
      <trkpt lat="45.57481" lon="6.65246">
        <ele>1334.41600256</ele>
        <time>2013-09-08T08:45:22.290Z</time>
      </trkpt>
      <trkpt lat="45.57475" lon="6.6523">
        <ele>1333.21600256</ele>
        <time>2013-09-08T08:45:25.290Z</time>
      </trkpt>
      <trkpt lat="45.57471" lon="6.65214">
        <ele>1331.7700032</ele>
        <time>2013-09-08T08:45:28.290Z</time>
      </trkpt>
      <trkpt lat="45.57464" lon="6.65201">
        <ele>1330.2700032</ele>
        <time>2013-09-08T08:45:31.290Z</time>
      </trkpt>
      <trkpt lat="45.57455" lon="6.65195">
        <ele>1328.7700032</ele>
        <time>2013-09-08T08:45:34.290Z</time>
      </trkpt>
      <trkpt lat="45.57448" lon="6.65184">
        <ele>1327.46800128</ele>
        <time>2013-09-08T08:45:37.160Z</time>
      </trkpt>
      <trkpt lat="45.57442" lon="6.6517">
        <ele>1326.26800128</ele>
        <time>2013-09-08T08:45:40.160Z</time>
      </trkpt>
      <trkpt lat="45.57438" lon="6.65161">
        <ele>1325.46800128</ele>
        <time>2013-09-08T08:45:42.160Z</time>
      </trkpt>
      <trkpt lat="45.57435" lon="6.65152">
        <ele>1324.66800128</ele>
        <time>2013-09-08T08:45:44.160Z</time>
      </trkpt>
      <trkpt lat="45.57428" lon="6.65142">
        <ele>1323.2700032</ele>
        <time>2013-09-08T08:45:47.290Z</time>
      </trkpt>
      <trkpt lat="45.57421" lon="6.65134">
        <ele>1321.7700032</ele>
        <time>2013-09-08T08:45:50.290Z</time>
      </trkpt>
      <trkpt lat="45.57412" lon="6.65128">
        <ele>1320.2700032</ele>
        <time>2013-09-08T08:45:53.290Z</time>
      </trkpt>
      <trkpt lat="45.57402" lon="6.65122">
        <ele>1318.58600576</ele>
        <time>2013-09-08T08:45:56.290Z</time>
      </trkpt>
      <trkpt lat="45.57392" lon="6.65115">
        <ele>1315.88600576</ele>
        <time>2013-09-08T08:45:59.290Z</time>
      </trkpt>
      <trkpt lat="45.57385" lon="6.65106">
        <ele>1313.18600576</ele>
        <time>2013-09-08T08:46:02.290Z</time>
      </trkpt>
      <trkpt lat="45.57377" lon="6.65096">
        <ele>1310.48600576</ele>
        <time>2013-09-08T08:46:05.290Z</time>
      </trkpt>
      <trkpt lat="45.57368" lon="6.65086">
        <ele>1309.01600256</ele>
        <time>2013-09-08T08:46:08.290Z</time>
      </trkpt>
      <trkpt lat="45.57362" lon="6.6508">
        <ele>1308.21600256</ele>
        <time>2013-09-08T08:46:10.290Z</time>
      </trkpt>
      <trkpt lat="45.57356" lon="6.65072">
        <ele>1307.41600256</ele>
        <time>2013-09-08T08:46:12.290Z</time>
      </trkpt>
      <trkpt lat="45.5735" lon="6.65063">
        <ele>1306.61600256</ele>
        <time>2013-09-08T08:46:14.290Z</time>
      </trkpt>
      <trkpt lat="45.57343" lon="6.6505">
        <ele>1304.97800448</ele>
        <time>2013-09-08T08:46:17.290Z</time>
      </trkpt>
      <trkpt lat="45.57336" lon="6.65039">
        <ele>1302.87800448</ele>
        <time>2013-09-08T08:46:20.290Z</time>
      </trkpt>
      <trkpt lat="45.57329" lon="6.65028">
        <ele>1300.77800448</ele>
        <time>2013-09-08T08:46:23.290Z</time>
      </trkpt>
      <trkpt lat="45.57323" lon="6.65017">
        <ele>1298.8803588087</ele>
        <time>2013-09-08T08:46:26.230Z</time>
      </trkpt>
      <trkpt lat="45.57324" lon="6.65034">
        <ele>1296.7866379613</ele>
        <time>2013-09-08T08:46:33.230Z</time>
      </trkpt>
      <trkpt lat="45.57328" lon="6.65048">
        <ele>1295.8916712778</ele>
        <time>2013-09-08T08:46:36.220Z</time>
      </trkpt>
      <trkpt lat="45.57331" lon="6.65064">
        <ele>1294.9829479001</ele>
        <time>2013-09-08T08:46:39.240Z</time>
      </trkpt>
      <trkpt lat="45.57335" lon="6.65081">
        <ele>1294.0802406449</ele>
        <time>2013-09-08T08:46:42.240Z</time>
      </trkpt>
      <trkpt lat="45.57337" lon="6.65099">
        <ele>1293.1775333897</ele>
        <time>2013-09-08T08:46:45.240Z</time>
      </trkpt>
      <trkpt lat="45.57339" lon="6.65116">
        <ele>1292.26200192</ele>
        <time>2013-09-08T08:46:48.290Z</time>
      </trkpt>
      <trkpt lat="45.57344" lon="6.65132">
        <ele>1291.36200192</ele>
        <time>2013-09-08T08:46:51.290Z</time>
      </trkpt>
      <trkpt lat="45.5735" lon="6.65147">
        <ele>1290.46200192</ele>
        <time>2013-09-08T08:46:54.290Z</time>
      </trkpt>
      <trkpt lat="45.57356" lon="6.65162">
        <ele>1289.41600256</ele>
        <time>2013-09-08T08:46:57.290Z</time>
      </trkpt>
      <trkpt lat="45.57363" lon="6.65176">
        <ele>1288.21600256</ele>
        <time>2013-09-08T08:47:00.290Z</time>
      </trkpt>
      <trkpt lat="45.57369" lon="6.65191">
        <ele>1287.01600256</ele>
        <time>2013-09-08T08:47:03.290Z</time>
      </trkpt>
      <trkpt lat="45.57376" lon="6.65205">
        <ele>1285.954229478</ele>
        <time>2013-09-08T08:47:06.290Z</time>
      </trkpt>
      <trkpt lat="45.57382" lon="6.65221">
        <ele>1285.6557219202</ele>
        <time>2013-09-08T08:47:09.290Z</time>
      </trkpt>
      <trkpt lat="45.57389" lon="6.65237">
        <ele>1285.3572143625</ele>
        <time>2013-09-08T08:47:12.290Z</time>
      </trkpt>
      <trkpt lat="45.57396" lon="6.65253">
        <ele>1285.0587068048</ele>
        <time>2013-09-08T08:47:15.290Z</time>
      </trkpt>
      <trkpt lat="45.57403" lon="6.6527">
        <ele>1285</ele>
        <time>2013-09-08T08:47:18.230Z</time>
      </trkpt>
      <trkpt lat="45.57409" lon="6.65285">
        <ele>1285</ele>
        <time>2013-09-08T08:47:21.230Z</time>
      </trkpt>
      <trkpt lat="45.57416" lon="6.653">
        <ele>1285</ele>
        <time>2013-09-08T08:47:24.230Z</time>
      </trkpt>
      <trkpt lat="45.57424" lon="6.65317">
        <ele>1285</ele>
        <time>2013-09-08T08:47:27.280Z</time>
      </trkpt>
      <trkpt lat="45.57427" lon="6.65323">
        <ele>1285</ele>
        <time>2013-09-08T08:47:29.110Z</time>
      </trkpt>
    </trkseg>
  </trk>
</gpx>